<?xml version="1.0" encoding="UTF-8"?><gpx xmlns="http://www.topografix.com/GPX/1/1" version="1.1" creator="iOrient"><trk><name>GreatWalk. Скотские горы</name><trkseg><trkpt lat="55.7933049" lon="49.1512471"><time>2023-01-15T06:24:10.193</time></trkpt><trkpt lat="55.7933048" lon="49.1512473"><time>2023-01-15T06:24:10.217</time></trkpt><trkpt lat="55.7933679" lon="49.1512644"><time>2023-01-15T06:24:11.210</time></trkpt><trkpt lat="55.7933612" lon="49.1511722"><time>2023-01-15T06:24:14.210</time></trkpt><trkpt lat="55.7933193" lon="49.1511205"><time>2023-01-15T06:24:20.217</time></trkpt><trkpt lat="55.7932576" lon="49.1511253"><time>2023-01-15T06:24:23.210</time></trkpt><trkpt lat="55.7932019" lon="49.1511806"><time>2023-01-15T06:24:26.207</time></trkpt><trkpt lat="55.7931551" lon="49.1512512"><time>2023-01-15T06:24:29.210</time></trkpt><trkpt lat="55.7931233" lon="49.1513217"><time>2023-01-15T06:24:32.213</time></trkpt><trkpt lat="55.7930922" lon="49.1513921"><time>2023-01-15T06:24:35.207</time></trkpt><trkpt lat="55.7930502" lon="49.1514307"><time>2023-01-15T06:24:43.217</time></trkpt><trkpt lat="55.7930332" lon="49.1515137"><time>2023-01-15T06:24:46.210</time></trkpt><trkpt lat="55.7930386" lon="49.1515982"><time>2023-01-15T06:24:51.210</time></trkpt><trkpt lat="55.7930188" lon="49.1516781"><time>2023-01-15T06:24:54.227</time></trkpt><trkpt lat="55.7930100" lon="49.1516975"><time>2023-01-15T06:24:55.210</time></trkpt><trkpt lat="55.7929802" lon="49.1517689"><time>2023-01-15T06:24:58.227</time></trkpt><trkpt lat="55.7929503" lon="49.1518570"><time>2023-01-15T06:25:01.247</time></trkpt><trkpt lat="55.7929372" lon="49.1519723"><time>2023-01-15T06:25:04.257</time></trkpt><trkpt lat="55.7929228" lon="49.1520632"><time>2023-01-15T06:25:06.243</time></trkpt><trkpt lat="55.7929166" lon="49.1521653"><time>2023-01-15T06:25:08.243</time></trkpt><trkpt lat="55.7929085" lon="49.1522623"><time>2023-01-15T06:25:10.253</time></trkpt><trkpt lat="55.7928887" lon="49.1523641"><time>2023-01-15T06:25:12.220</time></trkpt><trkpt lat="55.7928703" lon="49.1524652"><time>2023-01-15T06:25:14.263</time></trkpt><trkpt lat="55.7928740" lon="49.1525126"><time>2023-01-15T06:25:15.250</time></trkpt><trkpt lat="55.7928898" lon="49.1526101"><time>2023-01-15T06:25:17.250</time></trkpt><trkpt lat="55.7929007" lon="49.1527057"><time>2023-01-15T06:25:19.260</time></trkpt><trkpt lat="55.7929097" lon="49.1528033"><time>2023-01-15T06:25:21.253</time></trkpt><trkpt lat="55.7928989" lon="49.1529053"><time>2023-01-15T06:25:24.257</time></trkpt><trkpt lat="55.7928878" lon="49.1529876"><time>2023-01-15T06:25:27.257</time></trkpt><trkpt lat="55.7928730" lon="49.1530752"><time>2023-01-15T06:25:30.257</time></trkpt><trkpt lat="55.7928577" lon="49.1531546"><time>2023-01-15T06:25:33.250</time></trkpt><trkpt lat="55.7928611" lon="49.1532402"><time>2023-01-15T06:25:36.260</time></trkpt><trkpt lat="55.7928738" lon="49.1533334"><time>2023-01-15T06:25:39.250</time></trkpt><trkpt lat="55.7928510" lon="49.1534234"><time>2023-01-15T06:25:42.250</time></trkpt><trkpt lat="55.7928295" lon="49.1535007"><time>2023-01-15T06:25:44.237</time></trkpt><trkpt lat="55.7928138" lon="49.1535817"><time>2023-01-15T06:25:46.257</time></trkpt><trkpt lat="55.7928010" lon="49.1536765"><time>2023-01-15T06:25:48.280</time></trkpt><trkpt lat="55.7927886" lon="49.1537184"><time>2023-01-15T06:25:49.233</time></trkpt><trkpt lat="55.7927783" lon="49.1538121"><time>2023-01-15T06:25:51.227</time></trkpt><trkpt lat="55.7927744" lon="49.1539064"><time>2023-01-15T06:25:53.223</time></trkpt><trkpt lat="55.7927672" lon="49.1540051"><time>2023-01-15T06:25:55.223</time></trkpt><trkpt lat="55.7927551" lon="49.1541138"><time>2023-01-15T06:25:57.217</time></trkpt><trkpt lat="55.7927449" lon="49.1542190"><time>2023-01-15T06:25:59.223</time></trkpt><trkpt lat="55.7927327" lon="49.1543134"><time>2023-01-15T06:26:01.223</time></trkpt><trkpt lat="55.7927249" lon="49.1543959"><time>2023-01-15T06:26:03.227</time></trkpt><trkpt lat="55.7927349" lon="49.1544795"><time>2023-01-15T06:26:14.230</time></trkpt><trkpt lat="55.7927383" lon="49.1544889"><time>2023-01-15T06:26:15.210</time></trkpt><trkpt lat="55.7927791" lon="49.1545366"><time>2023-01-15T06:26:23.213</time></trkpt><trkpt lat="55.7928265" lon="49.1545734"><time>2023-01-15T06:26:28.210</time></trkpt><trkpt lat="55.7928338" lon="49.1546611"><time>2023-01-15T06:26:35.213</time></trkpt><trkpt lat="55.7928327" lon="49.1545679"><time>2023-01-15T06:26:47.210</time></trkpt><trkpt lat="55.7927814" lon="49.1545281"><time>2023-01-15T06:26:50.217</time></trkpt><trkpt lat="55.7927374" lon="49.1544881"><time>2023-01-15T06:26:53.207</time></trkpt><trkpt lat="55.7926917" lon="49.1545261"><time>2023-01-15T06:26:58.210</time></trkpt><trkpt lat="55.7926820" lon="49.1546173"><time>2023-01-15T06:27:00.217</time></trkpt><trkpt lat="55.7926751" lon="49.1547104"><time>2023-01-15T06:27:02.220</time></trkpt><trkpt lat="55.7926611" lon="49.1548038"><time>2023-01-15T06:27:04.213</time></trkpt><trkpt lat="55.7926476" lon="49.1549071"><time>2023-01-15T06:27:06.217</time></trkpt><trkpt lat="55.7926364" lon="49.1550153"><time>2023-01-15T06:27:08.230</time></trkpt><trkpt lat="55.7926364" lon="49.1550153"><time>2023-01-15T06:27:08.287</time></trkpt><trkpt lat="55.7926256" lon="49.1551152"><time>2023-01-15T06:27:10.227</time></trkpt><trkpt lat="55.7926197" lon="49.1551618"><time>2023-01-15T06:27:11.213</time></trkpt><trkpt lat="55.7926120" lon="49.1552463"><time>2023-01-15T06:27:13.217</time></trkpt><trkpt lat="55.7925977" lon="49.1553256"><time>2023-01-15T06:27:16.227</time></trkpt><trkpt lat="55.7925859" lon="49.1554439"><time>2023-01-15T06:27:20.227</time></trkpt><trkpt lat="55.7925816" lon="49.1555255"><time>2023-01-15T06:27:22.220</time></trkpt><trkpt lat="55.7925730" lon="49.1556158"><time>2023-01-15T06:27:24.227</time></trkpt><trkpt lat="55.7925633" lon="49.1557102"><time>2023-01-15T06:27:26.230</time></trkpt><trkpt lat="55.7925586" lon="49.1557952"><time>2023-01-15T06:27:28.223</time></trkpt><trkpt lat="55.7925635" lon="49.1559189"><time>2023-01-15T06:27:31.227</time></trkpt><trkpt lat="55.7925619" lon="49.1560123"><time>2023-01-15T06:27:33.227</time></trkpt><trkpt lat="55.7925689" lon="49.1560926"><time>2023-01-15T06:27:35.253</time></trkpt><trkpt lat="55.7925747" lon="49.1561819"><time>2023-01-15T06:27:37.263</time></trkpt><trkpt lat="55.7925834" lon="49.1562778"><time>2023-01-15T06:27:39.223</time></trkpt><trkpt lat="55.7925892" lon="49.1563792"><time>2023-01-15T06:27:41.233</time></trkpt><trkpt lat="55.7925971" lon="49.1564841"><time>2023-01-15T06:27:43.230</time></trkpt><trkpt lat="55.7926076" lon="49.1565884"><time>2023-01-15T06:27:45.250</time></trkpt><trkpt lat="55.7926271" lon="49.1566908"><time>2023-01-15T06:27:47.257</time></trkpt><trkpt lat="55.7926456" lon="49.1567833"><time>2023-01-15T06:27:49.250</time></trkpt><trkpt lat="55.7926560" lon="49.1568723"><time>2023-01-15T06:27:51.250</time></trkpt><trkpt lat="55.7926665" lon="49.1569566"><time>2023-01-15T06:27:53.257</time></trkpt><trkpt lat="55.7926676" lon="49.1570508"><time>2023-01-15T06:27:55.260</time></trkpt><trkpt lat="55.7926765" lon="49.1571478"><time>2023-01-15T06:27:57.257</time></trkpt><trkpt lat="55.7926868" lon="49.1572409"><time>2023-01-15T06:27:59.237</time></trkpt><trkpt lat="55.7926920" lon="49.1573225"><time>2023-01-15T06:28:02.260</time></trkpt><trkpt lat="55.7926927" lon="49.1574070"><time>2023-01-15T06:28:05.257</time></trkpt><trkpt lat="55.7927085" lon="49.1574998"><time>2023-01-15T06:28:09.250</time></trkpt><trkpt lat="55.7927162" lon="49.1575825"><time>2023-01-15T06:28:12.210</time></trkpt><trkpt lat="55.7927545" lon="49.1576368"><time>2023-01-15T06:28:15.240</time></trkpt><trkpt lat="55.7927090" lon="49.1576247"><time>2023-01-15T06:28:24.227</time></trkpt><trkpt lat="55.7926631" lon="49.1576212"><time>2023-01-15T06:28:27.247</time></trkpt><trkpt lat="55.7926455" lon="49.1576947"><time>2023-01-15T06:28:29.253</time></trkpt><trkpt lat="55.7926875" lon="49.1577634"><time>2023-01-15T06:28:32.253</time></trkpt><trkpt lat="55.7927094" lon="49.1578482"><time>2023-01-15T06:28:36.253</time></trkpt><trkpt lat="55.7926899" lon="49.1579349"><time>2023-01-15T06:28:47.263</time></trkpt><trkpt lat="55.7926534" lon="49.1578444"><time>2023-01-15T06:28:55.220</time></trkpt><trkpt lat="55.7926654" lon="49.1577545"><time>2023-01-15T06:28:57.227</time></trkpt><trkpt lat="55.7926525" lon="49.1576658"><time>2023-01-15T06:29:01.210</time></trkpt><trkpt lat="55.7926050" lon="49.1576548"><time>2023-01-15T06:29:03.227</time></trkpt><trkpt lat="55.7925558" lon="49.1576808"><time>2023-01-15T06:29:05.233</time></trkpt><trkpt lat="55.7925181" lon="49.1577394"><time>2023-01-15T06:29:07.243</time></trkpt><trkpt lat="55.7924950" lon="49.1578586"><time>2023-01-15T06:29:10.257</time></trkpt><trkpt lat="55.7924947" lon="49.1579723"><time>2023-01-15T06:29:12.250</time></trkpt><trkpt lat="55.7924991" lon="49.1580925"><time>2023-01-15T06:29:14.253</time></trkpt><trkpt lat="55.7925109" lon="49.1582038"><time>2023-01-15T06:29:16.247</time></trkpt><trkpt lat="55.7925151" lon="49.1583149"><time>2023-01-15T06:29:18.260</time></trkpt><trkpt lat="55.7925285" lon="49.1584261"><time>2023-01-15T06:29:20.257</time></trkpt><trkpt lat="55.7925428" lon="49.1585199"><time>2023-01-15T06:29:22.243</time></trkpt><trkpt lat="55.7925538" lon="49.1586147"><time>2023-01-15T06:29:24.253</time></trkpt><trkpt lat="55.7925593" lon="49.1587205"><time>2023-01-15T06:29:26.270</time></trkpt><trkpt lat="55.7925631" lon="49.1588305"><time>2023-01-15T06:29:28.277</time></trkpt><trkpt lat="55.7925781" lon="49.1589347"><time>2023-01-15T06:29:30.247</time></trkpt><trkpt lat="55.7925885" lon="49.1590366"><time>2023-01-15T06:29:32.270</time></trkpt><trkpt lat="55.7925990" lon="49.1591357"><time>2023-01-15T06:29:34.247</time></trkpt><trkpt lat="55.7926117" lon="49.1592530"><time>2023-01-15T06:29:36.277</time></trkpt><trkpt lat="55.7926169" lon="49.1593555"><time>2023-01-15T06:29:38.253</time></trkpt><trkpt lat="55.7926332" lon="49.1594575"><time>2023-01-15T06:29:40.247</time></trkpt><trkpt lat="55.7926429" lon="49.1595647"><time>2023-01-15T06:29:42.270</time></trkpt><trkpt lat="55.7926512" lon="49.1596716"><time>2023-01-15T06:29:44.250</time></trkpt><trkpt lat="55.7926594" lon="49.1597737"><time>2023-01-15T06:29:46.250</time></trkpt><trkpt lat="55.7926699" lon="49.1598805"><time>2023-01-15T06:29:48.253</time></trkpt><trkpt lat="55.7926825" lon="49.1599829"><time>2023-01-15T06:29:50.270</time></trkpt><trkpt lat="55.7926940" lon="49.1600804"><time>2023-01-15T06:29:52.250</time></trkpt><trkpt lat="55.7926959" lon="49.1601830"><time>2023-01-15T06:29:54.260</time></trkpt><trkpt lat="55.7927086" lon="49.1602891"><time>2023-01-15T06:29:56.257</time></trkpt><trkpt lat="55.7927186" lon="49.1603903"><time>2023-01-15T06:29:58.247</time></trkpt><trkpt lat="55.7927286" lon="49.1604937"><time>2023-01-15T06:30:00.297</time></trkpt><trkpt lat="55.7927378" lon="49.1605792"><time>2023-01-15T06:30:02.253</time></trkpt><trkpt lat="55.7927476" lon="49.1606628"><time>2023-01-15T06:30:05.280</time></trkpt><trkpt lat="55.7927608" lon="49.1607470"><time>2023-01-15T06:30:08.230</time></trkpt><trkpt lat="55.7927773" lon="49.1608367"><time>2023-01-15T06:30:11.250</time></trkpt><trkpt lat="55.7927822" lon="49.1609223"><time>2023-01-15T06:30:13.257</time></trkpt><trkpt lat="55.7927932" lon="49.1610248"><time>2023-01-15T06:30:15.253</time></trkpt><trkpt lat="55.7928026" lon="49.1611328"><time>2023-01-15T06:30:17.263</time></trkpt><trkpt lat="55.7928149" lon="49.1612426"><time>2023-01-15T06:30:19.263</time></trkpt><trkpt lat="55.7928230" lon="49.1613515"><time>2023-01-15T06:30:21.257</time></trkpt><trkpt lat="55.7928348" lon="49.1614482"><time>2023-01-15T06:30:23.263</time></trkpt><trkpt lat="55.7928598" lon="49.1615571"><time>2023-01-15T06:30:25.247</time></trkpt><trkpt lat="55.7928628" lon="49.1616643"><time>2023-01-15T06:30:27.280</time></trkpt><trkpt lat="55.7928685" lon="49.1617691"><time>2023-01-15T06:30:29.303</time></trkpt><trkpt lat="55.7928804" lon="49.1618150"><time>2023-01-15T06:30:30.247</time></trkpt><trkpt lat="55.7928894" lon="49.1619082"><time>2023-01-15T06:30:32.267</time></trkpt><trkpt lat="55.7928917" lon="49.1619968"><time>2023-01-15T06:30:34.227</time></trkpt><trkpt lat="55.7928999" lon="49.1621191"><time>2023-01-15T06:30:37.230</time></trkpt><trkpt lat="55.7929113" lon="49.1622156"><time>2023-01-15T06:30:39.233</time></trkpt><trkpt lat="55.7929336" lon="49.1623148"><time>2023-01-15T06:30:41.230</time></trkpt><trkpt lat="55.7929450" lon="49.1624161"><time>2023-01-15T06:30:43.227</time></trkpt><trkpt lat="55.7929545" lon="49.1625156"><time>2023-01-15T06:30:45.230</time></trkpt><trkpt lat="55.7929646" lon="49.1626172"><time>2023-01-15T06:30:47.227</time></trkpt><trkpt lat="55.7929785" lon="49.1627147"><time>2023-01-15T06:30:49.230</time></trkpt><trkpt lat="55.7929856" lon="49.1628136"><time>2023-01-15T06:30:51.217</time></trkpt><trkpt lat="55.7930009" lon="49.1629117"><time>2023-01-15T06:30:53.230</time></trkpt><trkpt lat="55.7930135" lon="49.1630075"><time>2023-01-15T06:30:55.210</time></trkpt><trkpt lat="55.7930225" lon="49.1630901"><time>2023-01-15T06:30:57.227</time></trkpt><trkpt lat="55.7930341" lon="49.1631844"><time>2023-01-15T06:30:59.233</time></trkpt><trkpt lat="55.7930554" lon="49.1632721"><time>2023-01-15T06:31:01.223</time></trkpt><trkpt lat="55.7930761" lon="49.1633526"><time>2023-01-15T06:31:03.283</time></trkpt><trkpt lat="55.7930979" lon="49.1634493"><time>2023-01-15T06:31:07.253</time></trkpt><trkpt lat="55.7931059" lon="49.1634739"><time>2023-01-15T06:31:08.230</time></trkpt><trkpt lat="55.7931145" lon="49.1635782"><time>2023-01-15T06:31:12.247</time></trkpt><trkpt lat="55.7931327" lon="49.1636930"><time>2023-01-15T06:31:15.250</time></trkpt><trkpt lat="55.7931447" lon="49.1637850"><time>2023-01-15T06:31:17.240</time></trkpt><trkpt lat="55.7931556" lon="49.1638744"><time>2023-01-15T06:31:19.273</time></trkpt><trkpt lat="55.7931534" lon="49.1639573"><time>2023-01-15T06:31:21.257</time></trkpt><trkpt lat="55.7931720" lon="49.1640581"><time>2023-01-15T06:31:24.250</time></trkpt><trkpt lat="55.7931786" lon="49.1641372"><time>2023-01-15T06:31:26.267</time></trkpt><trkpt lat="55.7931802" lon="49.1642471"><time>2023-01-15T06:31:29.257</time></trkpt><trkpt lat="55.7932022" lon="49.1643389"><time>2023-01-15T06:31:32.293</time></trkpt><trkpt lat="55.7932694" lon="49.1643349"><time>2023-01-15T06:31:35.293</time></trkpt><trkpt lat="55.7932964" lon="49.1643342"><time>2023-01-15T06:31:36.273</time></trkpt><trkpt lat="55.7933420" lon="49.1643603"><time>2023-01-15T06:31:38.243</time></trkpt><trkpt lat="55.7934045" lon="49.1644119"><time>2023-01-15T06:31:42.257</time></trkpt><trkpt lat="55.7934400" lon="49.1644639"><time>2023-01-15T06:31:46.213</time></trkpt><trkpt lat="55.7933976" lon="49.1644357"><time>2023-01-15T06:31:50.217</time></trkpt><trkpt lat="55.7933548" lon="49.1643917"><time>2023-01-15T06:32:02.217</time></trkpt><trkpt lat="55.7933893" lon="49.1644884"><time>2023-01-15T06:32:08.217</time></trkpt><trkpt lat="55.7934122" lon="49.1645617"><time>2023-01-15T06:32:10.210</time></trkpt><trkpt lat="55.7934295" lon="49.1646468"><time>2023-01-15T06:32:12.213</time></trkpt><trkpt lat="55.7934144" lon="49.1647325"><time>2023-01-15T06:32:17.217</time></trkpt><trkpt lat="55.7934560" lon="49.1646713"><time>2023-01-15T06:32:21.213</time></trkpt><trkpt lat="55.7935078" lon="49.1646176"><time>2023-01-15T06:32:24.227</time></trkpt><trkpt lat="55.7935078" lon="49.1646176"><time>2023-01-15T06:32:24.287</time></trkpt><trkpt lat="55.7935622" lon="49.1646660"><time>2023-01-15T06:32:27.230</time></trkpt><trkpt lat="55.7935694" lon="49.1647053"><time>2023-01-15T06:32:28.220</time></trkpt><trkpt lat="55.7935434" lon="49.1646252"><time>2023-01-15T06:32:31.217</time></trkpt><trkpt lat="55.7934867" lon="49.1646212"><time>2023-01-15T06:32:34.227</time></trkpt><trkpt lat="55.7934439" lon="49.1646699"><time>2023-01-15T06:32:36.227</time></trkpt><trkpt lat="55.7934165" lon="49.1647583"><time>2023-01-15T06:32:38.293</time></trkpt><trkpt lat="55.7934087" lon="49.1648395"><time>2023-01-15T06:32:41.227</time></trkpt><trkpt lat="55.7934462" lon="49.1648971"><time>2023-01-15T06:32:47.303</time></trkpt><trkpt lat="55.7934196" lon="49.1649854"><time>2023-01-15T06:32:50.260</time></trkpt><trkpt lat="55.7934018" lon="49.1650898"><time>2023-01-15T06:32:52.273</time></trkpt><trkpt lat="55.7933892" lon="49.1651913"><time>2023-01-15T06:32:54.267</time></trkpt><trkpt lat="55.7933825" lon="49.1652812"><time>2023-01-15T06:32:56.270</time></trkpt><trkpt lat="55.7933732" lon="49.1653675"><time>2023-01-15T06:32:58.260</time></trkpt><trkpt lat="55.7933626" lon="49.1654666"><time>2023-01-15T06:33:00.270</time></trkpt><trkpt lat="55.7933356" lon="49.1655578"><time>2023-01-15T06:33:02.257</time></trkpt><trkpt lat="55.7933308" lon="49.1656382"><time>2023-01-15T06:33:04.260</time></trkpt><trkpt lat="55.7933411" lon="49.1657277"><time>2023-01-15T06:33:07.260</time></trkpt><trkpt lat="55.7933394" lon="49.1658103"><time>2023-01-15T06:33:10.263</time></trkpt><trkpt lat="55.7933449" lon="49.1658917"><time>2023-01-15T06:33:13.253</time></trkpt><trkpt lat="55.7933599" lon="49.1660196"><time>2023-01-15T06:33:16.263</time></trkpt><trkpt lat="55.7933698" lon="49.1661297"><time>2023-01-15T06:33:18.237</time></trkpt><trkpt lat="55.7933793" lon="49.1662361"><time>2023-01-15T06:33:20.227</time></trkpt><trkpt lat="55.7933919" lon="49.1663229"><time>2023-01-15T06:33:22.250</time></trkpt><trkpt lat="55.7934057" lon="49.1664181"><time>2023-01-15T06:33:24.247</time></trkpt><trkpt lat="55.7934052" lon="49.1665142"><time>2023-01-15T06:33:26.253</time></trkpt><trkpt lat="55.7934096" lon="49.1666045"><time>2023-01-15T06:33:28.257</time></trkpt><trkpt lat="55.7934136" lon="49.1666861"><time>2023-01-15T06:33:30.247</time></trkpt><trkpt lat="55.7934273" lon="49.1667868"><time>2023-01-15T06:33:32.293</time></trkpt><trkpt lat="55.7934431" lon="49.1668771"><time>2023-01-15T06:33:34.257</time></trkpt><trkpt lat="55.7934535" lon="49.1669700"><time>2023-01-15T06:33:36.263</time></trkpt><trkpt lat="55.7934597" lon="49.1670672"><time>2023-01-15T06:33:38.257</time></trkpt><trkpt lat="55.7934705" lon="49.1671559"><time>2023-01-15T06:33:40.287</time></trkpt><trkpt lat="55.7934815" lon="49.1672519"><time>2023-01-15T06:33:42.250</time></trkpt><trkpt lat="55.7934956" lon="49.1673476"><time>2023-01-15T06:33:44.233</time></trkpt><trkpt lat="55.7935247" lon="49.1674301"><time>2023-01-15T06:33:46.243</time></trkpt><trkpt lat="55.7935582" lon="49.1675056"><time>2023-01-15T06:33:48.240</time></trkpt><trkpt lat="55.7936078" lon="49.1675803"><time>2023-01-15T06:33:51.260</time></trkpt><trkpt lat="55.7936528" lon="49.1676001"><time>2023-01-15T06:33:53.257</time></trkpt><trkpt lat="55.7937039" lon="49.1676091"><time>2023-01-15T06:33:55.257</time></trkpt><trkpt lat="55.7937545" lon="49.1675988"><time>2023-01-15T06:33:57.257</time></trkpt><trkpt lat="55.7937997" lon="49.1675839"><time>2023-01-15T06:33:59.270</time></trkpt><trkpt lat="55.7938517" lon="49.1675979"><time>2023-01-15T06:34:01.227</time></trkpt><trkpt lat="55.7939244" lon="49.1676228"><time>2023-01-15T06:34:03.233</time></trkpt><trkpt lat="55.7939739" lon="49.1676550"><time>2023-01-15T06:34:05.227</time></trkpt><trkpt lat="55.7939926" lon="49.1677425"><time>2023-01-15T06:34:09.233</time></trkpt><trkpt lat="55.7940052" lon="49.1678369"><time>2023-01-15T06:34:12.230</time></trkpt><trkpt lat="55.7940293" lon="49.1679299"><time>2023-01-15T06:34:19.230</time></trkpt><trkpt lat="55.7940559" lon="49.1680062"><time>2023-01-15T06:34:20.227</time></trkpt><trkpt lat="55.7940802" lon="49.1680781"><time>2023-01-15T06:34:21.237</time></trkpt><trkpt lat="55.7941276" lon="49.1681588"><time>2023-01-15T06:34:23.227</time></trkpt><trkpt lat="55.7941679" lon="49.1682293"><time>2023-01-15T06:34:25.217</time></trkpt><trkpt lat="55.7941905" lon="49.1683048"><time>2023-01-15T06:34:28.213</time></trkpt><trkpt lat="55.7942535" lon="49.1683505"><time>2023-01-15T06:34:30.233</time></trkpt><trkpt lat="55.7943248" lon="49.1683987"><time>2023-01-15T06:34:32.243</time></trkpt><trkpt lat="55.7943912" lon="49.1683858"><time>2023-01-15T06:34:34.227</time></trkpt><trkpt lat="55.7944335" lon="49.1683458"><time>2023-01-15T06:34:37.223</time></trkpt><trkpt lat="55.7944983" lon="49.1682887"><time>2023-01-15T06:34:39.247</time></trkpt><trkpt lat="55.7945729" lon="49.1682202"><time>2023-01-15T06:34:42.243</time></trkpt><trkpt lat="55.7946383" lon="49.1681478"><time>2023-01-15T06:34:44.233</time></trkpt><trkpt lat="55.7947045" lon="49.1680601"><time>2023-01-15T06:34:46.263</time></trkpt><trkpt lat="55.7947773" lon="49.1680091"><time>2023-01-15T06:34:48.253</time></trkpt><trkpt lat="55.7948451" lon="49.1679248"><time>2023-01-15T06:34:50.257</time></trkpt><trkpt lat="55.7949086" lon="49.1678577"><time>2023-01-15T06:34:52.260</time></trkpt><trkpt lat="55.7949581" lon="49.1678039"><time>2023-01-15T06:34:54.270</time></trkpt><trkpt lat="55.7950135" lon="49.1677377"><time>2023-01-15T06:34:56.247</time></trkpt><trkpt lat="55.7950699" lon="49.1676740"><time>2023-01-15T06:34:58.257</time></trkpt><trkpt lat="55.7951298" lon="49.1676031"><time>2023-01-15T06:35:00.230</time></trkpt><trkpt lat="55.7951887" lon="49.1675749"><time>2023-01-15T06:35:02.337</time></trkpt><trkpt lat="55.7952186" lon="49.1675693"><time>2023-01-15T06:35:03.243</time></trkpt><trkpt lat="55.7952767" lon="49.1675255"><time>2023-01-15T06:35:05.257</time></trkpt><trkpt lat="55.7953240" lon="49.1674948"><time>2023-01-15T06:35:07.247</time></trkpt><trkpt lat="55.7953583" lon="49.1674353"><time>2023-01-15T06:35:09.253</time></trkpt><trkpt lat="55.7954107" lon="49.1673613"><time>2023-01-15T06:35:12.263</time></trkpt><trkpt lat="55.7954693" lon="49.1673028"><time>2023-01-15T06:35:15.260</time></trkpt><trkpt lat="55.7955284" lon="49.1672650"><time>2023-01-15T06:35:18.270</time></trkpt><trkpt lat="55.7955844" lon="49.1672266"><time>2023-01-15T06:35:21.223</time></trkpt><trkpt lat="55.7956418" lon="49.1671845"><time>2023-01-15T06:35:24.240</time></trkpt><trkpt lat="55.7957041" lon="49.1671266"><time>2023-01-15T06:35:27.220</time></trkpt><trkpt lat="55.7957640" lon="49.1670691"><time>2023-01-15T06:35:29.223</time></trkpt><trkpt lat="55.7958163" lon="49.1670214"><time>2023-01-15T06:35:31.217</time></trkpt><trkpt lat="55.7958697" lon="49.1669834"><time>2023-01-15T06:35:33.257</time></trkpt><trkpt lat="55.7959115" lon="49.1669021"><time>2023-01-15T06:35:35.257</time></trkpt><trkpt lat="55.7959501" lon="49.1668131"><time>2023-01-15T06:35:37.280</time></trkpt><trkpt lat="55.7959802" lon="49.1667479"><time>2023-01-15T06:35:39.280</time></trkpt><trkpt lat="55.7959978" lon="49.1667319"><time>2023-01-15T06:35:40.247</time></trkpt><trkpt lat="55.7960402" lon="49.1666933"><time>2023-01-15T06:35:43.270</time></trkpt><trkpt lat="55.7960874" lon="49.1666501"><time>2023-01-15T06:35:46.247</time></trkpt><trkpt lat="55.7961362" lon="49.1666043"><time>2023-01-15T06:35:49.247</time></trkpt><trkpt lat="55.7961751" lon="49.1665614"><time>2023-01-15T06:35:52.260</time></trkpt><trkpt lat="55.7962187" lon="49.1665149"><time>2023-01-15T06:35:56.257</time></trkpt><trkpt lat="55.7962834" lon="49.1664956"><time>2023-01-15T06:36:00.257</time></trkpt><trkpt lat="55.7963309" lon="49.1664730"><time>2023-01-15T06:36:02.257</time></trkpt><trkpt lat="55.7963831" lon="49.1664568"><time>2023-01-15T06:36:04.267</time></trkpt><trkpt lat="55.7964052" lon="49.1664593"><time>2023-01-15T06:36:05.247</time></trkpt><trkpt lat="55.7964681" lon="49.1664364"><time>2023-01-15T06:36:08.263</time></trkpt><trkpt lat="55.7965268" lon="49.1664104"><time>2023-01-15T06:36:11.273</time></trkpt><trkpt lat="55.7965779" lon="49.1663764"><time>2023-01-15T06:36:14.263</time></trkpt><trkpt lat="55.7966306" lon="49.1663356"><time>2023-01-15T06:36:18.257</time></trkpt><trkpt lat="55.7966799" lon="49.1663431"><time>2023-01-15T06:36:21.237</time></trkpt><trkpt lat="55.7966799" lon="49.1663431"><time>2023-01-15T06:36:21.290</time></trkpt><trkpt lat="55.7967317" lon="49.1663404"><time>2023-01-15T06:36:24.257</time></trkpt><trkpt lat="55.7967446" lon="49.1663235"><time>2023-01-15T06:36:25.230</time></trkpt><trkpt lat="55.7967427" lon="49.1662420"><time>2023-01-15T06:36:27.227</time></trkpt><trkpt lat="55.7967462" lon="49.1661547"><time>2023-01-15T06:36:30.250</time></trkpt><trkpt lat="55.7967769" lon="49.1660770"><time>2023-01-15T06:36:41.240</time></trkpt><trkpt lat="55.7967775" lon="49.1659862"><time>2023-01-15T06:36:46.270</time></trkpt><trkpt lat="55.7967523" lon="49.1658971"><time>2023-01-15T06:37:06.250</time></trkpt><trkpt lat="55.7967605" lon="49.1658096"><time>2023-01-15T06:37:12.267</time></trkpt><trkpt lat="55.7967219" lon="49.1657242"><time>2023-01-15T06:37:38.260</time></trkpt><trkpt lat="55.7967674" lon="49.1657394"><time>2023-01-15T06:39:09.247</time></trkpt><trkpt lat="55.7967959" lon="49.1656763"><time>2023-01-15T06:39:38.263</time></trkpt><trkpt lat="55.7967974" lon="49.1655925"><time>2023-01-15T06:40:00.250</time></trkpt><trkpt lat="55.7967805" lon="49.1655107"><time>2023-01-15T06:40:11.267</time></trkpt><trkpt lat="55.7967991" lon="49.1654333"><time>2023-01-15T06:40:17.250</time></trkpt><trkpt lat="55.7968390" lon="49.1653822"><time>2023-01-15T06:40:23.253</time></trkpt><trkpt lat="55.7968702" lon="49.1653168"><time>2023-01-15T06:40:52.227</time></trkpt><trkpt lat="55.7969168" lon="49.1652909"><time>2023-01-15T06:41:02.233</time></trkpt><trkpt lat="55.7969424" lon="49.1652133"><time>2023-01-15T06:41:06.247</time></trkpt><trkpt lat="55.7969950" lon="49.1651802"><time>2023-01-15T06:41:54.233</time></trkpt><trkpt lat="55.7970370" lon="49.1651380"><time>2023-01-15T06:41:59.247</time></trkpt><trkpt lat="55.7970853" lon="49.1651244"><time>2023-01-15T06:42:03.260</time></trkpt><trkpt lat="55.7971334" lon="49.1651273"><time>2023-01-15T06:42:07.260</time></trkpt><trkpt lat="55.7971783" lon="49.1651094"><time>2023-01-15T06:42:19.280</time></trkpt><trkpt lat="55.7972146" lon="49.1650592"><time>2023-01-15T06:42:30.263</time></trkpt><trkpt lat="55.7972154" lon="49.1650623"><time>2023-01-15T06:42:31.253</time></trkpt><trkpt lat="55.7972609" lon="49.1650613"><time>2023-01-15T06:42:36.273</time></trkpt><trkpt lat="55.7973055" lon="49.1650416"><time>2023-01-15T06:42:40.267</time></trkpt><trkpt lat="55.7973309" lon="49.1649742"><time>2023-01-15T06:42:45.260</time></trkpt><trkpt lat="55.7973853" lon="49.1649414"><time>2023-01-15T06:42:55.260</time></trkpt><trkpt lat="55.7974226" lon="49.1648883"><time>2023-01-15T06:43:01.257</time></trkpt><trkpt lat="55.7974700" lon="49.1648846"><time>2023-01-15T06:43:12.270</time></trkpt><trkpt lat="55.7975168" lon="49.1648415"><time>2023-01-15T06:43:18.257</time></trkpt><trkpt lat="55.7975536" lon="49.1647845"><time>2023-01-15T06:43:24.243</time></trkpt><trkpt lat="55.7975826" lon="49.1647216"><time>2023-01-15T06:43:30.263</time></trkpt><trkpt lat="55.7976233" lon="49.1646824"><time>2023-01-15T06:43:39.247</time></trkpt><trkpt lat="55.7976734" lon="49.1646565"><time>2023-01-15T06:43:52.250</time></trkpt><trkpt lat="55.7977237" lon="49.1646386"><time>2023-01-15T06:44:05.307</time></trkpt><trkpt lat="55.7977703" lon="49.1646418"><time>2023-01-15T06:44:10.257</time></trkpt><trkpt lat="55.7978236" lon="49.1646570"><time>2023-01-15T06:44:22.250</time></trkpt><trkpt lat="55.7978756" lon="49.1646417"><time>2023-01-15T06:44:28.277</time></trkpt><trkpt lat="55.7979265" lon="49.1646192"><time>2023-01-15T06:44:33.267</time></trkpt><trkpt lat="55.7979782" lon="49.1645919"><time>2023-01-15T06:44:39.257</time></trkpt><trkpt lat="55.7980224" lon="49.1645743"><time>2023-01-15T06:44:44.247</time></trkpt><trkpt lat="55.7980650" lon="49.1645304"><time>2023-01-15T06:44:52.280</time></trkpt><trkpt lat="55.7980770" lon="49.1645302"><time>2023-01-15T06:44:53.253</time></trkpt><trkpt lat="55.7981284" lon="49.1645142"><time>2023-01-15T06:45:00.257</time></trkpt><trkpt lat="55.7981689" lon="49.1644765"><time>2023-01-15T06:45:05.247</time></trkpt><trkpt lat="55.7982122" lon="49.1644422"><time>2023-01-15T06:45:11.257</time></trkpt><trkpt lat="55.7982584" lon="49.1644156"><time>2023-01-15T06:45:15.273</time></trkpt><trkpt lat="55.7983066" lon="49.1644007"><time>2023-01-15T06:45:20.247</time></trkpt><trkpt lat="55.7983586" lon="49.1643711"><time>2023-01-15T06:45:29.260</time></trkpt><trkpt lat="55.7984045" lon="49.1643451"><time>2023-01-15T06:45:34.253</time></trkpt><trkpt lat="55.7984541" lon="49.1642927"><time>2023-01-15T06:45:39.250</time></trkpt><trkpt lat="55.7985098" lon="49.1642418"><time>2023-01-15T06:45:43.313</time></trkpt><trkpt lat="55.7985257" lon="49.1642414"><time>2023-01-15T06:45:44.220</time></trkpt><trkpt lat="55.7985760" lon="49.1642130"><time>2023-01-15T06:45:49.260</time></trkpt><trkpt lat="55.7986175" lon="49.1641746"><time>2023-01-15T06:45:55.263</time></trkpt><trkpt lat="55.7986652" lon="49.1641293"><time>2023-01-15T06:46:05.263</time></trkpt><trkpt lat="55.7987115" lon="49.1641006"><time>2023-01-15T06:46:22.207</time></trkpt><trkpt lat="55.7987435" lon="49.1640425"><time>2023-01-15T06:46:33.227</time></trkpt><trkpt lat="55.7987435" lon="49.1640425"><time>2023-01-15T06:46:33.270</time></trkpt><trkpt lat="55.7987952" lon="49.1640548"><time>2023-01-15T06:46:49.267</time></trkpt><trkpt lat="55.7988033" lon="49.1640457"><time>2023-01-15T06:46:50.253</time></trkpt><trkpt lat="55.7988321" lon="49.1639618"><time>2023-01-15T06:46:58.247</time></trkpt><trkpt lat="55.7988708" lon="49.1639027"><time>2023-01-15T06:47:03.237</time></trkpt><trkpt lat="55.7989227" lon="49.1638753"><time>2023-01-15T06:47:08.247</time></trkpt><trkpt lat="55.7989764" lon="49.1638518"><time>2023-01-15T06:47:12.233</time></trkpt><trkpt lat="55.7990196" lon="49.1638210"><time>2023-01-15T06:47:15.217</time></trkpt><trkpt lat="55.7990635" lon="49.1637968"><time>2023-01-15T06:47:18.230</time></trkpt><trkpt lat="55.7991188" lon="49.1637506"><time>2023-01-15T06:47:21.230</time></trkpt><trkpt lat="55.7991575" lon="49.1636970"><time>2023-01-15T06:47:23.227</time></trkpt><trkpt lat="55.7991987" lon="49.1636437"><time>2023-01-15T06:47:25.213</time></trkpt><trkpt lat="55.7992444" lon="49.1636160"><time>2023-01-15T06:47:27.223</time></trkpt><trkpt lat="55.7992921" lon="49.1636060"><time>2023-01-15T06:47:29.220</time></trkpt><trkpt lat="55.7993455" lon="49.1635789"><time>2023-01-15T06:47:31.250</time></trkpt><trkpt lat="55.7993749" lon="49.1635563"><time>2023-01-15T06:47:32.223</time></trkpt><trkpt lat="55.7994253" lon="49.1635011"><time>2023-01-15T06:47:34.217</time></trkpt><trkpt lat="55.7994713" lon="49.1634743"><time>2023-01-15T06:47:36.223</time></trkpt><trkpt lat="55.7995234" lon="49.1634168"><time>2023-01-15T06:47:39.223</time></trkpt><trkpt lat="55.7995615" lon="49.1633378"><time>2023-01-15T06:47:42.217</time></trkpt><trkpt lat="55.7995779" lon="49.1632294"><time>2023-01-15T06:47:45.220</time></trkpt><trkpt lat="55.7996084" lon="49.1631619"><time>2023-01-15T06:47:48.227</time></trkpt><trkpt lat="55.7996336" lon="49.1630715"><time>2023-01-15T06:47:52.223</time></trkpt><trkpt lat="55.7996857" lon="49.1630458"><time>2023-01-15T06:47:56.223</time></trkpt><trkpt lat="55.7997365" lon="49.1630458"><time>2023-01-15T06:48:01.223</time></trkpt><trkpt lat="55.7997922" lon="49.1630126"><time>2023-01-15T06:48:05.227</time></trkpt><trkpt lat="55.7998369" lon="49.1629878"><time>2023-01-15T06:48:07.223</time></trkpt><trkpt lat="55.7998819" lon="49.1629867"><time>2023-01-15T06:48:10.223</time></trkpt><trkpt lat="55.7999325" lon="49.1629661"><time>2023-01-15T06:48:14.227</time></trkpt><trkpt lat="55.7999777" lon="49.1629053"><time>2023-01-15T06:48:18.220</time></trkpt><trkpt lat="55.8000259" lon="49.1628157"><time>2023-01-15T06:48:21.220</time></trkpt><trkpt lat="55.8000693" lon="49.1627585"><time>2023-01-15T06:48:25.247</time></trkpt><trkpt lat="55.8000788" lon="49.1627503"><time>2023-01-15T06:48:26.230</time></trkpt><trkpt lat="55.8000269" lon="49.1627836"><time>2023-01-15T06:48:31.227</time></trkpt><trkpt lat="55.7999807" lon="49.1627768"><time>2023-01-15T06:49:15.230</time></trkpt><trkpt lat="55.7999647" lon="49.1628619"><time>2023-01-15T06:49:27.250</time></trkpt><trkpt lat="55.7999647" lon="49.1628803"><time>2023-01-15T06:49:28.230</time></trkpt><trkpt lat="55.7999833" lon="49.1629741"><time>2023-01-15T06:49:32.227</time></trkpt><trkpt lat="55.7999926" lon="49.1630901"><time>2023-01-15T06:49:35.220</time></trkpt><trkpt lat="55.8000004" lon="49.1631716"><time>2023-01-15T06:49:37.227</time></trkpt><trkpt lat="55.8000092" lon="49.1632636"><time>2023-01-15T06:49:39.227</time></trkpt><trkpt lat="55.8000224" lon="49.1633634"><time>2023-01-15T06:49:41.230</time></trkpt><trkpt lat="55.8000333" lon="49.1634501"><time>2023-01-15T06:49:44.227</time></trkpt><trkpt lat="55.8000667" lon="49.1635293"><time>2023-01-15T06:49:48.223</time></trkpt><trkpt lat="55.8000947" lon="49.1636015"><time>2023-01-15T06:49:51.243</time></trkpt><trkpt lat="55.8001097" lon="49.1636591"><time>2023-01-15T06:49:52.223</time></trkpt><trkpt lat="55.8001427" lon="49.1637602"><time>2023-01-15T06:49:54.207</time></trkpt><trkpt lat="55.8001717" lon="49.1638370"><time>2023-01-15T06:49:56.220</time></trkpt><trkpt lat="55.8001723" lon="49.1639601"><time>2023-01-15T06:49:59.217</time></trkpt><trkpt lat="55.8001983" lon="49.1640611"><time>2023-01-15T06:50:03.210</time></trkpt><trkpt lat="55.8002291" lon="49.1641234"><time>2023-01-15T06:50:07.213</time></trkpt><trkpt lat="55.8002574" lon="49.1641912"><time>2023-01-15T06:50:19.213</time></trkpt><trkpt lat="55.8002574" lon="49.1641912"><time>2023-01-15T06:50:19.247</time></trkpt><trkpt lat="55.8002897" lon="49.1642659"><time>2023-01-15T06:50:26.230</time></trkpt><trkpt lat="55.8002927" lon="49.1642770"><time>2023-01-15T06:50:27.210</time></trkpt><trkpt lat="55.8003269" lon="49.1643408"><time>2023-01-15T06:50:34.213</time></trkpt><trkpt lat="55.8003499" lon="49.1644098"><time>2023-01-15T06:50:45.230</time></trkpt><trkpt lat="55.8003636" lon="49.1644874"><time>2023-01-15T06:50:57.233</time></trkpt><trkpt lat="55.8003425" lon="49.1645591"><time>2023-01-15T06:51:12.227</time></trkpt><trkpt lat="55.8002980" lon="49.1646154"><time>2023-01-15T06:51:17.223</time></trkpt><trkpt lat="55.8002622" lon="49.1647071"><time>2023-01-15T06:51:20.227</time></trkpt><trkpt lat="55.8002289" lon="49.1647706"><time>2023-01-15T06:51:22.233</time></trkpt><trkpt lat="55.8001832" lon="49.1648276"><time>2023-01-15T06:51:25.227</time></trkpt><trkpt lat="55.8001629" lon="49.1649174"><time>2023-01-15T06:51:34.263</time></trkpt><trkpt lat="55.8001618" lon="49.1649442"><time>2023-01-15T06:51:35.227</time></trkpt><trkpt lat="55.8002044" lon="49.1649744"><time>2023-01-15T06:51:42.210</time></trkpt><trkpt lat="55.8002524" lon="49.1650035"><time>2023-01-15T06:51:46.217</time></trkpt><trkpt lat="55.8003001" lon="49.1650311"><time>2023-01-15T06:51:51.227</time></trkpt><trkpt lat="55.8003482" lon="49.1650704"><time>2023-01-15T06:51:56.230</time></trkpt><trkpt lat="55.8003787" lon="49.1651421"><time>2023-01-15T06:52:03.230</time></trkpt><trkpt lat="55.8004086" lon="49.1652056"><time>2023-01-15T06:52:11.227</time></trkpt><trkpt lat="55.8003654" lon="49.1652486"><time>2023-01-15T06:52:35.233</time></trkpt><trkpt lat="55.8003354" lon="49.1653111"><time>2023-01-15T06:52:39.230</time></trkpt><trkpt lat="55.8002935" lon="49.1653524"><time>2023-01-15T06:52:44.240</time></trkpt><trkpt lat="55.8002410" lon="49.1653829"><time>2023-01-15T06:52:50.237</time></trkpt><trkpt lat="55.8002410" lon="49.1653829"><time>2023-01-15T06:52:50.327</time></trkpt><trkpt lat="55.8002011" lon="49.1654352"><time>2023-01-15T06:53:03.257</time></trkpt><trkpt lat="55.8001990" lon="49.1654451"><time>2023-01-15T06:53:04.227</time></trkpt><trkpt lat="55.8002149" lon="49.1655262"><time>2023-01-15T06:53:09.230</time></trkpt><trkpt lat="55.8002024" lon="49.1656028"><time>2023-01-15T06:53:16.227</time></trkpt><trkpt lat="55.8001853" lon="49.1656775"><time>2023-01-15T06:53:21.227</time></trkpt><trkpt lat="55.8002341" lon="49.1657202"><time>2023-01-15T06:53:27.213</time></trkpt><trkpt lat="55.8002830" lon="49.1657390"><time>2023-01-15T06:53:31.230</time></trkpt><trkpt lat="55.8003353" lon="49.1657766"><time>2023-01-15T06:53:35.227</time></trkpt><trkpt lat="55.8003859" lon="49.1658151"><time>2023-01-15T06:53:39.230</time></trkpt><trkpt lat="55.8004337" lon="49.1658334"><time>2023-01-15T06:53:43.217</time></trkpt><trkpt lat="55.8004840" lon="49.1658700"><time>2023-01-15T06:53:47.257</time></trkpt><trkpt lat="55.8004901" lon="49.1658779"><time>2023-01-15T06:53:48.220</time></trkpt><trkpt lat="55.8005422" lon="49.1659013"><time>2023-01-15T06:53:53.227</time></trkpt><trkpt lat="55.8005979" lon="49.1659304"><time>2023-01-15T06:53:57.223</time></trkpt><trkpt lat="55.8006508" lon="49.1659351"><time>2023-01-15T06:54:02.230</time></trkpt><trkpt lat="55.8006780" lon="49.1660016"><time>2023-01-15T06:54:09.217</time></trkpt><trkpt lat="55.8006746" lon="49.1660880"><time>2023-01-15T06:54:15.227</time></trkpt><trkpt lat="55.8006416" lon="49.1661513"><time>2023-01-15T06:54:20.217</time></trkpt><trkpt lat="55.8006664" lon="49.1662239"><time>2023-01-15T06:54:28.233</time></trkpt><trkpt lat="55.8006988" lon="49.1662864"><time>2023-01-15T06:54:45.230</time></trkpt><trkpt lat="55.8007304" lon="49.1663569"><time>2023-01-15T06:54:52.230</time></trkpt><trkpt lat="55.8007792" lon="49.1663594"><time>2023-01-15T06:54:56.213</time></trkpt><trkpt lat="55.8008249" lon="49.1663759"><time>2023-01-15T06:54:59.233</time></trkpt><trkpt lat="55.8008697" lon="49.1663972"><time>2023-01-15T06:55:02.217</time></trkpt><trkpt lat="55.8009240" lon="49.1664275"><time>2023-01-15T06:55:06.213</time></trkpt><trkpt lat="55.8009774" lon="49.1664408"><time>2023-01-15T06:55:10.217</time></trkpt><trkpt lat="55.8010298" lon="49.1664657"><time>2023-01-15T06:55:14.217</time></trkpt><trkpt lat="55.8010841" lon="49.1664908"><time>2023-01-15T06:55:18.210</time></trkpt><trkpt lat="55.8011371" lon="49.1665165"><time>2023-01-15T06:55:22.217</time></trkpt><trkpt lat="55.8011921" lon="49.1665310"><time>2023-01-15T06:55:26.217</time></trkpt><trkpt lat="55.8012406" lon="49.1665456"><time>2023-01-15T06:55:29.213</time></trkpt><trkpt lat="55.8012921" lon="49.1665708"><time>2023-01-15T06:55:31.217</time></trkpt><trkpt lat="55.8013419" lon="49.1665979"><time>2023-01-15T06:55:33.220</time></trkpt><trkpt lat="55.8013865" lon="49.1666237"><time>2023-01-15T06:55:35.213</time></trkpt><trkpt lat="55.8014317" lon="49.1666424"><time>2023-01-15T06:55:37.217</time></trkpt><trkpt lat="55.8014795" lon="49.1666610"><time>2023-01-15T06:55:39.213</time></trkpt><trkpt lat="55.8015266" lon="49.1666926"><time>2023-01-15T06:55:41.217</time></trkpt><trkpt lat="55.8015737" lon="49.1667244"><time>2023-01-15T06:55:43.217</time></trkpt><trkpt lat="55.8016199" lon="49.1667543"><time>2023-01-15T06:55:45.213</time></trkpt><trkpt lat="55.8016699" lon="49.1667905"><time>2023-01-15T06:55:47.217</time></trkpt><trkpt lat="55.8017156" lon="49.1668193"><time>2023-01-15T06:55:49.217</time></trkpt><trkpt lat="55.8017636" lon="49.1668475"><time>2023-01-15T06:55:51.213</time></trkpt><trkpt lat="55.8018167" lon="49.1668836"><time>2023-01-15T06:55:54.213</time></trkpt><trkpt lat="55.8018668" lon="49.1668635"><time>2023-01-15T06:55:57.217</time></trkpt><trkpt lat="55.8019207" lon="49.1668935"><time>2023-01-15T06:56:01.217</time></trkpt><trkpt lat="55.8019663" lon="49.1669454"><time>2023-01-15T06:56:05.220</time></trkpt><trkpt lat="55.8020140" lon="49.1669973"><time>2023-01-15T06:56:09.220</time></trkpt><trkpt lat="55.8020722" lon="49.1670120"><time>2023-01-15T06:56:13.217</time></trkpt><trkpt lat="55.8021165" lon="49.1670778"><time>2023-01-15T06:56:17.217</time></trkpt><trkpt lat="55.8021583" lon="49.1671207"><time>2023-01-15T06:56:20.217</time></trkpt><trkpt lat="55.8021723" lon="49.1671313"><time>2023-01-15T06:56:21.213</time></trkpt><trkpt lat="55.8022140" lon="49.1671616"><time>2023-01-15T06:56:24.210</time></trkpt><trkpt lat="55.8022613" lon="49.1672119"><time>2023-01-15T06:56:28.210</time></trkpt><trkpt lat="55.8023046" lon="49.1672388"><time>2023-01-15T06:56:32.220</time></trkpt><trkpt lat="55.8023557" lon="49.1672512"><time>2023-01-15T06:56:37.217</time></trkpt><trkpt lat="55.8023886" lon="49.1671773"><time>2023-01-15T06:56:47.217</time></trkpt><trkpt lat="55.8024083" lon="49.1670965"><time>2023-01-15T06:56:51.217</time></trkpt><trkpt lat="55.8024219" lon="49.1670071"><time>2023-01-15T06:56:54.220</time></trkpt><trkpt lat="55.8024595" lon="49.1669554"><time>2023-01-15T06:56:59.237</time></trkpt><trkpt lat="55.8024696" lon="49.1669499"><time>2023-01-15T06:57:00.213</time></trkpt><trkpt lat="55.8025148" lon="49.1669221"><time>2023-01-15T06:57:05.213</time></trkpt><trkpt lat="55.8025191" lon="49.1668224"><time>2023-01-15T06:57:09.233</time></trkpt><trkpt lat="55.8025297" lon="49.1667968"><time>2023-01-15T06:57:10.213</time></trkpt><trkpt lat="55.8025619" lon="49.1667235"><time>2023-01-15T06:57:13.213</time></trkpt><trkpt lat="55.8025738" lon="49.1666393"><time>2023-01-15T06:57:18.217</time></trkpt><trkpt lat="55.8025548" lon="49.1665648"><time>2023-01-15T06:57:24.210</time></trkpt><trkpt lat="55.8025282" lon="49.1664752"><time>2023-01-15T06:57:27.213</time></trkpt><trkpt lat="55.8025117" lon="49.1664001"><time>2023-01-15T06:57:30.217</time></trkpt><trkpt lat="55.8025408" lon="49.1663386"><time>2023-01-15T06:57:37.213</time></trkpt><trkpt lat="55.8025809" lon="49.1662832"><time>2023-01-15T06:57:42.217</time></trkpt><trkpt lat="55.8026042" lon="49.1662076"><time>2023-01-15T06:57:47.217</time></trkpt><trkpt lat="55.8026512" lon="49.1662155"><time>2023-01-15T06:57:52.210</time></trkpt><trkpt lat="55.8026947" lon="49.1661948"><time>2023-01-15T06:57:59.217</time></trkpt><trkpt lat="55.8027328" lon="49.1661337"><time>2023-01-15T06:58:04.217</time></trkpt><trkpt lat="55.8027450" lon="49.1660538"><time>2023-01-15T06:58:09.210</time></trkpt><trkpt lat="55.8027533" lon="49.1659564"><time>2023-01-15T06:58:34.207</time></trkpt><trkpt lat="55.8027736" lon="49.1658551"><time>2023-01-15T06:58:37.217</time></trkpt><trkpt lat="55.8028075" lon="49.1657886"><time>2023-01-15T06:58:40.217</time></trkpt><trkpt lat="55.8028490" lon="49.1657310"><time>2023-01-15T06:58:43.210</time></trkpt><trkpt lat="55.8028864" lon="49.1656837"><time>2023-01-15T06:58:45.210</time></trkpt><trkpt lat="55.8029188" lon="49.1656180"><time>2023-01-15T06:58:52.207</time></trkpt><trkpt lat="55.8029578" lon="49.1655436"><time>2023-01-15T06:58:56.223</time></trkpt><trkpt lat="55.8029891" lon="49.1654684"><time>2023-01-15T06:58:59.220</time></trkpt><trkpt lat="55.8030404" lon="49.1654388"><time>2023-01-15T06:59:24.227</time></trkpt><trkpt lat="55.8030843" lon="49.1653975"><time>2023-01-15T06:59:28.223</time></trkpt><trkpt lat="55.8031285" lon="49.1653466"><time>2023-01-15T06:59:32.220</time></trkpt><trkpt lat="55.8031755" lon="49.1652971"><time>2023-01-15T06:59:36.247</time></trkpt><trkpt lat="55.8031834" lon="49.1652828"><time>2023-01-15T06:59:37.220</time></trkpt><trkpt lat="55.8032139" lon="49.1652219"><time>2023-01-15T07:00:11.217</time></trkpt><trkpt lat="55.8032567" lon="49.1651736"><time>2023-01-15T07:00:19.213</time></trkpt><trkpt lat="55.8032988" lon="49.1651152"><time>2023-01-15T07:00:23.213</time></trkpt><trkpt lat="55.8033334" lon="49.1650579"><time>2023-01-15T07:00:26.213</time></trkpt><trkpt lat="55.8033593" lon="49.1649915"><time>2023-01-15T07:00:30.207</time></trkpt><trkpt lat="55.8033902" lon="49.1648845"><time>2023-01-15T07:00:33.207</time></trkpt><trkpt lat="55.8033388" lon="49.1648078"><time>2023-01-15T07:00:36.210</time></trkpt><trkpt lat="55.8032948" lon="49.1647708"><time>2023-01-15T07:00:38.210</time></trkpt><trkpt lat="55.8032426" lon="49.1647312"><time>2023-01-15T07:00:40.207</time></trkpt><trkpt lat="55.8031898" lon="49.1646869"><time>2023-01-15T07:00:42.210</time></trkpt><trkpt lat="55.8031401" lon="49.1646412"><time>2023-01-15T07:00:44.217</time></trkpt><trkpt lat="55.8030941" lon="49.1645879"><time>2023-01-15T07:00:46.207</time></trkpt><trkpt lat="55.8030500" lon="49.1645231"><time>2023-01-15T07:00:48.210</time></trkpt><trkpt lat="55.8030150" lon="49.1644704"><time>2023-01-15T07:00:51.213</time></trkpt><trkpt lat="55.8029831" lon="49.1643997"><time>2023-01-15T07:00:55.227</time></trkpt><trkpt lat="55.8029788" lon="49.1643950"><time>2023-01-15T07:00:56.210</time></trkpt><trkpt lat="55.8029307" lon="49.1644203"><time>2023-01-15T07:01:14.213</time></trkpt><trkpt lat="55.8029143" lon="49.1643284"><time>2023-01-15T07:01:28.213</time></trkpt><trkpt lat="55.8028828" lon="49.1642595"><time>2023-01-15T07:01:30.213</time></trkpt><trkpt lat="55.8028541" lon="49.1641974"><time>2023-01-15T07:01:32.213</time></trkpt><trkpt lat="55.8028112" lon="49.1641583"><time>2023-01-15T07:01:34.227</time></trkpt><trkpt lat="55.8027572" lon="49.1641248"><time>2023-01-15T07:01:36.217</time></trkpt><trkpt lat="55.8027076" lon="49.1640694"><time>2023-01-15T07:01:39.207</time></trkpt><trkpt lat="55.8026646" lon="49.1640373"><time>2023-01-15T07:01:41.213</time></trkpt><trkpt lat="55.8026175" lon="49.1640090"><time>2023-01-15T07:01:43.213</time></trkpt><trkpt lat="55.8025794" lon="49.1640552"><time>2023-01-15T07:01:49.213</time></trkpt><trkpt lat="55.8025612" lon="49.1641506"><time>2023-01-15T07:01:53.213</time></trkpt><trkpt lat="55.8025419" lon="49.1642266"><time>2023-01-15T07:01:57.210</time></trkpt><trkpt lat="55.8025211" lon="49.1642999"><time>2023-01-15T07:02:06.217</time></trkpt><trkpt lat="55.8025047" lon="49.1643745"><time>2023-01-15T07:02:12.213</time></trkpt><trkpt lat="55.8025013" lon="49.1644547"><time>2023-01-15T07:02:16.217</time></trkpt><trkpt lat="55.8024743" lon="49.1645372"><time>2023-01-15T07:02:22.217</time></trkpt><trkpt lat="55.8024442" lon="49.1646006"><time>2023-01-15T07:02:29.230</time></trkpt><trkpt lat="55.8024400" lon="49.1646067"><time>2023-01-15T07:02:30.220</time></trkpt><trkpt lat="55.8024111" lon="49.1646810"><time>2023-01-15T07:02:36.210</time></trkpt><trkpt lat="55.8023722" lon="49.1647284"><time>2023-01-15T07:02:44.213</time></trkpt><trkpt lat="55.8023397" lon="49.1647865"><time>2023-01-15T07:02:50.217</time></trkpt><trkpt lat="55.8023361" lon="49.1648723"><time>2023-01-15T07:03:08.217</time></trkpt><trkpt lat="55.8023147" lon="49.1649442"><time>2023-01-15T07:03:14.213</time></trkpt><trkpt lat="55.8022985" lon="49.1650259"><time>2023-01-15T07:03:30.227</time></trkpt><trkpt lat="55.8022985" lon="49.1650259"><time>2023-01-15T07:03:30.307</time></trkpt><trkpt lat="55.8023044" lon="49.1649320"><time>2023-01-15T07:03:50.277</time></trkpt><trkpt lat="55.8023088" lon="49.1649051"><time>2023-01-15T07:03:51.227</time></trkpt><trkpt lat="55.8023361" lon="49.1648384"><time>2023-01-15T07:03:54.227</time></trkpt><trkpt lat="55.8023702" lon="49.1647703"><time>2023-01-15T07:03:59.230</time></trkpt><trkpt lat="55.8024127" lon="49.1647056"><time>2023-01-15T07:04:04.217</time></trkpt><trkpt lat="55.8024407" lon="49.1646394"><time>2023-01-15T07:04:08.220</time></trkpt><trkpt lat="55.8024380" lon="49.1645531"><time>2023-01-15T07:04:13.217</time></trkpt><trkpt lat="55.8024608" lon="49.1644694"><time>2023-01-15T07:04:17.217</time></trkpt><trkpt lat="55.8024865" lon="49.1643837"><time>2023-01-15T07:04:20.210</time></trkpt><trkpt lat="55.8024895" lon="49.1642975"><time>2023-01-15T07:04:23.217</time></trkpt><trkpt lat="55.8025280" lon="49.1642300"><time>2023-01-15T07:04:28.220</time></trkpt><trkpt lat="55.8025598" lon="49.1641647"><time>2023-01-15T07:04:31.217</time></trkpt><trkpt lat="55.8025793" lon="49.1640743"><time>2023-01-15T07:04:35.217</time></trkpt><trkpt lat="55.8026168" lon="49.1641269"><time>2023-01-15T07:04:42.213</time></trkpt><trkpt lat="55.8026620" lon="49.1641434"><time>2023-01-15T07:04:48.217</time></trkpt><trkpt lat="55.8027113" lon="49.1641843"><time>2023-01-15T07:04:53.217</time></trkpt><trkpt lat="55.8027569" lon="49.1642161"><time>2023-01-15T07:04:57.220</time></trkpt><trkpt lat="55.8028032" lon="49.1642554"><time>2023-01-15T07:05:00.213</time></trkpt><trkpt lat="55.8028530" lon="49.1643139"><time>2023-01-15T07:05:03.223</time></trkpt><trkpt lat="55.8028885" lon="49.1643936"><time>2023-01-15T07:05:06.217</time></trkpt><trkpt lat="55.8029263" lon="49.1644481"><time>2023-01-15T07:05:09.217</time></trkpt><trkpt lat="55.8029688" lon="49.1645054"><time>2023-01-15T07:05:14.217</time></trkpt><trkpt lat="55.8030203" lon="49.1645602"><time>2023-01-15T07:05:17.217</time></trkpt><trkpt lat="55.8030702" lon="49.1646189"><time>2023-01-15T07:05:20.223</time></trkpt><trkpt lat="55.8031224" lon="49.1646700"><time>2023-01-15T07:05:23.213</time></trkpt><trkpt lat="55.8031690" lon="49.1647130"><time>2023-01-15T07:05:26.223</time></trkpt><trkpt lat="55.8032118" lon="49.1647467"><time>2023-01-15T07:05:29.217</time></trkpt><trkpt lat="55.8032642" lon="49.1647876"><time>2023-01-15T07:05:32.217</time></trkpt><trkpt lat="55.8033177" lon="49.1648247"><time>2023-01-15T07:05:35.220</time></trkpt><trkpt lat="55.8033498" lon="49.1648872"><time>2023-01-15T07:05:38.217</time></trkpt><trkpt lat="55.8033765" lon="49.1649592"><time>2023-01-15T07:05:42.220</time></trkpt><trkpt lat="55.8033993" lon="49.1650364"><time>2023-01-15T07:05:47.213</time></trkpt><trkpt lat="55.8034236" lon="49.1651063"><time>2023-01-15T07:05:51.217</time></trkpt><trkpt lat="55.8034411" lon="49.1651798"><time>2023-01-15T07:05:55.217</time></trkpt><trkpt lat="55.8034447" lon="49.1652789"><time>2023-01-15T07:05:59.217</time></trkpt><trkpt lat="55.8034232" lon="49.1653515"><time>2023-01-15T07:06:02.217</time></trkpt><trkpt lat="55.8033922" lon="49.1654475"><time>2023-01-15T07:06:05.217</time></trkpt><trkpt lat="55.8033690" lon="49.1655288"><time>2023-01-15T07:06:07.217</time></trkpt><trkpt lat="55.8033342" lon="49.1656234"><time>2023-01-15T07:06:10.220</time></trkpt><trkpt lat="55.8033134" lon="49.1657084"><time>2023-01-15T07:06:14.217</time></trkpt><trkpt lat="55.8033157" lon="49.1657902"><time>2023-01-15T07:06:17.217</time></trkpt><trkpt lat="55.8033190" lon="49.1658720"><time>2023-01-15T07:06:20.217</time></trkpt><trkpt lat="55.8032839" lon="49.1659534"><time>2023-01-15T07:06:24.213</time></trkpt><trkpt lat="55.8032858" lon="49.1660349"><time>2023-01-15T07:06:27.217</time></trkpt><trkpt lat="55.8032769" lon="49.1661187"><time>2023-01-15T07:06:32.217</time></trkpt><trkpt lat="55.8032590" lon="49.1662017"><time>2023-01-15T07:06:36.220</time></trkpt><trkpt lat="55.8032524" lon="49.1663169"><time>2023-01-15T07:06:39.217</time></trkpt><trkpt lat="55.8032377" lon="49.1664252"><time>2023-01-15T07:06:41.220</time></trkpt><trkpt lat="55.8032007" lon="49.1665165"><time>2023-01-15T07:06:43.217</time></trkpt><trkpt lat="55.8031786" lon="49.1665959"><time>2023-01-15T07:06:45.220</time></trkpt><trkpt lat="55.8031641" lon="49.1666823"><time>2023-01-15T07:06:47.217</time></trkpt><trkpt lat="55.8031346" lon="49.1667658"><time>2023-01-15T07:06:52.210</time></trkpt><trkpt lat="55.8031086" lon="49.1668339"><time>2023-01-15T07:06:56.217</time></trkpt><trkpt lat="55.8030968" lon="49.1669271"><time>2023-01-15T07:07:00.217</time></trkpt><trkpt lat="55.8030797" lon="49.1670092"><time>2023-01-15T07:07:04.217</time></trkpt><trkpt lat="55.8030496" lon="49.1670824"><time>2023-01-15T07:07:10.217</time></trkpt><trkpt lat="55.8030108" lon="49.1671328"><time>2023-01-15T07:07:14.213</time></trkpt><trkpt lat="55.8029802" lon="49.1672177"><time>2023-01-15T07:07:20.217</time></trkpt><trkpt lat="55.8029480" lon="49.1672978"><time>2023-01-15T07:07:26.220</time></trkpt><trkpt lat="55.8029361" lon="49.1673841"><time>2023-01-15T07:07:31.237</time></trkpt><trkpt lat="55.8029331" lon="49.1673995"><time>2023-01-15T07:07:32.217</time></trkpt><trkpt lat="55.8029122" lon="49.1674861"><time>2023-01-15T07:07:37.217</time></trkpt><trkpt lat="55.8028584" lon="49.1676247"><time>2023-01-15T07:07:44.217</time></trkpt><trkpt lat="55.8028070" lon="49.1677601"><time>2023-01-15T07:07:45.213</time></trkpt><trkpt lat="55.8027874" lon="49.1678460"><time>2023-01-15T07:07:46.217</time></trkpt><trkpt lat="55.8027909" lon="49.1679520"><time>2023-01-15T07:07:47.220</time></trkpt><trkpt lat="55.8029016" lon="49.1682746"><time>2023-01-15T07:07:48.217</time></trkpt><trkpt lat="55.8027386" lon="49.1679663"><time>2023-01-15T07:07:49.217</time></trkpt><trkpt lat="55.8026826" lon="49.1680052"><time>2023-01-15T07:07:55.233</time></trkpt><trkpt lat="55.8026685" lon="49.1680224"><time>2023-01-15T07:07:56.213</time></trkpt><trkpt lat="55.8026292" lon="49.1680786"><time>2023-01-15T07:08:11.217</time></trkpt><trkpt lat="55.8025973" lon="49.1681357"><time>2023-01-15T07:08:17.217</time></trkpt><trkpt lat="55.8025713" lon="49.1682157"><time>2023-01-15T07:08:20.217</time></trkpt><trkpt lat="55.8025703" lon="49.1683120"><time>2023-01-15T07:08:26.217</time></trkpt><trkpt lat="55.8025335" lon="49.1683745"><time>2023-01-15T07:08:31.227</time></trkpt><trkpt lat="55.8025335" lon="49.1683745"><time>2023-01-15T07:08:31.277</time></trkpt><trkpt lat="55.8025465" lon="49.1682966"><time>2023-01-15T07:09:13.257</time></trkpt><trkpt lat="55.8025494" lon="49.1682835"><time>2023-01-15T07:09:14.230</time></trkpt><trkpt lat="55.8025966" lon="49.1682566"><time>2023-01-15T07:09:18.230</time></trkpt><trkpt lat="55.8026425" lon="49.1681685"><time>2023-01-15T07:09:21.233</time></trkpt><trkpt lat="55.8026602" lon="49.1680786"><time>2023-01-15T07:09:24.233</time></trkpt><trkpt lat="55.8026844" lon="49.1680105"><time>2023-01-15T07:09:29.233</time></trkpt><trkpt lat="55.8026887" lon="49.1679269"><time>2023-01-15T07:09:32.233</time></trkpt><trkpt lat="55.8027283" lon="49.1678593"><time>2023-01-15T07:09:35.233</time></trkpt><trkpt lat="55.8027885" lon="49.1677780"><time>2023-01-15T07:09:36.233</time></trkpt><trkpt lat="55.8028318" lon="49.1677186"><time>2023-01-15T07:09:37.240</time></trkpt><trkpt lat="55.8028896" lon="49.1676455"><time>2023-01-15T07:09:39.237</time></trkpt><trkpt lat="55.8029407" lon="49.1675975"><time>2023-01-15T07:09:42.230</time></trkpt><trkpt lat="55.8029966" lon="49.1675862"><time>2023-01-15T07:09:45.237</time></trkpt><trkpt lat="55.8030072" lon="49.1674782"><time>2023-01-15T07:09:48.230</time></trkpt><trkpt lat="55.8030347" lon="49.1674005"><time>2023-01-15T07:09:56.217</time></trkpt><trkpt lat="55.8030831" lon="49.1673881"><time>2023-01-15T07:10:00.230</time></trkpt><trkpt lat="55.8031145" lon="49.1674461"><time>2023-01-15T07:10:06.233</time></trkpt><trkpt lat="55.8031610" lon="49.1674760"><time>2023-01-15T07:10:12.253</time></trkpt><trkpt lat="55.8031867" lon="49.1674782"><time>2023-01-15T07:10:13.233</time></trkpt><trkpt lat="55.8032187" lon="49.1675474"><time>2023-01-15T07:10:19.230</time></trkpt><trkpt lat="55.8032044" lon="49.1676269"><time>2023-01-15T07:10:25.230</time></trkpt><trkpt lat="55.8032030" lon="49.1677196"><time>2023-01-15T07:10:29.233</time></trkpt><trkpt lat="55.8032438" lon="49.1677757"><time>2023-01-15T07:10:43.230</time></trkpt><trkpt lat="55.8032488" lon="49.1678614"><time>2023-01-15T07:10:49.230</time></trkpt><trkpt lat="55.8032609" lon="49.1679399"><time>2023-01-15T07:10:56.227</time></trkpt><trkpt lat="55.8032958" lon="49.1680031"><time>2023-01-15T07:11:00.233</time></trkpt><trkpt lat="55.8033262" lon="49.1680661"><time>2023-01-15T07:11:04.227</time></trkpt><trkpt lat="55.8033247" lon="49.1681487"><time>2023-01-15T07:11:13.233</time></trkpt><trkpt lat="55.8033425" lon="49.1682241"><time>2023-01-15T07:11:31.230</time></trkpt><trkpt lat="55.8033655" lon="49.1682977"><time>2023-01-15T07:11:37.227</time></trkpt><trkpt lat="55.8033802" lon="49.1683751"><time>2023-01-15T07:11:45.220</time></trkpt><trkpt lat="55.8034185" lon="49.1684210"><time>2023-01-15T07:11:55.237</time></trkpt><trkpt lat="55.8034598" lon="49.1683726"><time>2023-01-15T07:12:10.227</time></trkpt><trkpt lat="55.8034801" lon="49.1682986"><time>2023-01-15T07:12:14.237</time></trkpt><trkpt lat="55.8035184" lon="49.1682506"><time>2023-01-15T07:12:33.233</time></trkpt><trkpt lat="55.8035652" lon="49.1683018"><time>2023-01-15T07:12:39.237</time></trkpt><trkpt lat="55.8036004" lon="49.1683823"><time>2023-01-15T07:12:44.233</time></trkpt><trkpt lat="55.8036252" lon="49.1684524"><time>2023-01-15T07:12:49.233</time></trkpt><trkpt lat="55.8036697" lon="49.1684333"><time>2023-01-15T07:12:54.227</time></trkpt><trkpt lat="55.8037136" lon="49.1684083"><time>2023-01-15T07:12:59.230</time></trkpt><trkpt lat="55.8037495" lon="49.1683570"><time>2023-01-15T07:13:04.233</time></trkpt><trkpt lat="55.8037801" lon="49.1682906"><time>2023-01-15T07:13:09.233</time></trkpt><trkpt lat="55.8038042" lon="49.1682212"><time>2023-01-15T07:13:13.267</time></trkpt><trkpt lat="55.8038104" lon="49.1682141"><time>2023-01-15T07:13:14.230</time></trkpt><trkpt lat="55.8038495" lon="49.1681544"><time>2023-01-15T07:13:19.227</time></trkpt><trkpt lat="55.8038922" lon="49.1681138"><time>2023-01-15T07:13:29.233</time></trkpt><trkpt lat="55.8039272" lon="49.1680500"><time>2023-01-15T07:13:37.237</time></trkpt><trkpt lat="55.8039617" lon="49.1681031"><time>2023-01-15T07:13:50.230</time></trkpt><trkpt lat="55.8039922" lon="49.1680360"><time>2023-01-15T07:13:59.227</time></trkpt><trkpt lat="55.8040049" lon="49.1679537"><time>2023-01-15T07:14:03.247</time></trkpt><trkpt lat="55.8040049" lon="49.1679537"><time>2023-01-15T07:14:03.330</time></trkpt><trkpt lat="55.8040354" lon="49.1678765"><time>2023-01-15T07:14:09.250</time></trkpt><trkpt lat="55.8040390" lon="49.1678595"><time>2023-01-15T07:14:10.237</time></trkpt><trkpt lat="55.8040657" lon="49.1677941"><time>2023-01-15T07:14:17.230</time></trkpt><trkpt lat="55.8040981" lon="49.1677313"><time>2023-01-15T07:14:23.230</time></trkpt><trkpt lat="55.8040759" lon="49.1678138"><time>2023-01-15T07:14:39.243</time></trkpt><trkpt lat="55.8040364" lon="49.1678887"><time>2023-01-15T07:14:45.237</time></trkpt><trkpt lat="55.8040025" lon="49.1679609"><time>2023-01-15T07:14:50.233</time></trkpt><trkpt lat="55.8039836" lon="49.1680349"><time>2023-01-15T07:14:55.237</time></trkpt><trkpt lat="55.8039616" lon="49.1681090"><time>2023-01-15T07:14:59.243</time></trkpt><trkpt lat="55.8039333" lon="49.1681724"><time>2023-01-15T07:15:04.243</time></trkpt><trkpt lat="55.8039081" lon="49.1682570"><time>2023-01-15T07:15:09.240</time></trkpt><trkpt lat="55.8038860" lon="49.1683418"><time>2023-01-15T07:15:13.243</time></trkpt><trkpt lat="55.8038528" lon="49.1683969"><time>2023-01-15T07:15:18.233</time></trkpt><trkpt lat="55.8038299" lon="49.1684732"><time>2023-01-15T07:15:22.233</time></trkpt><trkpt lat="55.8038182" lon="49.1685528"><time>2023-01-15T07:15:25.237</time></trkpt><trkpt lat="55.8037864" lon="49.1686173"><time>2023-01-15T07:15:29.233</time></trkpt><trkpt lat="55.8037493" lon="49.1686659"><time>2023-01-15T07:15:33.243</time></trkpt><trkpt lat="55.8037263" lon="49.1687366"><time>2023-01-15T07:15:37.247</time></trkpt><trkpt lat="55.8037307" lon="49.1688221"><time>2023-01-15T07:15:41.233</time></trkpt><trkpt lat="55.8037362" lon="49.1689109"><time>2023-01-15T07:15:44.227</time></trkpt><trkpt lat="55.8037188" lon="49.1689954"><time>2023-01-15T07:15:47.237</time></trkpt><trkpt lat="55.8037584" lon="49.1690763"><time>2023-01-15T07:15:52.233</time></trkpt><trkpt lat="55.8038016" lon="49.1691434"><time>2023-01-15T07:15:55.233</time></trkpt><trkpt lat="55.8038338" lon="49.1692009"><time>2023-01-15T07:15:58.237</time></trkpt><trkpt lat="55.8038671" lon="49.1692628"><time>2023-01-15T07:16:01.240</time></trkpt><trkpt lat="55.8039002" lon="49.1693301"><time>2023-01-15T07:16:04.230</time></trkpt><trkpt lat="55.8039326" lon="49.1693893"><time>2023-01-15T07:16:07.237</time></trkpt><trkpt lat="55.8039657" lon="49.1694453"><time>2023-01-15T07:16:09.240</time></trkpt><trkpt lat="55.8039993" lon="49.1695123"><time>2023-01-15T07:16:11.233</time></trkpt><trkpt lat="55.8040414" lon="49.1695963"><time>2023-01-15T07:16:13.237</time></trkpt><trkpt lat="55.8040808" lon="49.1696717"><time>2023-01-15T07:16:15.230</time></trkpt><trkpt lat="55.8041113" lon="49.1697680"><time>2023-01-15T07:16:18.227</time></trkpt><trkpt lat="55.8041408" lon="49.1698335"><time>2023-01-15T07:16:20.227</time></trkpt><trkpt lat="55.8041804" lon="49.1699098"><time>2023-01-15T07:16:22.233</time></trkpt><trkpt lat="55.8042212" lon="49.1699893"><time>2023-01-15T07:16:24.237</time></trkpt><trkpt lat="55.8042519" lon="49.1700676"><time>2023-01-15T07:16:26.217</time></trkpt><trkpt lat="55.8042913" lon="49.1701361"><time>2023-01-15T07:16:28.233</time></trkpt><trkpt lat="55.8043214" lon="49.1702038"><time>2023-01-15T07:16:30.220</time></trkpt><trkpt lat="55.8043602" lon="49.1703007"><time>2023-01-15T07:16:33.227</time></trkpt><trkpt lat="55.8043954" lon="49.1703688"><time>2023-01-15T07:16:35.243</time></trkpt><trkpt lat="55.8044279" lon="49.1704392"><time>2023-01-15T07:16:38.227</time></trkpt><trkpt lat="55.8044632" lon="49.1705162"><time>2023-01-15T07:16:42.237</time></trkpt><trkpt lat="55.8044947" lon="49.1705995"><time>2023-01-15T07:16:46.233</time></trkpt><trkpt lat="55.8045244" lon="49.1706770"><time>2023-01-15T07:16:50.220</time></trkpt><trkpt lat="55.8045512" lon="49.1707625"><time>2023-01-15T07:16:54.240</time></trkpt><trkpt lat="55.8045868" lon="49.1708425"><time>2023-01-15T07:16:58.217</time></trkpt><trkpt lat="55.8046172" lon="49.1709259"><time>2023-01-15T07:17:02.227</time></trkpt><trkpt lat="55.8046434" lon="49.1709920"><time>2023-01-15T07:17:05.230</time></trkpt><trkpt lat="55.8046724" lon="49.1710851"><time>2023-01-15T07:17:08.227</time></trkpt><trkpt lat="55.8047006" lon="49.1711858"><time>2023-01-15T07:17:11.237</time></trkpt><trkpt lat="55.8047349" lon="49.1712549"><time>2023-01-15T07:17:13.240</time></trkpt><trkpt lat="55.8047596" lon="49.1713341"><time>2023-01-15T07:17:15.237</time></trkpt><trkpt lat="55.8047861" lon="49.1714099"><time>2023-01-15T07:17:17.240</time></trkpt><trkpt lat="55.8048181" lon="49.1714895"><time>2023-01-15T07:17:19.227</time></trkpt><trkpt lat="55.8048473" lon="49.1715791"><time>2023-01-15T07:17:21.240</time></trkpt><trkpt lat="55.8048782" lon="49.1716590"><time>2023-01-15T07:17:23.243</time></trkpt><trkpt lat="55.8049063" lon="49.1717490"><time>2023-01-15T07:17:25.243</time></trkpt><trkpt lat="55.8049351" lon="49.1718304"><time>2023-01-15T07:17:27.243</time></trkpt><trkpt lat="55.8049755" lon="49.1719083"><time>2023-01-15T07:17:29.243</time></trkpt><trkpt lat="55.8050224" lon="49.1719934"><time>2023-01-15T07:17:31.237</time></trkpt><trkpt lat="55.8050593" lon="49.1720774"><time>2023-01-15T07:17:33.230</time></trkpt><trkpt lat="55.8050885" lon="49.1721382"><time>2023-01-15T07:17:35.230</time></trkpt><trkpt lat="55.8051380" lon="49.1721984"><time>2023-01-15T07:17:38.230</time></trkpt><trkpt lat="55.8051621" lon="49.1722851"><time>2023-01-15T07:17:41.233</time></trkpt><trkpt lat="55.8051930" lon="49.1723641"><time>2023-01-15T07:17:43.243</time></trkpt><trkpt lat="55.8052280" lon="49.1724267"><time>2023-01-15T07:17:45.240</time></trkpt><trkpt lat="55.8052646" lon="49.1724760"><time>2023-01-15T07:17:48.220</time></trkpt><trkpt lat="55.8052807" lon="49.1723951"><time>2023-01-15T07:18:10.237</time></trkpt><trkpt lat="55.8053108" lon="49.1723041"><time>2023-01-15T07:18:15.233</time></trkpt><trkpt lat="55.8053616" lon="49.1722598"><time>2023-01-15T07:18:18.220</time></trkpt><trkpt lat="55.8053831" lon="49.1721741"><time>2023-01-15T07:18:22.227</time></trkpt><trkpt lat="55.8053979" lon="49.1720737"><time>2023-01-15T07:18:26.227</time></trkpt><trkpt lat="55.8054089" lon="49.1719796"><time>2023-01-15T07:18:29.227</time></trkpt><trkpt lat="55.8054478" lon="49.1719011"><time>2023-01-15T07:18:33.227</time></trkpt><trkpt lat="55.8054757" lon="49.1718282"><time>2023-01-15T07:18:35.223</time></trkpt><trkpt lat="55.8055027" lon="49.1717552"><time>2023-01-15T07:18:37.227</time></trkpt><trkpt lat="55.8055271" lon="49.1716665"><time>2023-01-15T07:18:39.227</time></trkpt><trkpt lat="55.8055332" lon="49.1715704"><time>2023-01-15T07:18:41.257</time></trkpt><trkpt lat="55.8055367" lon="49.1715266"><time>2023-01-15T07:18:42.220</time></trkpt><trkpt lat="55.8055436" lon="49.1714441"><time>2023-01-15T07:18:44.217</time></trkpt><trkpt lat="55.8055586" lon="49.1713565"><time>2023-01-15T07:18:46.220</time></trkpt><trkpt lat="55.8056173" lon="49.1713153"><time>2023-01-15T07:18:49.220</time></trkpt><trkpt lat="55.8056721" lon="49.1712938"><time>2023-01-15T07:18:52.220</time></trkpt><trkpt lat="55.8057254" lon="49.1712902"><time>2023-01-15T07:18:54.217</time></trkpt><trkpt lat="55.8057858" lon="49.1712677"><time>2023-01-15T07:18:57.233</time></trkpt><trkpt lat="55.8058169" lon="49.1712100"><time>2023-01-15T07:19:00.220</time></trkpt><trkpt lat="55.8058486" lon="49.1711337"><time>2023-01-15T07:19:03.223</time></trkpt><trkpt lat="55.8059023" lon="49.1710704"><time>2023-01-15T07:19:06.250</time></trkpt><trkpt lat="55.8059230" lon="49.1710518"><time>2023-01-15T07:19:07.223</time></trkpt><trkpt lat="55.8059726" lon="49.1709896"><time>2023-01-15T07:19:09.240</time></trkpt><trkpt lat="55.8060146" lon="49.1709300"><time>2023-01-15T07:19:11.227</time></trkpt><trkpt lat="55.8060541" lon="49.1708604"><time>2023-01-15T07:19:13.223</time></trkpt><trkpt lat="55.8060912" lon="49.1708110"><time>2023-01-15T07:19:15.227</time></trkpt><trkpt lat="55.8061371" lon="49.1707930"><time>2023-01-15T07:19:17.230</time></trkpt><trkpt lat="55.8061371" lon="49.1707930"><time>2023-01-15T07:19:17.287</time></trkpt><trkpt lat="55.8061960" lon="49.1707473"><time>2023-01-15T07:19:20.237</time></trkpt><trkpt lat="55.8062123" lon="49.1707321"><time>2023-01-15T07:19:21.227</time></trkpt><trkpt lat="55.8062413" lon="49.1706673"><time>2023-01-15T07:19:24.217</time></trkpt><trkpt lat="55.8062692" lon="49.1705842"><time>2023-01-15T07:19:28.223</time></trkpt><trkpt lat="55.8063015" lon="49.1705165"><time>2023-01-15T07:19:32.253</time></trkpt><trkpt lat="55.8062595" lon="49.1705593"><time>2023-01-15T07:19:57.217</time></trkpt><trkpt lat="55.8062138" lon="49.1705894"><time>2023-01-15T07:20:03.230</time></trkpt><trkpt lat="55.8061561" lon="49.1706216"><time>2023-01-15T07:20:11.237</time></trkpt><trkpt lat="55.8061069" lon="49.1706754"><time>2023-01-15T07:20:15.230</time></trkpt><trkpt lat="55.8060645" lon="49.1707095"><time>2023-01-15T07:20:17.247</time></trkpt><trkpt lat="55.8060100" lon="49.1707643"><time>2023-01-15T07:20:19.227</time></trkpt><trkpt lat="55.8059633" lon="49.1708332"><time>2023-01-15T07:20:22.223</time></trkpt><trkpt lat="55.8059178" lon="49.1709097"><time>2023-01-15T07:20:25.237</time></trkpt><trkpt lat="55.8058885" lon="49.1709722"><time>2023-01-15T07:20:27.230</time></trkpt><trkpt lat="55.8058523" lon="49.1710226"><time>2023-01-15T07:20:29.220</time></trkpt><trkpt lat="55.8057996" lon="49.1710840"><time>2023-01-15T07:20:32.230</time></trkpt><trkpt lat="55.8057275" lon="49.1711227"><time>2023-01-15T07:20:34.223</time></trkpt><trkpt lat="55.8056590" lon="49.1711482"><time>2023-01-15T07:20:36.230</time></trkpt><trkpt lat="55.8056105" lon="49.1711906"><time>2023-01-15T07:20:39.223</time></trkpt><trkpt lat="55.8055770" lon="49.1712799"><time>2023-01-15T07:20:41.230</time></trkpt><trkpt lat="55.8055552" lon="49.1713893"><time>2023-01-15T07:20:43.217</time></trkpt><trkpt lat="55.8055393" lon="49.1714963"><time>2023-01-15T07:20:45.223</time></trkpt><trkpt lat="55.8055333" lon="49.1715987"><time>2023-01-15T07:20:47.223</time></trkpt><trkpt lat="55.8055160" lon="49.1716777"><time>2023-01-15T07:20:49.220</time></trkpt><trkpt lat="55.8054796" lon="49.1717599"><time>2023-01-15T07:20:51.223</time></trkpt><trkpt lat="55.8054345" lon="49.1718503"><time>2023-01-15T07:20:53.250</time></trkpt><trkpt lat="55.8054161" lon="49.1718847"><time>2023-01-15T07:20:54.223</time></trkpt><trkpt lat="55.8053846" lon="49.1719686"><time>2023-01-15T07:20:57.223</time></trkpt><trkpt lat="55.8053737" lon="49.1720516"><time>2023-01-15T07:21:01.213</time></trkpt><trkpt lat="55.8053447" lon="49.1721335"><time>2023-01-15T07:21:05.217</time></trkpt><trkpt lat="55.8053109" lon="49.1722153"><time>2023-01-15T07:21:08.227</time></trkpt><trkpt lat="55.8052654" lon="49.1722750"><time>2023-01-15T07:21:10.230</time></trkpt><trkpt lat="55.8052424" lon="49.1723524"><time>2023-01-15T07:21:13.223</time></trkpt><trkpt lat="55.8051988" lon="49.1723241"><time>2023-01-15T07:21:20.233</time></trkpt><trkpt lat="55.8051682" lon="49.1722435"><time>2023-01-15T07:21:24.223</time></trkpt><trkpt lat="55.8051373" lon="49.1721653"><time>2023-01-15T07:21:27.223</time></trkpt><trkpt lat="55.8051111" lon="49.1720994"><time>2023-01-15T07:21:29.233</time></trkpt><trkpt lat="55.8050830" lon="49.1720269"><time>2023-01-15T07:21:31.223</time></trkpt><trkpt lat="55.8050436" lon="49.1719241"><time>2023-01-15T07:21:34.227</time></trkpt><trkpt lat="55.8050132" lon="49.1718563"><time>2023-01-15T07:21:36.217</time></trkpt><trkpt lat="55.8049759" lon="49.1717556"><time>2023-01-15T07:21:39.217</time></trkpt><trkpt lat="55.8049492" lon="49.1716820"><time>2023-01-15T07:21:41.240</time></trkpt><trkpt lat="55.8049371" lon="49.1716409"><time>2023-01-15T07:21:42.220</time></trkpt><trkpt lat="55.8049042" lon="49.1715728"><time>2023-01-15T07:21:44.220</time></trkpt><trkpt lat="55.8048726" lon="49.1714920"><time>2023-01-15T07:21:46.227</time></trkpt><trkpt lat="55.8048467" lon="49.1714147"><time>2023-01-15T07:21:48.223</time></trkpt><trkpt lat="55.8048204" lon="49.1713036"><time>2023-01-15T07:21:51.217</time></trkpt><trkpt lat="55.8047931" lon="49.1712297"><time>2023-01-15T07:21:53.240</time></trkpt><trkpt lat="55.8047651" lon="49.1711630"><time>2023-01-15T07:21:55.220</time></trkpt><trkpt lat="55.8047387" lon="49.1710978"><time>2023-01-15T07:21:57.217</time></trkpt><trkpt lat="55.8047064" lon="49.1710183"><time>2023-01-15T07:22:01.240</time></trkpt><trkpt lat="55.8047142" lon="49.1709170"><time>2023-01-15T07:22:11.237</time></trkpt><trkpt lat="55.8046951" lon="49.1708214"><time>2023-01-15T07:22:14.230</time></trkpt><trkpt lat="55.8047077" lon="49.1707420"><time>2023-01-15T07:22:16.227</time></trkpt><trkpt lat="55.8047448" lon="49.1706531"><time>2023-01-15T07:22:19.223</time></trkpt><trkpt lat="55.8047936" lon="49.1705841"><time>2023-01-15T07:22:22.220</time></trkpt><trkpt lat="55.8048390" lon="49.1705240"><time>2023-01-15T07:22:25.223</time></trkpt><trkpt lat="55.8048975" lon="49.1704745"><time>2023-01-15T07:22:28.223</time></trkpt><trkpt lat="55.8049538" lon="49.1704374"><time>2023-01-15T07:22:31.223</time></trkpt><trkpt lat="55.8049897" lon="49.1703742"><time>2023-01-15T07:22:33.227</time></trkpt><trkpt lat="55.8050278" lon="49.1702774"><time>2023-01-15T07:22:36.223</time></trkpt><trkpt lat="55.8050314" lon="49.1701919"><time>2023-01-15T07:22:38.223</time></trkpt><trkpt lat="55.8050123" lon="49.1700820"><time>2023-01-15T07:22:40.240</time></trkpt><trkpt lat="55.8050018" lon="49.1699910"><time>2023-01-15T07:22:42.247</time></trkpt><trkpt lat="55.8050034" lon="49.1699524"><time>2023-01-15T07:22:43.220</time></trkpt><trkpt lat="55.8050401" lon="49.1698578"><time>2023-01-15T07:22:46.237</time></trkpt><trkpt lat="55.8050781" lon="49.1697745"><time>2023-01-15T07:22:48.227</time></trkpt><trkpt lat="55.8051056" lon="49.1696724"><time>2023-01-15T07:22:50.227</time></trkpt><trkpt lat="55.8051595" lon="49.1696136"><time>2023-01-15T07:22:53.223</time></trkpt><trkpt lat="55.8052066" lon="49.1695572"><time>2023-01-15T07:22:56.223</time></trkpt><trkpt lat="55.8052402" lon="49.1694839"><time>2023-01-15T07:22:59.223</time></trkpt><trkpt lat="55.8052687" lon="49.1693991"><time>2023-01-15T07:23:02.230</time></trkpt><trkpt lat="55.8053134" lon="49.1693279"><time>2023-01-15T07:23:05.267</time></trkpt><trkpt lat="55.8053315" lon="49.1692958"><time>2023-01-15T07:23:06.233</time></trkpt><trkpt lat="55.8053304" lon="49.1691950"><time>2023-01-15T07:23:08.263</time></trkpt><trkpt lat="55.8053351" lon="49.1690930"><time>2023-01-15T07:23:10.230</time></trkpt><trkpt lat="55.8053474" lon="49.1689891"><time>2023-01-15T07:23:12.227</time></trkpt><trkpt lat="55.8053683" lon="49.1689091"><time>2023-01-15T07:23:14.227</time></trkpt><trkpt lat="55.8053743" lon="49.1688140"><time>2023-01-15T07:23:17.237</time></trkpt><trkpt lat="55.8053743" lon="49.1688140"><time>2023-01-15T07:23:17.290</time></trkpt><trkpt lat="55.8053912" lon="49.1687350"><time>2023-01-15T07:23:22.267</time></trkpt><trkpt lat="55.8054003" lon="49.1686889"><time>2023-01-15T07:23:23.240</time></trkpt><trkpt lat="55.8054128" lon="49.1685867"><time>2023-01-15T07:23:26.223</time></trkpt><trkpt lat="55.8054610" lon="49.1685595"><time>2023-01-15T07:23:29.243</time></trkpt><trkpt lat="55.8055101" lon="49.1684478"><time>2023-01-15T07:23:32.243</time></trkpt><trkpt lat="55.8055288" lon="49.1683635"><time>2023-01-15T07:23:34.227</time></trkpt><trkpt lat="55.8055627" lon="49.1682645"><time>2023-01-15T07:23:36.227</time></trkpt><trkpt lat="55.8055796" lon="49.1681721"><time>2023-01-15T07:23:38.227</time></trkpt><trkpt lat="55.8055885" lon="49.1680927"><time>2023-01-15T07:23:40.227</time></trkpt><trkpt lat="55.8056215" lon="49.1680063"><time>2023-01-15T07:23:43.220</time></trkpt><trkpt lat="55.8056417" lon="49.1679226"><time>2023-01-15T07:23:45.233</time></trkpt><trkpt lat="55.8056615" lon="49.1678157"><time>2023-01-15T07:23:47.223</time></trkpt><trkpt lat="55.8057014" lon="49.1677613"><time>2023-01-15T07:23:49.213</time></trkpt><trkpt lat="55.8057201" lon="49.1676887"><time>2023-01-15T07:23:51.217</time></trkpt><trkpt lat="55.8057534" lon="49.1676120"><time>2023-01-15T07:23:53.220</time></trkpt><trkpt lat="55.8057943" lon="49.1675439"><time>2023-01-15T07:23:55.227</time></trkpt><trkpt lat="55.8058510" lon="49.1674918"><time>2023-01-15T07:23:57.220</time></trkpt><trkpt lat="55.8059053" lon="49.1674515"><time>2023-01-15T07:23:59.247</time></trkpt><trkpt lat="55.8059324" lon="49.1674283"><time>2023-01-15T07:24:00.227</time></trkpt><trkpt lat="55.8059891" lon="49.1673921"><time>2023-01-15T07:24:02.233</time></trkpt><trkpt lat="55.8060495" lon="49.1673644"><time>2023-01-15T07:24:04.223</time></trkpt><trkpt lat="55.8061075" lon="49.1673575"><time>2023-01-15T07:24:06.227</time></trkpt><trkpt lat="55.8061564" lon="49.1673243"><time>2023-01-15T07:24:08.223</time></trkpt><trkpt lat="55.8062106" lon="49.1673072"><time>2023-01-15T07:24:10.227</time></trkpt><trkpt lat="55.8062712" lon="49.1672919"><time>2023-01-15T07:24:12.237</time></trkpt><trkpt lat="55.8063307" lon="49.1672271"><time>2023-01-15T07:24:14.217</time></trkpt><trkpt lat="55.8063729" lon="49.1671420"><time>2023-01-15T07:24:16.243</time></trkpt><trkpt lat="55.8064024" lon="49.1670687"><time>2023-01-15T07:24:18.227</time></trkpt><trkpt lat="55.8064063" lon="49.1669789"><time>2023-01-15T07:24:24.240</time></trkpt><trkpt lat="55.8063806" lon="49.1669097"><time>2023-01-15T07:24:28.223</time></trkpt><trkpt lat="55.8063462" lon="49.1668576"><time>2023-01-15T07:24:30.223</time></trkpt><trkpt lat="55.8063005" lon="49.1667840"><time>2023-01-15T07:24:33.227</time></trkpt><trkpt lat="55.8062630" lon="49.1667331"><time>2023-01-15T07:24:35.223</time></trkpt><trkpt lat="55.8062409" lon="49.1666117"><time>2023-01-15T07:24:38.223</time></trkpt><trkpt lat="55.8062595" lon="49.1665114"><time>2023-01-15T07:24:40.257</time></trkpt><trkpt lat="55.8062823" lon="49.1664357"><time>2023-01-15T07:24:42.227</time></trkpt><trkpt lat="55.8062886" lon="49.1663492"><time>2023-01-15T07:24:45.220</time></trkpt><trkpt lat="55.8062828" lon="49.1662677"><time>2023-01-15T07:24:49.233</time></trkpt><trkpt lat="55.8063275" lon="49.1661875"><time>2023-01-15T07:24:52.227</time></trkpt><trkpt lat="55.8063701" lon="49.1661560"><time>2023-01-15T07:24:54.227</time></trkpt><trkpt lat="55.8064132" lon="49.1661036"><time>2023-01-15T07:24:56.220</time></trkpt><trkpt lat="55.8064671" lon="49.1660514"><time>2023-01-15T07:24:59.240</time></trkpt><trkpt lat="55.8064843" lon="49.1660335"><time>2023-01-15T07:25:00.227</time></trkpt><trkpt lat="55.8065243" lon="49.1659495"><time>2023-01-15T07:25:03.227</time></trkpt><trkpt lat="55.8065568" lon="49.1658879"><time>2023-01-15T07:25:05.233</time></trkpt><trkpt lat="55.8065992" lon="49.1658080"><time>2023-01-15T07:25:07.220</time></trkpt><trkpt lat="55.8066354" lon="49.1657366"><time>2023-01-15T07:25:09.220</time></trkpt><trkpt lat="55.8066761" lon="49.1656839"><time>2023-01-15T07:25:11.223</time></trkpt><trkpt lat="55.8067343" lon="49.1656529"><time>2023-01-15T07:25:14.230</time></trkpt><trkpt lat="55.8067757" lon="49.1655913"><time>2023-01-15T07:25:16.253</time></trkpt><trkpt lat="55.8067875" lon="49.1655533"><time>2023-01-15T07:25:17.220</time></trkpt><trkpt lat="55.8068257" lon="49.1654823"><time>2023-01-15T07:25:19.227</time></trkpt><trkpt lat="55.8068626" lon="49.1654261"><time>2023-01-15T07:25:21.230</time></trkpt><trkpt lat="55.8069005" lon="49.1653739"><time>2023-01-15T07:25:23.220</time></trkpt><trkpt lat="55.8069338" lon="49.1653122"><time>2023-01-15T07:25:25.223</time></trkpt><trkpt lat="55.8069621" lon="49.1652305"><time>2023-01-15T07:25:27.230</time></trkpt><trkpt lat="55.8070030" lon="49.1651674"><time>2023-01-15T07:25:33.237</time></trkpt><trkpt lat="55.8070030" lon="49.1651674"><time>2023-01-15T07:25:33.307</time></trkpt><trkpt lat="55.8070588" lon="49.1651230"><time>2023-01-15T07:25:37.247</time></trkpt><trkpt lat="55.8070784" lon="49.1651003"><time>2023-01-15T07:25:38.227</time></trkpt><trkpt lat="55.8071244" lon="49.1650469"><time>2023-01-15T07:25:41.220</time></trkpt><trkpt lat="55.8071574" lon="49.1649850"><time>2023-01-15T07:25:44.230</time></trkpt><trkpt lat="55.8071970" lon="49.1649393"><time>2023-01-15T07:26:09.213</time></trkpt><trkpt lat="55.8071532" lon="49.1648942"><time>2023-01-15T07:26:26.237</time></trkpt><trkpt lat="55.8071038" lon="49.1648748"><time>2023-01-15T07:26:30.237</time></trkpt><trkpt lat="55.8070379" lon="49.1648197"><time>2023-01-15T07:26:33.237</time></trkpt><trkpt lat="55.8069968" lon="49.1647802"><time>2023-01-15T07:26:35.220</time></trkpt><trkpt lat="55.8069487" lon="49.1647307"><time>2023-01-15T07:26:39.227</time></trkpt><trkpt lat="55.8069205" lon="49.1646651"><time>2023-01-15T07:26:42.240</time></trkpt><trkpt lat="55.8069052" lon="49.1645722"><time>2023-01-15T07:26:46.227</time></trkpt><trkpt lat="55.8068917" lon="49.1644761"><time>2023-01-15T07:26:48.233</time></trkpt><trkpt lat="55.8068671" lon="49.1643907"><time>2023-01-15T07:26:50.233</time></trkpt><trkpt lat="55.8068384" lon="49.1643039"><time>2023-01-15T07:26:52.230</time></trkpt><trkpt lat="55.8068281" lon="49.1642102"><time>2023-01-15T07:26:54.220</time></trkpt><trkpt lat="55.8068026" lon="49.1641300"><time>2023-01-15T07:26:56.227</time></trkpt><trkpt lat="55.8067665" lon="49.1640645"><time>2023-01-15T07:26:58.237</time></trkpt><trkpt lat="55.8067341" lon="49.1639984"><time>2023-01-15T07:27:00.253</time></trkpt><trkpt lat="55.8067253" lon="49.1639809"><time>2023-01-15T07:27:01.233</time></trkpt><trkpt lat="55.8066878" lon="49.1639323"><time>2023-01-15T07:27:03.220</time></trkpt><trkpt lat="55.8067246" lon="49.1638777"><time>2023-01-15T07:27:20.237</time></trkpt><trkpt lat="55.8067578" lon="49.1638156"><time>2023-01-15T07:27:23.237</time></trkpt><trkpt lat="55.8067912" lon="49.1637538"><time>2023-01-15T07:27:26.233</time></trkpt><trkpt lat="55.8068129" lon="49.1636815"><time>2023-01-15T07:27:29.223</time></trkpt><trkpt lat="55.8068453" lon="49.1636189"><time>2023-01-15T07:27:32.223</time></trkpt><trkpt lat="55.8068897" lon="49.1635452"><time>2023-01-15T07:27:35.220</time></trkpt><trkpt lat="55.8069267" lon="49.1634568"><time>2023-01-15T07:27:37.233</time></trkpt><trkpt lat="55.8069544" lon="49.1633701"><time>2023-01-15T07:27:39.227</time></trkpt><trkpt lat="55.8069917" lon="49.1633013"><time>2023-01-15T07:27:41.223</time></trkpt><trkpt lat="55.8070305" lon="49.1632269"><time>2023-01-15T07:27:43.220</time></trkpt><trkpt lat="55.8070506" lon="49.1631468"><time>2023-01-15T07:27:45.227</time></trkpt><trkpt lat="55.8070706" lon="49.1630253"><time>2023-01-15T07:27:48.227</time></trkpt><trkpt lat="55.8070558" lon="49.1629282"><time>2023-01-15T07:27:50.220</time></trkpt><trkpt lat="55.8070412" lon="49.1628454"><time>2023-01-15T07:27:52.223</time></trkpt><trkpt lat="55.8070289" lon="49.1627667"><time>2023-01-15T07:28:01.227</time></trkpt><trkpt lat="55.8070128" lon="49.1626856"><time>2023-01-15T07:28:06.223</time></trkpt><trkpt lat="55.8069938" lon="49.1625842"><time>2023-01-15T07:28:14.233</time></trkpt><trkpt lat="55.8069702" lon="49.1624981"><time>2023-01-15T07:28:16.227</time></trkpt><trkpt lat="55.8069378" lon="49.1624058"><time>2023-01-15T07:28:18.230</time></trkpt><trkpt lat="55.8069257" lon="49.1623173"><time>2023-01-15T07:28:21.223</time></trkpt><trkpt lat="55.8068899" lon="49.1622329"><time>2023-01-15T07:28:24.237</time></trkpt><trkpt lat="55.8068663" lon="49.1621539"><time>2023-01-15T07:28:26.237</time></trkpt><trkpt lat="55.8068409" lon="49.1620703"><time>2023-01-15T07:28:28.237</time></trkpt><trkpt lat="55.8068222" lon="49.1619907"><time>2023-01-15T07:28:30.217</time></trkpt><trkpt lat="55.8068039" lon="49.1619096"><time>2023-01-15T07:28:32.230</time></trkpt><trkpt lat="55.8067829" lon="49.1618338"><time>2023-01-15T07:28:34.220</time></trkpt><trkpt lat="55.8068074" lon="49.1619271"><time>2023-01-15T07:28:58.237</time></trkpt><trkpt lat="55.8068350" lon="49.1620395"><time>2023-01-15T07:29:00.230</time></trkpt><trkpt lat="55.8068660" lon="49.1621375"><time>2023-01-15T07:29:02.233</time></trkpt><trkpt lat="55.8068941" lon="49.1622325"><time>2023-01-15T07:29:04.230</time></trkpt><trkpt lat="55.8069260" lon="49.1623370"><time>2023-01-15T07:29:06.237</time></trkpt><trkpt lat="55.8069512" lon="49.1624394"><time>2023-01-15T07:29:08.223</time></trkpt><trkpt lat="55.8069768" lon="49.1625348"><time>2023-01-15T07:29:10.223</time></trkpt><trkpt lat="55.8070033" lon="49.1626266"><time>2023-01-15T07:29:12.227</time></trkpt><trkpt lat="55.8070275" lon="49.1627142"><time>2023-01-15T07:29:14.217</time></trkpt><trkpt lat="55.8070498" lon="49.1627840"><time>2023-01-15T07:29:16.223</time></trkpt><trkpt lat="55.8070731" lon="49.1628664"><time>2023-01-15T07:29:19.230</time></trkpt><trkpt lat="55.8070811" lon="49.1629525"><time>2023-01-15T07:29:22.233</time></trkpt><trkpt lat="55.8070725" lon="49.1630507"><time>2023-01-15T07:29:25.237</time></trkpt><trkpt lat="55.8070537" lon="49.1631573"><time>2023-01-15T07:29:28.230</time></trkpt><trkpt lat="55.8070503" lon="49.1632393"><time>2023-01-15T07:29:30.230</time></trkpt><trkpt lat="55.8070283" lon="49.1633219"><time>2023-01-15T07:29:32.253</time></trkpt><trkpt lat="55.8069904" lon="49.1633815"><time>2023-01-15T07:29:34.223</time></trkpt><trkpt lat="55.8069523" lon="49.1634495"><time>2023-01-15T07:29:36.220</time></trkpt><trkpt lat="55.8069200" lon="49.1635264"><time>2023-01-15T07:29:38.220</time></trkpt><trkpt lat="55.8068838" lon="49.1636150"><time>2023-01-15T07:29:41.223</time></trkpt><trkpt lat="55.8068411" lon="49.1636690"><time>2023-01-15T07:29:45.227</time></trkpt><trkpt lat="55.8068188" lon="49.1637448"><time>2023-01-15T07:29:48.223</time></trkpt><trkpt lat="55.8067844" lon="49.1638151"><time>2023-01-15T07:29:50.220</time></trkpt><trkpt lat="55.8067502" lon="49.1638787"><time>2023-01-15T07:29:52.230</time></trkpt><trkpt lat="55.8066965" lon="49.1638885"><time>2023-01-15T07:29:56.223</time></trkpt><trkpt lat="55.8066585" lon="49.1638370"><time>2023-01-15T07:29:59.220</time></trkpt><trkpt lat="55.8066226" lon="49.1637885"><time>2023-01-15T07:30:01.230</time></trkpt><trkpt lat="55.8065633" lon="49.1637346"><time>2023-01-15T07:30:03.233</time></trkpt><trkpt lat="55.8065122" lon="49.1636918"><time>2023-01-15T07:30:05.223</time></trkpt><trkpt lat="55.8064616" lon="49.1636398"><time>2023-01-15T07:30:07.223</time></trkpt><trkpt lat="55.8064205" lon="49.1635996"><time>2023-01-15T07:30:09.220</time></trkpt><trkpt lat="55.8063661" lon="49.1635576"><time>2023-01-15T07:30:11.223</time></trkpt><trkpt lat="55.8063144" lon="49.1635175"><time>2023-01-15T07:30:13.227</time></trkpt><trkpt lat="55.8062715" lon="49.1634778"><time>2023-01-15T07:30:15.230</time></trkpt><trkpt lat="55.8062268" lon="49.1634361"><time>2023-01-15T07:30:17.237</time></trkpt><trkpt lat="55.8061880" lon="49.1633901"><time>2023-01-15T07:30:19.230</time></trkpt><trkpt lat="55.8061358" lon="49.1633708"><time>2023-01-15T07:30:22.223</time></trkpt><trkpt lat="55.8060928" lon="49.1633133"><time>2023-01-15T07:30:25.213</time></trkpt><trkpt lat="55.8061074" lon="49.1632174"><time>2023-01-15T07:30:28.220</time></trkpt><trkpt lat="55.8061222" lon="49.1631232"><time>2023-01-15T07:30:32.220</time></trkpt><trkpt lat="55.8061409" lon="49.1630413"><time>2023-01-15T07:30:35.220</time></trkpt><trkpt lat="55.8061408" lon="49.1629336"><time>2023-01-15T07:30:38.220</time></trkpt><trkpt lat="55.8061412" lon="49.1628450"><time>2023-01-15T07:30:40.223</time></trkpt><trkpt lat="55.8061393" lon="49.1627627"><time>2023-01-15T07:30:42.233</time></trkpt><trkpt lat="55.8061410" lon="49.1627206"><time>2023-01-15T07:30:43.220</time></trkpt><trkpt lat="55.8061406" lon="49.1626171"><time>2023-01-15T07:30:45.220</time></trkpt><trkpt lat="55.8061364" lon="49.1625225"><time>2023-01-15T07:30:47.217</time></trkpt><trkpt lat="55.8061247" lon="49.1624067"><time>2023-01-15T07:30:50.223</time></trkpt><trkpt lat="55.8061307" lon="49.1623275"><time>2023-01-15T07:30:53.223</time></trkpt><trkpt lat="55.8061317" lon="49.1622326"><time>2023-01-15T07:30:58.223</time></trkpt><trkpt lat="55.8061396" lon="49.1621262"><time>2023-01-15T07:31:02.227</time></trkpt><trkpt lat="55.8061350" lon="49.1620417"><time>2023-01-15T07:31:05.223</time></trkpt><trkpt lat="55.8061095" lon="49.1619564"><time>2023-01-15T07:31:08.220</time></trkpt><trkpt lat="55.8060940" lon="49.1618507"><time>2023-01-15T07:31:11.237</time></trkpt><trkpt lat="55.8060908" lon="49.1618093"><time>2023-01-15T07:31:12.227</time></trkpt><trkpt lat="55.8060789" lon="49.1617056"><time>2023-01-15T07:31:15.217</time></trkpt><trkpt lat="55.8060409" lon="49.1616533"><time>2023-01-15T07:31:18.220</time></trkpt><trkpt lat="55.8060208" lon="49.1615712"><time>2023-01-15T07:31:21.217</time></trkpt><trkpt lat="55.8060316" lon="49.1614608"><time>2023-01-15T07:31:24.223</time></trkpt><trkpt lat="55.8060330" lon="49.1613508"><time>2023-01-15T07:31:27.217</time></trkpt><trkpt lat="55.8060180" lon="49.1612394"><time>2023-01-15T07:31:30.233</time></trkpt><trkpt lat="55.8060180" lon="49.1612394"><time>2023-01-15T07:31:30.283</time></trkpt><trkpt lat="55.8060014" lon="49.1611473"><time>2023-01-15T07:31:34.237</time></trkpt><trkpt lat="55.8059952" lon="49.1611170"><time>2023-01-15T07:31:35.217</time></trkpt><trkpt lat="55.8059864" lon="49.1610292"><time>2023-01-15T07:31:40.213</time></trkpt><trkpt lat="55.8060042" lon="49.1611159"><time>2023-01-15T07:31:55.223</time></trkpt><trkpt lat="55.8060224" lon="49.1611964"><time>2023-01-15T07:31:59.220</time></trkpt><trkpt lat="55.8060402" lon="49.1612887"><time>2023-01-15T07:32:08.220</time></trkpt><trkpt lat="55.8060482" lon="49.1613775"><time>2023-01-15T07:32:13.220</time></trkpt><trkpt lat="55.8060502" lon="49.1614589"><time>2023-01-15T07:32:16.223</time></trkpt><trkpt lat="55.8060458" lon="49.1615498"><time>2023-01-15T07:32:19.223</time></trkpt><trkpt lat="55.8060325" lon="49.1616399"><time>2023-01-15T07:32:22.217</time></trkpt><trkpt lat="55.8060572" lon="49.1617298"><time>2023-01-15T07:32:25.220</time></trkpt><trkpt lat="55.8060916" lon="49.1618332"><time>2023-01-15T07:32:29.223</time></trkpt><trkpt lat="55.8061008" lon="49.1619187"><time>2023-01-15T07:32:32.220</time></trkpt><trkpt lat="55.8061294" lon="49.1620305"><time>2023-01-15T07:32:35.223</time></trkpt><trkpt lat="55.8061347" lon="49.1621178"><time>2023-01-15T07:32:37.227</time></trkpt><trkpt lat="55.8061365" lon="49.1622154"><time>2023-01-15T07:32:39.217</time></trkpt><trkpt lat="55.8061449" lon="49.1623082"><time>2023-01-15T07:32:41.217</time></trkpt><trkpt lat="55.8061447" lon="49.1624161"><time>2023-01-15T07:32:44.217</time></trkpt><trkpt lat="55.8061454" lon="49.1625005"><time>2023-01-15T07:32:46.223</time></trkpt><trkpt lat="55.8061571" lon="49.1625938"><time>2023-01-15T07:32:49.220</time></trkpt><trkpt lat="55.8061608" lon="49.1626833"><time>2023-01-15T07:32:53.227</time></trkpt><trkpt lat="55.8061617" lon="49.1627808"><time>2023-01-15T07:32:57.220</time></trkpt><trkpt lat="55.8061574" lon="49.1628615"><time>2023-01-15T07:33:00.223</time></trkpt><trkpt lat="55.8061643" lon="49.1629651"><time>2023-01-15T07:33:05.220</time></trkpt><trkpt lat="55.8061635" lon="49.1630532"><time>2023-01-15T07:33:08.237</time></trkpt><trkpt lat="55.8061390" lon="49.1631456"><time>2023-01-15T07:33:12.223</time></trkpt><trkpt lat="55.8061354" lon="49.1632288"><time>2023-01-15T07:33:15.223</time></trkpt><trkpt lat="55.8061225" lon="49.1633112"><time>2023-01-15T07:33:19.220</time></trkpt><trkpt lat="55.8060730" lon="49.1633052"><time>2023-01-15T07:33:23.220</time></trkpt><trkpt lat="55.8060178" lon="49.1633049"><time>2023-01-15T07:33:28.220</time></trkpt><trkpt lat="55.8059582" lon="49.1633038"><time>2023-01-15T07:33:32.220</time></trkpt><trkpt lat="55.8059038" lon="49.1632839"><time>2023-01-15T07:33:36.220</time></trkpt><trkpt lat="55.8058588" lon="49.1632714"><time>2023-01-15T07:33:38.227</time></trkpt><trkpt lat="55.8058131" lon="49.1632570"><time>2023-01-15T07:33:40.223</time></trkpt><trkpt lat="55.8057509" lon="49.1632513"><time>2023-01-15T07:33:42.223</time></trkpt><trkpt lat="55.8056825" lon="49.1632519"><time>2023-01-15T07:33:44.220</time></trkpt><trkpt lat="55.8056304" lon="49.1632291"><time>2023-01-15T07:33:46.227</time></trkpt><trkpt lat="55.8055746" lon="49.1631714"><time>2023-01-15T07:33:49.227</time></trkpt><trkpt lat="55.8055355" lon="49.1631270"><time>2023-01-15T07:33:51.217</time></trkpt><trkpt lat="55.8054928" lon="49.1630818"><time>2023-01-15T07:33:53.220</time></trkpt><trkpt lat="55.8054427" lon="49.1630290"><time>2023-01-15T07:33:55.223</time></trkpt><trkpt lat="55.8054034" lon="49.1629802"><time>2023-01-15T07:33:57.223</time></trkpt><trkpt lat="55.8053551" lon="49.1629336"><time>2023-01-15T07:33:59.223</time></trkpt><trkpt lat="55.8053043" lon="49.1628726"><time>2023-01-15T07:34:01.220</time></trkpt><trkpt lat="55.8052651" lon="49.1628247"><time>2023-01-15T07:34:03.220</time></trkpt><trkpt lat="55.8052204" lon="49.1627799"><time>2023-01-15T07:34:05.220</time></trkpt><trkpt lat="55.8051624" lon="49.1627227"><time>2023-01-15T07:34:08.217</time></trkpt><trkpt lat="55.8051206" lon="49.1626751"><time>2023-01-15T07:34:10.240</time></trkpt><trkpt lat="55.8050971" lon="49.1626533"><time>2023-01-15T07:34:11.220</time></trkpt><trkpt lat="55.8050458" lon="49.1626114"><time>2023-01-15T07:34:13.220</time></trkpt><trkpt lat="55.8050005" lon="49.1625786"><time>2023-01-15T07:34:15.217</time></trkpt><trkpt lat="55.8049491" lon="49.1625386"><time>2023-01-15T07:34:17.220</time></trkpt><trkpt lat="55.8048973" lon="49.1625013"><time>2023-01-15T07:34:19.227</time></trkpt><trkpt lat="55.8048474" lon="49.1624643"><time>2023-01-15T07:34:21.220</time></trkpt><trkpt lat="55.8048031" lon="49.1624357"><time>2023-01-15T07:34:23.220</time></trkpt><trkpt lat="55.8047593" lon="49.1624020"><time>2023-01-15T07:34:25.220</time></trkpt><trkpt lat="55.8046953" lon="49.1623459"><time>2023-01-15T07:34:28.223</time></trkpt><trkpt lat="55.8046415" lon="49.1623019"><time>2023-01-15T07:34:31.223</time></trkpt><trkpt lat="55.8045941" lon="49.1622609"><time>2023-01-15T07:34:33.217</time></trkpt><trkpt lat="55.8045334" lon="49.1622200"><time>2023-01-15T07:34:35.220</time></trkpt><trkpt lat="55.8044750" lon="49.1621798"><time>2023-01-15T07:34:37.227</time></trkpt><trkpt lat="55.8044305" lon="49.1621483"><time>2023-01-15T07:34:39.220</time></trkpt><trkpt lat="55.8043852" lon="49.1621427"><time>2023-01-15T07:34:41.223</time></trkpt><trkpt lat="55.8043338" lon="49.1621226"><time>2023-01-15T07:34:43.227</time></trkpt><trkpt lat="55.8042753" lon="49.1621031"><time>2023-01-15T07:34:45.220</time></trkpt><trkpt lat="55.8042141" lon="49.1620834"><time>2023-01-15T07:34:47.240</time></trkpt><trkpt lat="55.8041875" lon="49.1620704"><time>2023-01-15T07:34:48.223</time></trkpt><trkpt lat="55.8041316" lon="49.1620477"><time>2023-01-15T07:34:50.223</time></trkpt><trkpt lat="55.8040779" lon="49.1620265"><time>2023-01-15T07:34:52.223</time></trkpt><trkpt lat="55.8040289" lon="49.1620096"><time>2023-01-15T07:34:54.223</time></trkpt><trkpt lat="55.8039725" lon="49.1619837"><time>2023-01-15T07:34:57.220</time></trkpt><trkpt lat="55.8039196" lon="49.1619711"><time>2023-01-15T07:35:00.223</time></trkpt><trkpt lat="55.8038605" lon="49.1619932"><time>2023-01-15T07:35:03.213</time></trkpt><trkpt lat="55.8038155" lon="49.1620136"><time>2023-01-15T07:35:05.217</time></trkpt><trkpt lat="55.8037619" lon="49.1620297"><time>2023-01-15T07:35:08.227</time></trkpt><trkpt lat="55.8037166" lon="49.1620380"><time>2023-01-15T07:35:11.237</time></trkpt><trkpt lat="55.8037033" lon="49.1620462"><time>2023-01-15T07:35:12.220</time></trkpt><trkpt lat="55.8036505" lon="49.1620635"><time>2023-01-15T07:35:16.227</time></trkpt><trkpt lat="55.8036028" lon="49.1620795"><time>2023-01-15T07:35:19.223</time></trkpt><trkpt lat="55.8035456" lon="49.1620779"><time>2023-01-15T07:35:23.223</time></trkpt><trkpt lat="55.8034869" lon="49.1620813"><time>2023-01-15T07:35:27.220</time></trkpt><trkpt lat="55.8034436" lon="49.1621061"><time>2023-01-15T07:35:31.227</time></trkpt><trkpt lat="55.8033921" lon="49.1621231"><time>2023-01-15T07:35:36.227</time></trkpt><trkpt lat="55.8033464" lon="49.1621388"><time>2023-01-15T07:35:39.223</time></trkpt><trkpt lat="55.8033517" lon="49.1622388"><time>2023-01-15T07:35:45.233</time></trkpt><trkpt lat="55.8033517" lon="49.1622388"><time>2023-01-15T07:35:45.293</time></trkpt><trkpt lat="55.8033436" lon="49.1621535"><time>2023-01-15T07:36:03.230</time></trkpt><trkpt lat="55.8033428" lon="49.1621430"><time>2023-01-15T07:36:04.223</time></trkpt><trkpt lat="55.8033965" lon="49.1621094"><time>2023-01-15T07:36:09.227</time></trkpt><trkpt lat="55.8033550" lon="49.1620745"><time>2023-01-15T07:36:16.217</time></trkpt><trkpt lat="55.8033017" lon="49.1620476"><time>2023-01-15T07:36:20.223</time></trkpt><trkpt lat="55.8032500" lon="49.1620322"><time>2023-01-15T07:36:25.217</time></trkpt><trkpt lat="55.8032031" lon="49.1620351"><time>2023-01-15T07:36:28.217</time></trkpt><trkpt lat="55.8031486" lon="49.1620301"><time>2023-01-15T07:36:31.227</time></trkpt><trkpt lat="55.8030841" lon="49.1619983"><time>2023-01-15T07:36:34.220</time></trkpt><trkpt lat="55.8030312" lon="49.1619488"><time>2023-01-15T07:36:36.227</time></trkpt><trkpt lat="55.8029891" lon="49.1619102"><time>2023-01-15T07:36:38.223</time></trkpt><trkpt lat="55.8029280" lon="49.1618719"><time>2023-01-15T07:36:41.223</time></trkpt><trkpt lat="55.8028845" lon="49.1618413"><time>2023-01-15T07:36:43.223</time></trkpt><trkpt lat="55.8028321" lon="49.1618073"><time>2023-01-15T07:36:46.223</time></trkpt><trkpt lat="55.8027883" lon="49.1617684"><time>2023-01-15T07:36:48.217</time></trkpt><trkpt lat="55.8027447" lon="49.1617142"><time>2023-01-15T07:36:50.223</time></trkpt><trkpt lat="55.8026990" lon="49.1616699"><time>2023-01-15T07:36:52.217</time></trkpt><trkpt lat="55.8026588" lon="49.1616253"><time>2023-01-15T07:36:54.217</time></trkpt><trkpt lat="55.8026136" lon="49.1615592"><time>2023-01-15T07:36:57.223</time></trkpt><trkpt lat="55.8025688" lon="49.1614623"><time>2023-01-15T07:36:59.220</time></trkpt><trkpt lat="55.8025258" lon="49.1613735"><time>2023-01-15T07:37:02.220</time></trkpt><trkpt lat="55.8024925" lon="49.1613012"><time>2023-01-15T07:37:06.220</time></trkpt><trkpt lat="55.8024622" lon="49.1612414"><time>2023-01-15T07:37:09.220</time></trkpt><trkpt lat="55.8024285" lon="49.1611833"><time>2023-01-15T07:37:12.220</time></trkpt><trkpt lat="55.8023917" lon="49.1611249"><time>2023-01-15T07:37:15.223</time></trkpt><trkpt lat="55.8023576" lon="49.1610669"><time>2023-01-15T07:37:18.227</time></trkpt><trkpt lat="55.8023068" lon="49.1610131"><time>2023-01-15T07:37:22.220</time></trkpt><trkpt lat="55.8022577" lon="49.1609619"><time>2023-01-15T07:37:25.223</time></trkpt><trkpt lat="55.8022287" lon="49.1608977"><time>2023-01-15T07:37:27.217</time></trkpt><trkpt lat="55.8022068" lon="49.1608140"><time>2023-01-15T07:37:30.223</time></trkpt><trkpt lat="55.8022030" lon="49.1606963"><time>2023-01-15T07:37:32.217</time></trkpt><trkpt lat="55.8021989" lon="49.1605602"><time>2023-01-15T07:37:34.220</time></trkpt><trkpt lat="55.8022045" lon="49.1604793"><time>2023-01-15T07:37:36.220</time></trkpt><trkpt lat="55.8022160" lon="49.1603724"><time>2023-01-15T07:37:39.227</time></trkpt><trkpt lat="55.8022176" lon="49.1602696"><time>2023-01-15T07:37:41.220</time></trkpt><trkpt lat="55.8022127" lon="49.1601616"><time>2023-01-15T07:37:43.220</time></trkpt><trkpt lat="55.8022000" lon="49.1600788"><time>2023-01-15T07:37:45.223</time></trkpt><trkpt lat="55.8021846" lon="49.1599914"><time>2023-01-15T07:37:47.237</time></trkpt><trkpt lat="55.8021752" lon="49.1598983"><time>2023-01-15T07:37:49.217</time></trkpt><trkpt lat="55.8021594" lon="49.1597987"><time>2023-01-15T07:37:52.220</time></trkpt><trkpt lat="55.8021481" lon="49.1597083"><time>2023-01-15T07:37:55.227</time></trkpt><trkpt lat="55.8021360" lon="49.1596045"><time>2023-01-15T07:37:59.223</time></trkpt><trkpt lat="55.8021246" lon="49.1595165"><time>2023-01-15T07:38:03.217</time></trkpt><trkpt lat="55.8021272" lon="49.1594361"><time>2023-01-15T07:38:07.223</time></trkpt><trkpt lat="55.8021286" lon="49.1593161"><time>2023-01-15T07:38:10.217</time></trkpt><trkpt lat="55.8021176" lon="49.1592076"><time>2023-01-15T07:38:12.220</time></trkpt><trkpt lat="55.8021028" lon="49.1591174"><time>2023-01-15T07:38:14.217</time></trkpt><trkpt lat="55.8020880" lon="49.1590032"><time>2023-01-15T07:38:17.223</time></trkpt><trkpt lat="55.8020738" lon="49.1589126"><time>2023-01-15T07:38:19.217</time></trkpt><trkpt lat="55.8020538" lon="49.1588348"><time>2023-01-15T07:38:21.220</time></trkpt><trkpt lat="55.8020352" lon="49.1587517"><time>2023-01-15T07:38:24.217</time></trkpt><trkpt lat="55.8020072" lon="49.1586482"><time>2023-01-15T07:38:28.220</time></trkpt><trkpt lat="55.8019770" lon="49.1585686"><time>2023-01-15T07:38:31.233</time></trkpt><trkpt lat="55.8019662" lon="49.1585480"><time>2023-01-15T07:38:32.220</time></trkpt><trkpt lat="55.8019249" lon="49.1584740"><time>2023-01-15T07:38:36.220</time></trkpt><trkpt lat="55.8018804" lon="49.1583957"><time>2023-01-15T07:38:40.223</time></trkpt><trkpt lat="55.8018406" lon="49.1583479"><time>2023-01-15T07:38:42.220</time></trkpt><trkpt lat="55.8018007" lon="49.1582858"><time>2023-01-15T07:38:44.220</time></trkpt><trkpt lat="55.8017637" lon="49.1582365"><time>2023-01-15T07:38:46.217</time></trkpt><trkpt lat="55.8017123" lon="49.1581890"><time>2023-01-15T07:38:49.227</time></trkpt><trkpt lat="55.8016765" lon="49.1581397"><time>2023-01-15T07:38:51.227</time></trkpt><trkpt lat="55.8016570" lon="49.1580620"><time>2023-01-15T07:38:53.223</time></trkpt><trkpt lat="55.8016579" lon="49.1579811"><time>2023-01-15T07:38:55.220</time></trkpt><trkpt lat="55.8016203" lon="49.1578831"><time>2023-01-15T07:38:58.217</time></trkpt><trkpt lat="55.8015855" lon="49.1578307"><time>2023-01-15T07:39:00.223</time></trkpt><trkpt lat="55.8015301" lon="49.1577796"><time>2023-01-15T07:39:03.223</time></trkpt><trkpt lat="55.8014779" lon="49.1577099"><time>2023-01-15T07:39:06.220</time></trkpt><trkpt lat="55.8014296" lon="49.1576637"><time>2023-01-15T07:39:11.227</time></trkpt><trkpt lat="55.8013842" lon="49.1576268"><time>2023-01-15T07:39:15.220</time></trkpt><trkpt lat="55.8013392" lon="49.1575689"><time>2023-01-15T07:39:19.227</time></trkpt><trkpt lat="55.8013023" lon="49.1575127"><time>2023-01-15T07:39:22.217</time></trkpt><trkpt lat="55.8012707" lon="49.1574499"><time>2023-01-15T07:39:25.230</time></trkpt><trkpt lat="55.8012357" lon="49.1573852"><time>2023-01-15T07:39:29.227</time></trkpt><trkpt lat="55.8011898" lon="49.1574436"><time>2023-01-15T07:39:34.220</time></trkpt><trkpt lat="55.8011521" lon="49.1575164"><time>2023-01-15T07:39:38.220</time></trkpt><trkpt lat="55.8010984" lon="49.1575941"><time>2023-01-15T07:39:41.243</time></trkpt><trkpt lat="55.8010776" lon="49.1576280"><time>2023-01-15T07:39:42.217</time></trkpt><trkpt lat="55.8010312" lon="49.1576970"><time>2023-01-15T07:39:45.227</time></trkpt><trkpt lat="55.8009899" lon="49.1577638"><time>2023-01-15T07:39:47.220</time></trkpt><trkpt lat="55.8009453" lon="49.1578291"><time>2023-01-15T07:39:49.220</time></trkpt><trkpt lat="55.8009107" lon="49.1578817"><time>2023-01-15T07:39:51.250</time></trkpt><trkpt lat="55.8008586" lon="49.1579402"><time>2023-01-15T07:39:54.227</time></trkpt><trkpt lat="55.8008232" lon="49.1579955"><time>2023-01-15T07:39:57.223</time></trkpt><trkpt lat="55.8007760" lon="49.1580275"><time>2023-01-15T07:40:01.227</time></trkpt><trkpt lat="55.8007242" lon="49.1580051"><time>2023-01-15T07:40:06.223</time></trkpt><trkpt lat="55.8006746" lon="49.1579847"><time>2023-01-15T07:40:12.223</time></trkpt><trkpt lat="55.8006294" lon="49.1579791"><time>2023-01-15T07:40:16.240</time></trkpt><trkpt lat="55.8006209" lon="49.1579789"><time>2023-01-15T07:40:17.227</time></trkpt><trkpt lat="55.8005750" lon="49.1579771"><time>2023-01-15T07:40:21.227</time></trkpt><trkpt lat="55.8005215" lon="49.1579913"><time>2023-01-15T07:40:26.230</time></trkpt><trkpt lat="55.8004660" lon="49.1579972"><time>2023-01-15T07:40:30.227</time></trkpt><trkpt lat="55.8004123" lon="49.1580007"><time>2023-01-15T07:40:34.227</time></trkpt><trkpt lat="55.8003650" lon="49.1580072"><time>2023-01-15T07:40:37.233</time></trkpt><trkpt lat="55.8003650" lon="49.1580072"><time>2023-01-15T07:40:37.277</time></trkpt><trkpt lat="55.8003186" lon="49.1580140"><time>2023-01-15T07:40:41.243</time></trkpt><trkpt lat="55.8003122" lon="49.1580190"><time>2023-01-15T07:40:42.217</time></trkpt><trkpt lat="55.8003607" lon="49.1579920"><time>2023-01-15T07:40:53.220</time></trkpt><trkpt lat="55.8004149" lon="49.1579843"><time>2023-01-15T07:40:58.217</time></trkpt><trkpt lat="55.8004617" lon="49.1579866"><time>2023-01-15T07:41:02.223</time></trkpt><trkpt lat="55.8005025" lon="49.1579213"><time>2023-01-15T07:41:08.217</time></trkpt><trkpt lat="55.8005015" lon="49.1578367"><time>2023-01-15T07:41:24.227</time></trkpt><trkpt lat="55.8004957" lon="49.1577494"><time>2023-01-15T07:41:28.223</time></trkpt><trkpt lat="55.8004733" lon="49.1576697"><time>2023-01-15T07:41:31.223</time></trkpt><trkpt lat="55.8004662" lon="49.1575770"><time>2023-01-15T07:41:35.220</time></trkpt><trkpt lat="55.8004621" lon="49.1574963"><time>2023-01-15T07:41:38.223</time></trkpt><trkpt lat="55.8004671" lon="49.1573994"><time>2023-01-15T07:41:42.223</time></trkpt><trkpt lat="55.8004701" lon="49.1573196"><time>2023-01-15T07:41:46.220</time></trkpt><trkpt lat="55.8004786" lon="49.1572399"><time>2023-01-15T07:41:51.223</time></trkpt><trkpt lat="55.8004863" lon="49.1571473"><time>2023-01-15T07:41:55.223</time></trkpt><trkpt lat="55.8004828" lon="49.1570504"><time>2023-01-15T07:41:58.223</time></trkpt><trkpt lat="55.8004824" lon="49.1569532"><time>2023-01-15T07:42:04.220</time></trkpt><trkpt lat="55.8004690" lon="49.1568695"><time>2023-01-15T07:42:08.220</time></trkpt><trkpt lat="55.8004366" lon="49.1567875"><time>2023-01-15T07:42:12.220</time></trkpt><trkpt lat="55.8004144" lon="49.1567030"><time>2023-01-15T07:42:16.220</time></trkpt><trkpt lat="55.8003910" lon="49.1566250"><time>2023-01-15T07:42:20.223</time></trkpt><trkpt lat="55.8003687" lon="49.1565545"><time>2023-01-15T07:42:24.223</time></trkpt><trkpt lat="55.8003562" lon="49.1564645"><time>2023-01-15T07:42:28.223</time></trkpt><trkpt lat="55.8003323" lon="49.1563958"><time>2023-01-15T07:42:32.223</time></trkpt><trkpt lat="55.8003322" lon="49.1563038"><time>2023-01-15T07:42:41.220</time></trkpt><trkpt lat="55.8002905" lon="49.1562496"><time>2023-01-15T07:42:58.223</time></trkpt><trkpt lat="55.8002573" lon="49.1561934"><time>2023-01-15T07:43:03.220</time></trkpt><trkpt lat="55.8002161" lon="49.1561596"><time>2023-01-15T07:43:08.223</time></trkpt><trkpt lat="55.8001677" lon="49.1561205"><time>2023-01-15T07:43:11.233</time></trkpt><trkpt lat="55.8001277" lon="49.1560701"><time>2023-01-15T07:43:15.243</time></trkpt><trkpt lat="55.8001204" lon="49.1560637"><time>2023-01-15T07:43:16.223</time></trkpt><trkpt lat="55.8001423" lon="49.1559940"><time>2023-01-15T07:43:35.223</time></trkpt><trkpt lat="55.8001828" lon="49.1560412"><time>2023-01-15T07:43:43.227</time></trkpt><trkpt lat="55.8002343" lon="49.1560179"><time>2023-01-15T07:43:46.223</time></trkpt><trkpt lat="55.8002849" lon="49.1560002"><time>2023-01-15T07:43:50.240</time></trkpt><trkpt lat="55.8002961" lon="49.1559884"><time>2023-01-15T07:43:51.220</time></trkpt><trkpt lat="55.8003354" lon="49.1559308"><time>2023-01-15T07:43:54.220</time></trkpt><trkpt lat="55.8003515" lon="49.1558364"><time>2023-01-15T07:43:58.227</time></trkpt><trkpt lat="55.8003483" lon="49.1558283"><time>2023-01-15T07:43:59.227</time></trkpt><trkpt lat="55.8003262" lon="49.1557320"><time>2023-01-15T07:44:05.217</time></trkpt><trkpt lat="55.8003203" lon="49.1556498"><time>2023-01-15T07:44:09.223</time></trkpt><trkpt lat="55.8003496" lon="49.1557195"><time>2023-01-15T07:44:23.223</time></trkpt><trkpt lat="55.8003795" lon="49.1558025"><time>2023-01-15T07:44:28.217</time></trkpt><trkpt lat="55.8003807" lon="49.1558904"><time>2023-01-15T07:44:36.243</time></trkpt><trkpt lat="55.8003653" lon="49.1559137"><time>2023-01-15T07:44:37.227</time></trkpt><trkpt lat="55.8003406" lon="49.1559997"><time>2023-01-15T07:44:40.227</time></trkpt><trkpt lat="55.8003537" lon="49.1560886"><time>2023-01-15T07:44:43.227</time></trkpt><trkpt lat="55.8003744" lon="49.1561743"><time>2023-01-15T07:44:46.217</time></trkpt><trkpt lat="55.8004137" lon="49.1562195"><time>2023-01-15T07:44:52.220</time></trkpt><trkpt lat="55.8003797" lon="49.1562770"><time>2023-01-15T07:45:00.223</time></trkpt><trkpt lat="55.8003783" lon="49.1563749"><time>2023-01-15T07:45:02.223</time></trkpt><trkpt lat="55.8003880" lon="49.1564674"><time>2023-01-15T07:45:04.217</time></trkpt><trkpt lat="55.8004173" lon="49.1565321"><time>2023-01-15T07:45:06.227</time></trkpt><trkpt lat="55.8004696" lon="49.1565755"><time>2023-01-15T07:45:08.217</time></trkpt><trkpt lat="55.8005147" lon="49.1566120"><time>2023-01-15T07:45:10.227</time></trkpt><trkpt lat="55.8005708" lon="49.1566573"><time>2023-01-15T07:45:12.223</time></trkpt><trkpt lat="55.8006186" lon="49.1567085"><time>2023-01-15T07:45:14.217</time></trkpt><trkpt lat="55.8006568" lon="49.1567508"><time>2023-01-15T07:45:17.227</time></trkpt><trkpt lat="55.8007145" lon="49.1567775"><time>2023-01-15T07:45:22.227</time></trkpt><trkpt lat="55.8007668" lon="49.1568140"><time>2023-01-15T07:45:26.223</time></trkpt><trkpt lat="55.8008148" lon="49.1568470"><time>2023-01-15T07:45:30.223</time></trkpt><trkpt lat="55.8008629" lon="49.1568921"><time>2023-01-15T07:45:34.223</time></trkpt><trkpt lat="55.8009181" lon="49.1569444"><time>2023-01-15T07:45:37.227</time></trkpt><trkpt lat="55.8009587" lon="49.1569822"><time>2023-01-15T07:45:39.223</time></trkpt><trkpt lat="55.8010190" lon="49.1570346"><time>2023-01-15T07:45:42.223</time></trkpt><trkpt lat="55.8010781" lon="49.1570952"><time>2023-01-15T07:45:45.223</time></trkpt><trkpt lat="55.8011203" lon="49.1571545"><time>2023-01-15T07:45:47.220</time></trkpt><trkpt lat="55.8011668" lon="49.1572060"><time>2023-01-15T07:45:49.223</time></trkpt><trkpt lat="55.8011998" lon="49.1572710"><time>2023-01-15T07:45:52.220</time></trkpt><trkpt lat="55.8012325" lon="49.1573412"><time>2023-01-15T07:45:55.227</time></trkpt><trkpt lat="55.8012568" lon="49.1574089"><time>2023-01-15T07:45:57.227</time></trkpt><trkpt lat="55.8012853" lon="49.1574867"><time>2023-01-15T07:45:59.223</time></trkpt><trkpt lat="55.8013154" lon="49.1575546"><time>2023-01-15T07:46:01.227</time></trkpt><trkpt lat="55.8013659" lon="49.1576164"><time>2023-01-15T07:46:03.220</time></trkpt><trkpt lat="55.8014138" lon="49.1576645"><time>2023-01-15T07:46:05.237</time></trkpt><trkpt lat="55.8014387" lon="49.1576892"><time>2023-01-15T07:46:06.220</time></trkpt><trkpt lat="55.8014869" lon="49.1577412"><time>2023-01-15T07:46:08.227</time></trkpt><trkpt lat="55.8015301" lon="49.1577917"><time>2023-01-15T07:46:10.220</time></trkpt><trkpt lat="55.8015835" lon="49.1578587"><time>2023-01-15T07:46:12.217</time></trkpt><trkpt lat="55.8016372" lon="49.1579104"><time>2023-01-15T07:46:14.223</time></trkpt><trkpt lat="55.8016945" lon="49.1579391"><time>2023-01-15T07:46:17.223</time></trkpt><trkpt lat="55.8017351" lon="49.1578567"><time>2023-01-15T07:46:20.220</time></trkpt><trkpt lat="55.8017723" lon="49.1577897"><time>2023-01-15T07:46:22.223</time></trkpt><trkpt lat="55.8018246" lon="49.1577481"><time>2023-01-15T07:46:25.223</time></trkpt><trkpt lat="55.8018739" lon="49.1577291"><time>2023-01-15T07:46:27.220</time></trkpt><trkpt lat="55.8019191" lon="49.1576865"><time>2023-01-15T07:46:31.217</time></trkpt><trkpt lat="55.8019337" lon="49.1576024"><time>2023-01-15T07:46:36.223</time></trkpt><trkpt lat="55.8019304" lon="49.1575127"><time>2023-01-15T07:46:40.220</time></trkpt><trkpt lat="55.8019160" lon="49.1574329"><time>2023-01-15T07:46:42.223</time></trkpt><trkpt lat="55.8019036" lon="49.1573344"><time>2023-01-15T07:46:45.223</time></trkpt><trkpt lat="55.8019116" lon="49.1572143"><time>2023-01-15T07:46:48.220</time></trkpt><trkpt lat="55.8019289" lon="49.1571369"><time>2023-01-15T07:46:50.220</time></trkpt><trkpt lat="55.8019620" lon="49.1570515"><time>2023-01-15T07:46:53.223</time></trkpt><trkpt lat="55.8019897" lon="49.1569776"><time>2023-01-15T07:46:57.237</time></trkpt><trkpt lat="55.8019831" lon="49.1568828"><time>2023-01-15T07:47:02.220</time></trkpt><trkpt lat="55.8020012" lon="49.1567882"><time>2023-01-15T07:47:06.227</time></trkpt><trkpt lat="55.8020060" lon="49.1567018"><time>2023-01-15T07:47:11.230</time></trkpt><trkpt lat="55.8020299" lon="49.1566149"><time>2023-01-15T07:47:15.230</time></trkpt><trkpt lat="55.8020635" lon="49.1565083"><time>2023-01-15T07:47:18.233</time></trkpt><trkpt lat="55.8020748" lon="49.1564659"><time>2023-01-15T07:47:19.220</time></trkpt><trkpt lat="55.8020997" lon="49.1563948"><time>2023-01-15T07:47:21.223</time></trkpt><trkpt lat="55.8021224" lon="49.1563155"><time>2023-01-15T07:47:24.223</time></trkpt><trkpt lat="55.8021223" lon="49.1562043"><time>2023-01-15T07:47:29.223</time></trkpt><trkpt lat="55.8021191" lon="49.1561232"><time>2023-01-15T07:47:34.230</time></trkpt><trkpt lat="55.8021713" lon="49.1561670"><time>2023-01-15T07:47:40.223</time></trkpt><trkpt lat="55.8022152" lon="49.1562196"><time>2023-01-15T07:47:44.220</time></trkpt><trkpt lat="55.8022658" lon="49.1562495"><time>2023-01-15T07:47:48.223</time></trkpt><trkpt lat="55.8023224" lon="49.1562698"><time>2023-01-15T07:47:52.223</time></trkpt><trkpt lat="55.8023740" lon="49.1562736"><time>2023-01-15T07:47:56.217</time></trkpt><trkpt lat="55.8024227" lon="49.1562434"><time>2023-01-15T07:48:00.223</time></trkpt><trkpt lat="55.8024678" lon="49.1561852"><time>2023-01-15T07:48:04.240</time></trkpt><trkpt lat="55.8024794" lon="49.1561643"><time>2023-01-15T07:48:05.230</time></trkpt><trkpt lat="55.8025055" lon="49.1560765"><time>2023-01-15T07:48:08.227</time></trkpt><trkpt lat="55.8025178" lon="49.1559878"><time>2023-01-15T07:48:11.223</time></trkpt><trkpt lat="55.8025251" lon="49.1558980"><time>2023-01-15T07:48:15.220</time></trkpt><trkpt lat="55.8025493" lon="49.1558275"><time>2023-01-15T07:48:18.227</time></trkpt><trkpt lat="55.8025858" lon="49.1557576"><time>2023-01-15T07:48:21.223</time></trkpt><trkpt lat="55.8026214" lon="49.1556903"><time>2023-01-15T07:48:24.227</time></trkpt><trkpt lat="55.8026487" lon="49.1556208"><time>2023-01-15T07:48:28.220</time></trkpt><trkpt lat="55.8027012" lon="49.1556492"><time>2023-01-15T07:48:33.233</time></trkpt><trkpt lat="55.8027012" lon="49.1556492"><time>2023-01-15T07:48:33.280</time></trkpt><trkpt lat="55.8026704" lon="49.1555799"><time>2023-01-15T07:48:47.247</time></trkpt><trkpt lat="55.8026682" lon="49.1555720"><time>2023-01-15T07:48:48.223</time></trkpt><trkpt lat="55.8026981" lon="49.1554998"><time>2023-01-15T07:48:56.227</time></trkpt><trkpt lat="55.8027198" lon="49.1554128"><time>2023-01-15T07:49:01.223</time></trkpt><trkpt lat="55.8027582" lon="49.1553363"><time>2023-01-15T07:49:05.227</time></trkpt><trkpt lat="55.8027997" lon="49.1552489"><time>2023-01-15T07:49:08.223</time></trkpt><trkpt lat="55.8028278" lon="49.1551709"><time>2023-01-15T07:49:10.223</time></trkpt><trkpt lat="55.8028470" lon="49.1550945"><time>2023-01-15T07:49:12.217</time></trkpt><trkpt lat="55.8028450" lon="49.1549877"><time>2023-01-15T07:49:15.230</time></trkpt><trkpt lat="55.8028360" lon="49.1548760"><time>2023-01-15T07:49:18.223</time></trkpt><trkpt lat="55.8028082" lon="49.1548063"><time>2023-01-15T07:49:21.227</time></trkpt><trkpt lat="55.8027614" lon="49.1547749"><time>2023-01-15T07:49:26.223</time></trkpt><trkpt lat="55.8027300" lon="49.1547065"><time>2023-01-15T07:49:30.227</time></trkpt><trkpt lat="55.8026842" lon="49.1546847"><time>2023-01-15T07:49:33.227</time></trkpt><trkpt lat="55.8026530" lon="49.1547427"><time>2023-01-15T07:49:36.227</time></trkpt><trkpt lat="55.8026073" lon="49.1547983"><time>2023-01-15T07:49:40.223</time></trkpt><trkpt lat="55.8025594" lon="49.1548755"><time>2023-01-15T07:49:44.220</time></trkpt><trkpt lat="55.8025246" lon="49.1549310"><time>2023-01-15T07:49:46.227</time></trkpt><trkpt lat="55.8024702" lon="49.1550113"><time>2023-01-15T07:49:49.223</time></trkpt><trkpt lat="55.8024343" lon="49.1550708"><time>2023-01-15T07:49:51.223</time></trkpt><trkpt lat="55.8023979" lon="49.1551253"><time>2023-01-15T07:49:53.223</time></trkpt><trkpt lat="55.8023651" lon="49.1552027"><time>2023-01-15T07:49:55.223</time></trkpt><trkpt lat="55.8023327" lon="49.1552770"><time>2023-01-15T07:49:57.220</time></trkpt><trkpt lat="55.8023046" lon="49.1553418"><time>2023-01-15T07:49:59.223</time></trkpt><trkpt lat="55.8022671" lon="49.1554102"><time>2023-01-15T07:50:02.220</time></trkpt><trkpt lat="55.8022148" lon="49.1554176"><time>2023-01-15T07:50:06.223</time></trkpt><trkpt lat="55.8021700" lon="49.1554110"><time>2023-01-15T07:50:09.223</time></trkpt><trkpt lat="55.8021124" lon="49.1553965"><time>2023-01-15T07:50:13.223</time></trkpt><trkpt lat="55.8020669" lon="49.1553670"><time>2023-01-15T07:50:16.220</time></trkpt><trkpt lat="55.8020125" lon="49.1553326"><time>2023-01-15T07:50:20.220</time></trkpt><trkpt lat="55.8019528" lon="49.1552839"><time>2023-01-15T07:50:24.220</time></trkpt><trkpt lat="55.8019059" lon="49.1552332"><time>2023-01-15T07:50:28.227</time></trkpt><trkpt lat="55.8018553" lon="49.1551917"><time>2023-01-15T07:50:31.223</time></trkpt><trkpt lat="55.8018153" lon="49.1551426"><time>2023-01-15T07:50:34.227</time></trkpt><trkpt lat="55.8017686" lon="49.1551117"><time>2023-01-15T07:50:38.227</time></trkpt><trkpt lat="55.8017252" lon="49.1550562"><time>2023-01-15T07:50:41.227</time></trkpt><trkpt lat="55.8016795" lon="49.1549981"><time>2023-01-15T07:50:44.217</time></trkpt><trkpt lat="55.8016256" lon="49.1549597"><time>2023-01-15T07:50:48.223</time></trkpt><trkpt lat="55.8015825" lon="49.1549222"><time>2023-01-15T07:50:51.220</time></trkpt><trkpt lat="55.8015432" lon="49.1548800"><time>2023-01-15T07:50:54.220</time></trkpt><trkpt lat="55.8014887" lon="49.1548521"><time>2023-01-15T07:50:58.243</time></trkpt><trkpt lat="55.8014740" lon="49.1548431"><time>2023-01-15T07:50:59.227</time></trkpt><trkpt lat="55.8014288" lon="49.1548007"><time>2023-01-15T07:51:03.223</time></trkpt><trkpt lat="55.8013816" lon="49.1547700"><time>2023-01-15T07:51:07.220</time></trkpt><trkpt lat="55.8013366" lon="49.1547372"><time>2023-01-15T07:51:11.220</time></trkpt><trkpt lat="55.8012850" lon="49.1546930"><time>2023-01-15T07:51:15.217</time></trkpt><trkpt lat="55.8012303" lon="49.1546720"><time>2023-01-15T07:51:19.217</time></trkpt><trkpt lat="55.8011923" lon="49.1546188"><time>2023-01-15T07:51:22.217</time></trkpt><trkpt lat="55.8011482" lon="49.1545753"><time>2023-01-15T07:51:25.220</time></trkpt><trkpt lat="55.8010992" lon="49.1545228"><time>2023-01-15T07:51:29.220</time></trkpt><trkpt lat="55.8010604" lon="49.1544670"><time>2023-01-15T07:51:32.227</time></trkpt><trkpt lat="55.8010226" lon="49.1544134"><time>2023-01-15T07:51:35.243</time></trkpt><trkpt lat="55.8010085" lon="49.1543900"><time>2023-01-15T07:51:36.223</time></trkpt><trkpt lat="55.8009593" lon="49.1543332"><time>2023-01-15T07:51:40.223</time></trkpt><trkpt lat="55.8009083" lon="49.1542648"><time>2023-01-15T07:51:45.223</time></trkpt><trkpt lat="55.8008729" lon="49.1541976"><time>2023-01-15T07:51:48.217</time></trkpt><trkpt lat="55.8008429" lon="49.1541186"><time>2023-01-15T07:51:52.223</time></trkpt><trkpt lat="55.8008053" lon="49.1540409"><time>2023-01-15T07:51:56.227</time></trkpt><trkpt lat="55.8007661" lon="49.1539863"><time>2023-01-15T07:51:59.233</time></trkpt><trkpt lat="55.8007171" lon="49.1539258"><time>2023-01-15T07:52:02.227</time></trkpt><trkpt lat="55.8006865" lon="49.1538670"><time>2023-01-15T07:52:05.227</time></trkpt><trkpt lat="55.8006458" lon="49.1538289"><time>2023-01-15T07:52:08.223</time></trkpt><trkpt lat="55.8006002" lon="49.1537851"><time>2023-01-15T07:52:13.217</time></trkpt><trkpt lat="55.8005451" lon="49.1537530"><time>2023-01-15T07:52:17.230</time></trkpt><trkpt lat="55.8005006" lon="49.1537342"><time>2023-01-15T07:52:21.220</time></trkpt><trkpt lat="55.8004496" lon="49.1537258"><time>2023-01-15T07:52:25.227</time></trkpt><trkpt lat="55.8004051" lon="49.1537073"><time>2023-01-15T07:52:28.223</time></trkpt><trkpt lat="55.8003454" lon="49.1536896"><time>2023-01-15T07:52:32.230</time></trkpt><trkpt lat="55.8002910" lon="49.1536956"><time>2023-01-15T07:52:35.227</time></trkpt><trkpt lat="55.8002358" lon="49.1537103"><time>2023-01-15T07:52:39.257</time></trkpt><trkpt lat="55.8002211" lon="49.1537110"><time>2023-01-15T07:52:40.227</time></trkpt><trkpt lat="55.8001562" lon="49.1537202"><time>2023-01-15T07:52:45.227</time></trkpt><trkpt lat="55.8001097" lon="49.1537314"><time>2023-01-15T07:52:48.227</time></trkpt><trkpt lat="55.8000587" lon="49.1537302"><time>2023-01-15T07:52:51.227</time></trkpt><trkpt lat="55.8000090" lon="49.1537324"><time>2023-01-15T07:52:55.223</time></trkpt><trkpt lat="55.7999580" lon="49.1537578"><time>2023-01-15T07:53:00.227</time></trkpt><trkpt lat="55.7999004" lon="49.1537597"><time>2023-01-15T07:53:04.227</time></trkpt><trkpt lat="55.7998553" lon="49.1537562"><time>2023-01-15T07:53:07.223</time></trkpt><trkpt lat="55.7998065" lon="49.1537821"><time>2023-01-15T07:53:11.220</time></trkpt><trkpt lat="55.7997563" lon="49.1537916"><time>2023-01-15T07:53:16.227</time></trkpt><trkpt lat="55.7997074" lon="49.1537722"><time>2023-01-15T07:53:19.243</time></trkpt><trkpt lat="55.7996902" lon="49.1537635"><time>2023-01-15T07:53:20.227</time></trkpt><trkpt lat="55.7996454" lon="49.1537418"><time>2023-01-15T07:53:23.227</time></trkpt><trkpt lat="55.7995896" lon="49.1537292"><time>2023-01-15T07:53:27.230</time></trkpt><trkpt lat="55.7995414" lon="49.1537065"><time>2023-01-15T07:53:30.227</time></trkpt><trkpt lat="55.7994975" lon="49.1536826"><time>2023-01-15T07:53:33.223</time></trkpt><trkpt lat="55.7994441" lon="49.1536504"><time>2023-01-15T07:53:37.223</time></trkpt><trkpt lat="55.7994009" lon="49.1536170"><time>2023-01-15T07:53:41.223</time></trkpt><trkpt lat="55.7993583" lon="49.1535806"><time>2023-01-15T07:53:45.227</time></trkpt><trkpt lat="55.7993078" lon="49.1535497"><time>2023-01-15T07:53:49.227</time></trkpt><trkpt lat="55.7992610" lon="49.1535338"><time>2023-01-15T07:53:53.230</time></trkpt><trkpt lat="55.7992093" lon="49.1535186"><time>2023-01-15T07:53:57.227</time></trkpt><trkpt lat="55.7991629" lon="49.1535088"><time>2023-01-15T07:54:01.227</time></trkpt><trkpt lat="55.7991135" lon="49.1535271"><time>2023-01-15T07:54:06.223</time></trkpt><trkpt lat="55.7990634" lon="49.1535383"><time>2023-01-15T07:54:10.223</time></trkpt><trkpt lat="55.7990113" lon="49.1535561"><time>2023-01-15T07:54:14.227</time></trkpt><trkpt lat="55.7989637" lon="49.1535827"><time>2023-01-15T07:54:19.240</time></trkpt><trkpt lat="55.7989581" lon="49.1535880"><time>2023-01-15T07:54:20.227</time></trkpt><trkpt lat="55.7989190" lon="49.1536391"><time>2023-01-15T07:54:25.227</time></trkpt><trkpt lat="55.7988767" lon="49.1536690"><time>2023-01-15T07:54:30.220</time></trkpt><trkpt lat="55.7988231" lon="49.1536832"><time>2023-01-15T07:54:35.223</time></trkpt><trkpt lat="55.7987751" lon="49.1536876"><time>2023-01-15T07:54:39.227</time></trkpt><trkpt lat="55.7987191" lon="49.1536930"><time>2023-01-15T07:54:42.227</time></trkpt><trkpt lat="55.7986626" lon="49.1536970"><time>2023-01-15T07:54:46.223</time></trkpt><trkpt lat="55.7986061" lon="49.1537167"><time>2023-01-15T07:54:50.230</time></trkpt><trkpt lat="55.7985542" lon="49.1537396"><time>2023-01-15T07:54:54.227</time></trkpt><trkpt lat="55.7985050" lon="49.1537515"><time>2023-01-15T07:54:58.227</time></trkpt><trkpt lat="55.7984530" lon="49.1537829"><time>2023-01-15T07:55:04.230</time></trkpt><trkpt lat="55.7984058" lon="49.1538161"><time>2023-01-15T07:55:08.220</time></trkpt><trkpt lat="55.7983584" lon="49.1538585"><time>2023-01-15T07:55:13.227</time></trkpt><trkpt lat="55.7983079" lon="49.1538788"><time>2023-01-15T07:55:17.227</time></trkpt><trkpt lat="55.7982712" lon="49.1538240"><time>2023-01-15T07:55:24.247</time></trkpt><trkpt lat="55.7982671" lon="49.1538062"><time>2023-01-15T07:55:25.223</time></trkpt><trkpt lat="55.7982554" lon="49.1537283"><time>2023-01-15T07:55:31.230</time></trkpt><trkpt lat="55.7983026" lon="49.1536893"><time>2023-01-15T07:55:37.230</time></trkpt><trkpt lat="55.7983539" lon="49.1536668"><time>2023-01-15T07:55:42.247</time></trkpt><trkpt lat="55.7983653" lon="49.1536609"><time>2023-01-15T07:55:43.227</time></trkpt><trkpt lat="55.7984163" lon="49.1536285"><time>2023-01-15T07:55:46.227</time></trkpt><trkpt lat="55.7984689" lon="49.1535966"><time>2023-01-15T07:55:48.227</time></trkpt><trkpt lat="55.7985232" lon="49.1535735"><time>2023-01-15T07:55:50.227</time></trkpt><trkpt lat="55.7985697" lon="49.1535511"><time>2023-01-15T07:55:52.223</time></trkpt><trkpt lat="55.7986193" lon="49.1535098"><time>2023-01-15T07:55:54.220</time></trkpt><trkpt lat="55.7986707" lon="49.1534687"><time>2023-01-15T07:55:56.227</time></trkpt><trkpt lat="55.7987416" lon="49.1534252"><time>2023-01-15T07:55:59.227</time></trkpt><trkpt lat="55.7987967" lon="49.1534014"><time>2023-01-15T07:56:01.223</time></trkpt><trkpt lat="55.7988645" lon="49.1533854"><time>2023-01-15T07:56:03.223</time></trkpt><trkpt lat="55.7989224" lon="49.1533486"><time>2023-01-15T07:56:05.227</time></trkpt><trkpt lat="55.7989812" lon="49.1533127"><time>2023-01-15T07:56:07.247</time></trkpt><trkpt lat="55.7990096" lon="49.1532986"><time>2023-01-15T07:56:08.227</time></trkpt><trkpt lat="55.7990570" lon="49.1532626"><time>2023-01-15T07:56:10.223</time></trkpt><trkpt lat="55.7991074" lon="49.1532335"><time>2023-01-15T07:56:12.227</time></trkpt><trkpt lat="55.7991532" lon="49.1532074"><time>2023-01-15T07:56:14.227</time></trkpt><trkpt lat="55.7992128" lon="49.1531721"><time>2023-01-15T07:56:16.227</time></trkpt><trkpt lat="55.7992660" lon="49.1531538"><time>2023-01-15T07:56:18.233</time></trkpt><trkpt lat="55.7992660" lon="49.1531538"><time>2023-01-15T07:56:18.280</time></trkpt><trkpt lat="55.7993145" lon="49.1531237"><time>2023-01-15T07:56:20.243</time></trkpt><trkpt lat="55.7993289" lon="49.1531176"><time>2023-01-15T07:56:21.227</time></trkpt><trkpt lat="55.7993793" lon="49.1530806"><time>2023-01-15T07:56:25.227</time></trkpt><trkpt lat="55.7994241" lon="49.1530688"><time>2023-01-15T07:56:27.227</time></trkpt><trkpt lat="55.7994679" lon="49.1530362"><time>2023-01-15T07:56:30.213</time></trkpt><trkpt lat="55.7995204" lon="49.1529989"><time>2023-01-15T07:56:34.230</time></trkpt><trkpt lat="55.7995696" lon="49.1529476"><time>2023-01-15T07:56:38.220</time></trkpt><trkpt lat="55.7996179" lon="49.1529092"><time>2023-01-15T07:56:42.220</time></trkpt><trkpt lat="55.7996689" lon="49.1528658"><time>2023-01-15T07:56:46.217</time></trkpt><trkpt lat="55.7997277" lon="49.1528513"><time>2023-01-15T07:56:50.220</time></trkpt><trkpt lat="55.7997747" lon="49.1528259"><time>2023-01-15T07:56:53.230</time></trkpt><trkpt lat="55.7998291" lon="49.1527915"><time>2023-01-15T07:56:57.230</time></trkpt><trkpt lat="55.7998698" lon="49.1527500"><time>2023-01-15T07:57:05.227</time></trkpt><trkpt lat="55.7999148" lon="49.1527224"><time>2023-01-15T07:57:07.253</time></trkpt><trkpt lat="55.7999394" lon="49.1527056"><time>2023-01-15T07:57:08.227</time></trkpt><trkpt lat="55.8000114" lon="49.1526628"><time>2023-01-15T07:57:11.227</time></trkpt><trkpt lat="55.8000606" lon="49.1526409"><time>2023-01-15T07:57:13.223</time></trkpt><trkpt lat="55.8001120" lon="49.1526043"><time>2023-01-15T07:57:15.227</time></trkpt><trkpt lat="55.8001694" lon="49.1525663"><time>2023-01-15T07:57:17.227</time></trkpt><trkpt lat="55.8002272" lon="49.1525332"><time>2023-01-15T07:57:19.223</time></trkpt><trkpt lat="55.8002832" lon="49.1525069"><time>2023-01-15T07:57:21.227</time></trkpt><trkpt lat="55.8003446" lon="49.1524777"><time>2023-01-15T07:57:23.223</time></trkpt><trkpt lat="55.8004119" lon="49.1524606"><time>2023-01-15T07:57:25.227</time></trkpt><trkpt lat="55.8004575" lon="49.1524493"><time>2023-01-15T07:57:27.227</time></trkpt><trkpt lat="55.8005074" lon="49.1524342"><time>2023-01-15T07:57:31.223</time></trkpt><trkpt lat="55.8005672" lon="49.1524532"><time>2023-01-15T07:57:35.227</time></trkpt><trkpt lat="55.8006193" lon="49.1524698"><time>2023-01-15T07:57:39.223</time></trkpt><trkpt lat="55.8006855" lon="49.1525194"><time>2023-01-15T07:57:42.227</time></trkpt><trkpt lat="55.8007428" lon="49.1525513"><time>2023-01-15T07:57:44.223</time></trkpt><trkpt lat="55.8007995" lon="49.1525884"><time>2023-01-15T07:57:46.223</time></trkpt><trkpt lat="55.8008621" lon="49.1526275"><time>2023-01-15T07:57:48.247</time></trkpt><trkpt lat="55.8008862" lon="49.1526449"><time>2023-01-15T07:57:49.223</time></trkpt><trkpt lat="55.8009397" lon="49.1526797"><time>2023-01-15T07:57:51.223</time></trkpt><trkpt lat="55.8009898" lon="49.1527162"><time>2023-01-15T07:57:53.227</time></trkpt><trkpt lat="55.8010329" lon="49.1527445"><time>2023-01-15T07:57:55.227</time></trkpt><trkpt lat="55.8010858" lon="49.1527802"><time>2023-01-15T07:57:57.223</time></trkpt><trkpt lat="55.8011297" lon="49.1528049"><time>2023-01-15T07:57:59.220</time></trkpt><trkpt lat="55.8011916" lon="49.1528386"><time>2023-01-15T07:58:02.223</time></trkpt><trkpt lat="55.8012356" lon="49.1528548"><time>2023-01-15T07:58:06.223</time></trkpt><trkpt lat="55.8012325" lon="49.1529382"><time>2023-01-15T07:58:17.223</time></trkpt><trkpt lat="55.8012325" lon="49.1530182"><time>2023-01-15T07:58:20.227</time></trkpt><trkpt lat="55.8011896" lon="49.1530859"><time>2023-01-15T07:58:23.227</time></trkpt><trkpt lat="55.8011428" lon="49.1531296"><time>2023-01-15T07:58:26.220</time></trkpt><trkpt lat="55.8010995" lon="49.1531895"><time>2023-01-15T07:58:31.227</time></trkpt><trkpt lat="55.8010600" lon="49.1532402"><time>2023-01-15T07:58:36.223</time></trkpt><trkpt lat="55.8010882" lon="49.1533187"><time>2023-01-15T07:58:45.227</time></trkpt><trkpt lat="55.8011371" lon="49.1533444"><time>2023-01-15T07:58:49.227</time></trkpt><trkpt lat="55.8011859" lon="49.1533679"><time>2023-01-15T07:58:52.223</time></trkpt><trkpt lat="55.8012469" lon="49.1533790"><time>2023-01-15T07:58:55.227</time></trkpt><trkpt lat="55.8013036" lon="49.1533793"><time>2023-01-15T07:58:58.223</time></trkpt><trkpt lat="55.8013484" lon="49.1533886"><time>2023-01-15T07:59:00.227</time></trkpt><trkpt lat="55.8014015" lon="49.1534012"><time>2023-01-15T07:59:03.227</time></trkpt><trkpt lat="55.8014627" lon="49.1534139"><time>2023-01-15T07:59:06.223</time></trkpt><trkpt lat="55.8015310" lon="49.1534226"><time>2023-01-15T07:59:09.227</time></trkpt><trkpt lat="55.8015885" lon="49.1534177"><time>2023-01-15T07:59:11.223</time></trkpt><trkpt lat="55.8016343" lon="49.1534170"><time>2023-01-15T07:59:14.227</time></trkpt><trkpt lat="55.8016807" lon="49.1533805"><time>2023-01-15T07:59:20.227</time></trkpt><trkpt lat="55.8017091" lon="49.1533146"><time>2023-01-15T07:59:23.227</time></trkpt><trkpt lat="55.8017549" lon="49.1532660"><time>2023-01-15T07:59:27.227</time></trkpt><trkpt lat="55.8017946" lon="49.1532072"><time>2023-01-15T07:59:30.227</time></trkpt><trkpt lat="55.8018392" lon="49.1531233"><time>2023-01-15T07:59:33.223</time></trkpt><trkpt lat="55.8018645" lon="49.1530573"><time>2023-01-15T07:59:35.240</time></trkpt><trkpt lat="55.8018727" lon="49.1530429"><time>2023-01-15T07:59:36.223</time></trkpt><trkpt lat="55.8019134" lon="49.1529610"><time>2023-01-15T07:59:39.227</time></trkpt><trkpt lat="55.8019665" lon="49.1529044"><time>2023-01-15T07:59:42.223</time></trkpt><trkpt lat="55.8020065" lon="49.1528663"><time>2023-01-15T07:59:44.227</time></trkpt><trkpt lat="55.8020569" lon="49.1528155"><time>2023-01-15T07:59:47.227</time></trkpt><trkpt lat="55.8021099" lon="49.1527614"><time>2023-01-15T07:59:51.227</time></trkpt><trkpt lat="55.8021544" lon="49.1526876"><time>2023-01-15T07:59:55.227</time></trkpt><trkpt lat="55.8021909" lon="49.1526358"><time>2023-01-15T07:59:58.223</time></trkpt><trkpt lat="55.8022419" lon="49.1525829"><time>2023-01-15T08:00:01.240</time></trkpt><trkpt lat="55.8022566" lon="49.1525655"><time>2023-01-15T08:00:02.223</time></trkpt><trkpt lat="55.8023000" lon="49.1525169"><time>2023-01-15T08:00:05.223</time></trkpt><trkpt lat="55.8023430" lon="49.1524683"><time>2023-01-15T08:00:08.223</time></trkpt><trkpt lat="55.8023883" lon="49.1524188"><time>2023-01-15T08:00:12.227</time></trkpt><trkpt lat="55.8024403" lon="49.1523769"><time>2023-01-15T08:00:16.223</time></trkpt><trkpt lat="55.8024834" lon="49.1523220"><time>2023-01-15T08:00:20.227</time></trkpt><trkpt lat="55.8025286" lon="49.1522698"><time>2023-01-15T08:00:24.233</time></trkpt><trkpt lat="55.8025286" lon="49.1522698"><time>2023-01-15T08:00:24.287</time></trkpt><trkpt lat="55.8025724" lon="49.1522257"><time>2023-01-15T08:00:29.237</time></trkpt><trkpt lat="55.8025812" lon="49.1522294"><time>2023-01-15T08:00:30.223</time></trkpt><trkpt lat="55.8026324" lon="49.1522720"><time>2023-01-15T08:00:34.223</time></trkpt><trkpt lat="55.8026711" lon="49.1523241"><time>2023-01-15T08:00:38.227</time></trkpt><trkpt lat="55.8026793" lon="49.1524253"><time>2023-01-15T08:00:42.227</time></trkpt><trkpt lat="55.8026870" lon="49.1525052"><time>2023-01-15T08:00:46.223</time></trkpt><trkpt lat="55.8027070" lon="49.1525921"><time>2023-01-15T08:00:52.223</time></trkpt><trkpt lat="55.8027455" lon="49.1526558"><time>2023-01-15T08:00:56.223</time></trkpt><trkpt lat="55.8027785" lon="49.1527107"><time>2023-01-15T08:00:59.227</time></trkpt><trkpt lat="55.8028224" lon="49.1527425"><time>2023-01-15T08:01:02.227</time></trkpt><trkpt lat="55.8028621" lon="49.1528077"><time>2023-01-15T08:01:06.223</time></trkpt><trkpt lat="55.8029083" lon="49.1528480"><time>2023-01-15T08:01:09.223</time></trkpt><trkpt lat="55.8029476" lon="49.1529100"><time>2023-01-15T08:01:12.223</time></trkpt><trkpt lat="55.8029998" lon="49.1529675"><time>2023-01-15T08:01:15.223</time></trkpt><trkpt lat="55.8030368" lon="49.1530167"><time>2023-01-15T08:01:17.233</time></trkpt><trkpt lat="55.8030868" lon="49.1530811"><time>2023-01-15T08:01:20.227</time></trkpt><trkpt lat="55.8031327" lon="49.1531523"><time>2023-01-15T08:01:23.220</time></trkpt><trkpt lat="55.8031831" lon="49.1532329"><time>2023-01-15T08:01:26.227</time></trkpt><trkpt lat="55.8032192" lon="49.1532830"><time>2023-01-15T08:01:28.227</time></trkpt><trkpt lat="55.8032545" lon="49.1533410"><time>2023-01-15T08:01:32.227</time></trkpt><trkpt lat="55.8033009" lon="49.1533702"><time>2023-01-15T08:01:36.227</time></trkpt><trkpt lat="55.8033437" lon="49.1533041"><time>2023-01-15T08:01:41.220</time></trkpt><trkpt lat="55.8034076" lon="49.1532522"><time>2023-01-15T08:01:44.227</time></trkpt><trkpt lat="55.8034561" lon="49.1532205"><time>2023-01-15T08:01:46.237</time></trkpt><trkpt lat="55.8034814" lon="49.1532027"><time>2023-01-15T08:01:47.227</time></trkpt><trkpt lat="55.8035246" lon="49.1531642"><time>2023-01-15T08:01:49.227</time></trkpt><trkpt lat="55.8035720" lon="49.1531303"><time>2023-01-15T08:01:51.230</time></trkpt><trkpt lat="55.8036111" lon="49.1530812"><time>2023-01-15T08:01:53.227</time></trkpt><trkpt lat="55.8036535" lon="49.1530209"><time>2023-01-15T08:01:55.223</time></trkpt><trkpt lat="55.8037035" lon="49.1529730"><time>2023-01-15T08:01:57.227</time></trkpt><trkpt lat="55.8037403" lon="49.1529191"><time>2023-01-15T08:01:59.227</time></trkpt><trkpt lat="55.8037757" lon="49.1528508"><time>2023-01-15T08:02:01.227</time></trkpt><trkpt lat="55.8038138" lon="49.1527808"><time>2023-01-15T08:02:03.223</time></trkpt><trkpt lat="55.8038474" lon="49.1526787"><time>2023-01-15T08:02:06.227</time></trkpt><trkpt lat="55.8038805" lon="49.1526113"><time>2023-01-15T08:02:08.227</time></trkpt><trkpt lat="55.8039062" lon="49.1525448"><time>2023-01-15T08:02:10.220</time></trkpt><trkpt lat="55.8039525" lon="49.1525008"><time>2023-01-15T08:02:12.227</time></trkpt><trkpt lat="55.8040167" lon="49.1524848"><time>2023-01-15T08:02:15.230</time></trkpt><trkpt lat="55.8040732" lon="49.1524851"><time>2023-01-15T08:02:19.230</time></trkpt><trkpt lat="55.8041298" lon="49.1524383"><time>2023-01-15T08:02:23.233</time></trkpt><trkpt lat="55.8041751" lon="49.1523955"><time>2023-01-15T08:02:25.227</time></trkpt><trkpt lat="55.8042361" lon="49.1523457"><time>2023-01-15T08:02:27.237</time></trkpt><trkpt lat="55.8042578" lon="49.1523224"><time>2023-01-15T08:02:28.223</time></trkpt><trkpt lat="55.8042991" lon="49.1522709"><time>2023-01-15T08:02:30.227</time></trkpt><trkpt lat="55.8043516" lon="49.1522085"><time>2023-01-15T08:02:33.233</time></trkpt><trkpt lat="55.8044052" lon="49.1521247"><time>2023-01-15T08:02:36.223</time></trkpt><trkpt lat="55.8044408" lon="49.1520558"><time>2023-01-15T08:02:38.223</time></trkpt><trkpt lat="55.8044706" lon="49.1519829"><time>2023-01-15T08:02:40.227</time></trkpt><trkpt lat="55.8044982" lon="49.1519105"><time>2023-01-15T08:02:42.227</time></trkpt><trkpt lat="55.8045399" lon="49.1518105"><time>2023-01-15T08:02:45.247</time></trkpt><trkpt lat="55.8045501" lon="49.1517869"><time>2023-01-15T08:02:46.227</time></trkpt><trkpt lat="55.8045724" lon="49.1517047"><time>2023-01-15T08:02:50.220</time></trkpt><trkpt lat="55.8045741" lon="49.1516050"><time>2023-01-15T08:02:53.227</time></trkpt><trkpt lat="55.8045743" lon="49.1515111"><time>2023-01-15T08:02:57.230</time></trkpt><trkpt lat="55.8046273" lon="49.1515338"><time>2023-01-15T08:03:02.227</time></trkpt><trkpt lat="55.8046712" lon="49.1515719"><time>2023-01-15T08:03:05.230</time></trkpt><trkpt lat="55.8047282" lon="49.1516053"><time>2023-01-15T08:03:08.227</time></trkpt><trkpt lat="55.8047706" lon="49.1516404"><time>2023-01-15T08:03:11.223</time></trkpt><trkpt lat="55.8048144" lon="49.1516701"><time>2023-01-15T08:03:14.230</time></trkpt><trkpt lat="55.8048381" lon="49.1515959"><time>2023-01-15T08:03:20.233</time></trkpt><trkpt lat="55.8048381" lon="49.1515959"><time>2023-01-15T08:03:20.280</time></trkpt><trkpt lat="55.8048353" lon="49.1516850"><time>2023-01-15T08:03:36.237</time></trkpt><trkpt lat="55.8048312" lon="49.1516938"><time>2023-01-15T08:03:37.227</time></trkpt><trkpt lat="55.8047887" lon="49.1516557"><time>2023-01-15T08:03:41.223</time></trkpt><trkpt lat="55.8047443" lon="49.1516050"><time>2023-01-15T08:03:45.227</time></trkpt><trkpt lat="55.8047004" lon="49.1515858"><time>2023-01-15T08:03:48.227</time></trkpt><trkpt lat="55.8046577" lon="49.1515343"><time>2023-01-15T08:03:52.227</time></trkpt><trkpt lat="55.8046211" lon="49.1514826"><time>2023-01-15T08:03:55.227</time></trkpt><trkpt lat="55.8045820" lon="49.1514180"><time>2023-01-15T08:03:58.220</time></trkpt><trkpt lat="55.8045606" lon="49.1513338"><time>2023-01-15T08:04:02.250</time></trkpt><trkpt lat="55.8045370" lon="49.1512642"><time>2023-01-15T08:04:05.220</time></trkpt><trkpt lat="55.8045064" lon="49.1511923"><time>2023-01-15T08:04:08.217</time></trkpt><trkpt lat="55.8044859" lon="49.1511052"><time>2023-01-15T08:04:12.217</time></trkpt><trkpt lat="55.8044633" lon="49.1510297"><time>2023-01-15T08:04:15.217</time></trkpt><trkpt lat="55.8044458" lon="49.1509539"><time>2023-01-15T08:04:18.217</time></trkpt><trkpt lat="55.8044442" lon="49.1508683"><time>2023-01-15T08:04:22.227</time></trkpt><trkpt lat="55.8044386" lon="49.1507810"><time>2023-01-15T08:04:25.227</time></trkpt><trkpt lat="55.8044204" lon="49.1507055"><time>2023-01-15T08:04:28.230</time></trkpt><trkpt lat="55.8043991" lon="49.1506204"><time>2023-01-15T08:04:30.227</time></trkpt><trkpt lat="55.8043754" lon="49.1505409"><time>2023-01-15T08:04:32.223</time></trkpt><trkpt lat="55.8043509" lon="49.1504653"><time>2023-01-15T08:04:34.227</time></trkpt><trkpt lat="55.8043155" lon="49.1503542"><time>2023-01-15T08:04:37.227</time></trkpt><trkpt lat="55.8042843" lon="49.1502581"><time>2023-01-15T08:04:39.227</time></trkpt><trkpt lat="55.8042686" lon="49.1501700"><time>2023-01-15T08:04:41.227</time></trkpt><trkpt lat="55.8042665" lon="49.1500529"><time>2023-01-15T08:04:44.230</time></trkpt><trkpt lat="55.8042622" lon="49.1499641"><time>2023-01-15T08:04:46.227</time></trkpt><trkpt lat="55.8042468" lon="49.1498546"><time>2023-01-15T08:04:49.227</time></trkpt><trkpt lat="55.8042105" lon="49.1498006"><time>2023-01-15T08:04:52.223</time></trkpt><trkpt lat="55.8041850" lon="49.1497298"><time>2023-01-15T08:04:55.230</time></trkpt><trkpt lat="55.8041507" lon="49.1496287"><time>2023-01-15T08:04:58.223</time></trkpt><trkpt lat="55.8041163" lon="49.1495528"><time>2023-01-15T08:05:00.223</time></trkpt><trkpt lat="55.8040860" lon="49.1494585"><time>2023-01-15T08:05:03.233</time></trkpt><trkpt lat="55.8040529" lon="49.1493629"><time>2023-01-15T08:05:06.227</time></trkpt><trkpt lat="55.8040224" lon="49.1492609"><time>2023-01-15T08:05:09.227</time></trkpt><trkpt lat="55.8039980" lon="49.1491618"><time>2023-01-15T08:05:12.230</time></trkpt><trkpt lat="55.8039679" lon="49.1490668"><time>2023-01-15T08:05:15.227</time></trkpt><trkpt lat="55.8039452" lon="49.1489791"><time>2023-01-15T08:05:18.223</time></trkpt><trkpt lat="55.8039134" lon="49.1489042"><time>2023-01-15T08:05:21.227</time></trkpt><trkpt lat="55.8038828" lon="49.1488270"><time>2023-01-15T08:05:25.223</time></trkpt><trkpt lat="55.8038291" lon="49.1488046"><time>2023-01-15T08:05:28.220</time></trkpt><trkpt lat="55.8037738" lon="49.1488142"><time>2023-01-15T08:05:32.227</time></trkpt><trkpt lat="55.8037210" lon="49.1487476"><time>2023-01-15T08:05:35.230</time></trkpt><trkpt lat="55.8036907" lon="49.1486729"><time>2023-01-15T08:05:37.230</time></trkpt><trkpt lat="55.8036592" lon="49.1485655"><time>2023-01-15T08:05:39.227</time></trkpt><trkpt lat="55.8036325" lon="49.1484744"><time>2023-01-15T08:05:41.227</time></trkpt><trkpt lat="55.8036056" lon="49.1483956"><time>2023-01-15T08:05:43.230</time></trkpt><trkpt lat="55.8035798" lon="49.1483148"><time>2023-01-15T08:05:45.230</time></trkpt><trkpt lat="55.8035438" lon="49.1482309"><time>2023-01-15T08:05:47.230</time></trkpt><trkpt lat="55.8035131" lon="49.1481538"><time>2023-01-15T08:05:49.230</time></trkpt><trkpt lat="55.8034859" lon="49.1480846"><time>2023-01-15T08:05:51.223</time></trkpt><trkpt lat="55.8034603" lon="49.1480086"><time>2023-01-15T08:05:53.223</time></trkpt><trkpt lat="55.8034335" lon="49.1479310"><time>2023-01-15T08:05:55.227</time></trkpt><trkpt lat="55.8034016" lon="49.1478473"><time>2023-01-15T08:05:58.230</time></trkpt><trkpt lat="55.8033655" lon="49.1477834"><time>2023-01-15T08:06:01.230</time></trkpt><trkpt lat="55.8033417" lon="49.1476940"><time>2023-01-15T08:06:04.227</time></trkpt><trkpt lat="55.8033157" lon="49.1476103"><time>2023-01-15T08:06:07.227</time></trkpt><trkpt lat="55.8032953" lon="49.1475163"><time>2023-01-15T08:06:11.230</time></trkpt><trkpt lat="55.8032692" lon="49.1474413"><time>2023-01-15T08:06:15.230</time></trkpt><trkpt lat="55.8032361" lon="49.1473873"><time>2023-01-15T08:06:18.223</time></trkpt><trkpt lat="55.8032135" lon="49.1472909"><time>2023-01-15T08:06:22.227</time></trkpt><trkpt lat="55.8031981" lon="49.1472061"><time>2023-01-15T08:06:25.227</time></trkpt><trkpt lat="55.8031821" lon="49.1471261"><time>2023-01-15T08:06:28.227</time></trkpt><trkpt lat="55.8031585" lon="49.1470542"><time>2023-01-15T08:06:30.227</time></trkpt><trkpt lat="55.8031268" lon="49.1469550"><time>2023-01-15T08:06:32.227</time></trkpt><trkpt lat="55.8030976" lon="49.1468682"><time>2023-01-15T08:06:34.227</time></trkpt><trkpt lat="55.8030756" lon="49.1467947"><time>2023-01-15T08:06:36.230</time></trkpt><trkpt lat="55.8030488" lon="49.1467128"><time>2023-01-15T08:06:38.223</time></trkpt><trkpt lat="55.8030234" lon="49.1466375"><time>2023-01-15T08:06:40.227</time></trkpt><trkpt lat="55.8029825" lon="49.1465863"><time>2023-01-15T08:06:42.230</time></trkpt><trkpt lat="55.8029216" lon="49.1465338"><time>2023-01-15T08:06:45.223</time></trkpt><trkpt lat="55.8028925" lon="49.1464690"><time>2023-01-15T08:06:47.227</time></trkpt><trkpt lat="55.8028623" lon="49.1463838"><time>2023-01-15T08:06:49.227</time></trkpt><trkpt lat="55.8028241" lon="49.1463170"><time>2023-01-15T08:06:51.227</time></trkpt><trkpt lat="55.8027846" lon="49.1462690"><time>2023-01-15T08:06:53.230</time></trkpt><trkpt lat="55.8027372" lon="49.1461823"><time>2023-01-15T08:06:56.223</time></trkpt><trkpt lat="55.8027066" lon="49.1460968"><time>2023-01-15T08:06:59.227</time></trkpt><trkpt lat="55.8026882" lon="49.1459879"><time>2023-01-15T08:07:02.227</time></trkpt><trkpt lat="55.8026450" lon="49.1459321"><time>2023-01-15T08:07:08.227</time></trkpt><trkpt lat="55.8025840" lon="49.1459437"><time>2023-01-15T08:07:12.227</time></trkpt><trkpt lat="55.8025337" lon="49.1459834"><time>2023-01-15T08:07:15.227</time></trkpt><trkpt lat="55.8024806" lon="49.1460025"><time>2023-01-15T08:07:18.227</time></trkpt><trkpt lat="55.8024323" lon="49.1459782"><time>2023-01-15T08:07:21.233</time></trkpt><trkpt lat="55.8023780" lon="49.1459977"><time>2023-01-15T08:07:25.227</time></trkpt><trkpt lat="55.8023302" lon="49.1460348"><time>2023-01-15T08:07:28.237</time></trkpt><trkpt lat="55.8023175" lon="49.1460359"><time>2023-01-15T08:07:29.227</time></trkpt><trkpt lat="55.8022713" lon="49.1460594"><time>2023-01-15T08:07:32.227</time></trkpt><trkpt lat="55.8022213" lon="49.1460924"><time>2023-01-15T08:07:35.233</time></trkpt><trkpt lat="55.8021744" lon="49.1461172"><time>2023-01-15T08:07:38.227</time></trkpt><trkpt lat="55.8021303" lon="49.1461504"><time>2023-01-15T08:07:41.230</time></trkpt><trkpt lat="55.8020813" lon="49.1461914"><time>2023-01-15T08:07:44.227</time></trkpt><trkpt lat="55.8020330" lon="49.1462297"><time>2023-01-15T08:07:47.227</time></trkpt><trkpt lat="55.8019895" lon="49.1462687"><time>2023-01-15T08:07:50.223</time></trkpt><trkpt lat="55.8019495" lon="49.1463092"><time>2023-01-15T08:07:52.230</time></trkpt><trkpt lat="55.8019072" lon="49.1463520"><time>2023-01-15T08:07:54.227</time></trkpt><trkpt lat="55.8018637" lon="49.1463909"><time>2023-01-15T08:07:56.223</time></trkpt><trkpt lat="55.8018053" lon="49.1464289"><time>2023-01-15T08:07:58.237</time></trkpt><trkpt lat="55.8017515" lon="49.1464570"><time>2023-01-15T08:08:00.243</time></trkpt><trkpt lat="55.8017039" lon="49.1464911"><time>2023-01-15T08:08:02.230</time></trkpt><trkpt lat="55.8016524" lon="49.1465224"><time>2023-01-15T08:08:04.223</time></trkpt><trkpt lat="55.8016101" lon="49.1465536"><time>2023-01-15T08:08:06.230</time></trkpt><trkpt lat="55.8015664" lon="49.1465912"><time>2023-01-15T08:08:08.227</time></trkpt><trkpt lat="55.8015174" lon="49.1466266"><time>2023-01-15T08:08:10.227</time></trkpt><trkpt lat="55.8014695" lon="49.1466548"><time>2023-01-15T08:08:12.230</time></trkpt><trkpt lat="55.8014202" lon="49.1466966"><time>2023-01-15T08:08:15.233</time></trkpt><trkpt lat="55.8013682" lon="49.1467118"><time>2023-01-15T08:08:18.243</time></trkpt><trkpt lat="55.8013515" lon="49.1467155"><time>2023-01-15T08:08:19.230</time></trkpt><trkpt lat="55.8013105" lon="49.1466790"><time>2023-01-15T08:08:23.227</time></trkpt><trkpt lat="55.8013105" lon="49.1465769"><time>2023-01-15T08:08:27.233</time></trkpt><trkpt lat="55.8013029" lon="49.1464806"><time>2023-01-15T08:08:30.240</time></trkpt><trkpt lat="55.8012970" lon="49.1464585"><time>2023-01-15T08:08:31.233</time></trkpt><trkpt lat="55.8012655" lon="49.1463866"><time>2023-01-15T08:08:35.230</time></trkpt><trkpt lat="55.8012517" lon="49.1463105"><time>2023-01-15T08:08:38.243</time></trkpt><trkpt lat="55.8012471" lon="49.1462821"><time>2023-01-15T08:08:39.230</time></trkpt><trkpt lat="55.8012297" lon="49.1461878"><time>2023-01-15T08:08:42.230</time></trkpt><trkpt lat="55.8012104" lon="49.1460971"><time>2023-01-15T08:08:45.227</time></trkpt><trkpt lat="55.8011923" lon="49.1460048"><time>2023-01-15T08:08:48.223</time></trkpt><trkpt lat="55.8011633" lon="49.1459419"><time>2023-01-15T08:08:51.233</time></trkpt><trkpt lat="55.8011397" lon="49.1458579"><time>2023-01-15T08:08:55.223</time></trkpt><trkpt lat="55.8011137" lon="49.1457870"><time>2023-01-15T08:08:59.227</time></trkpt><trkpt lat="55.8010880" lon="49.1457125"><time>2023-01-15T08:09:02.220</time></trkpt><trkpt lat="55.8010744" lon="49.1456284"><time>2023-01-15T08:09:06.230</time></trkpt><trkpt lat="55.8010570" lon="49.1455383"><time>2023-01-15T08:09:19.227</time></trkpt><trkpt lat="55.8010306" lon="49.1454445"><time>2023-01-15T08:09:23.237</time></trkpt><trkpt lat="55.8010225" lon="49.1454219"><time>2023-01-15T08:09:24.230</time></trkpt><trkpt lat="55.8010011" lon="49.1453263"><time>2023-01-15T08:09:27.223</time></trkpt><trkpt lat="55.8009852" lon="49.1452497"><time>2023-01-15T08:09:37.227</time></trkpt><trkpt lat="55.8009640" lon="49.1451630"><time>2023-01-15T08:09:41.227</time></trkpt><trkpt lat="55.8009639" lon="49.1450777"><time>2023-01-15T08:09:45.227</time></trkpt><trkpt lat="55.8009416" lon="49.1450053"><time>2023-01-15T08:09:48.227</time></trkpt><trkpt lat="55.8009223" lon="49.1449316"><time>2023-01-15T08:09:53.227</time></trkpt><trkpt lat="55.8008831" lon="49.1448717"><time>2023-01-15T08:10:07.227</time></trkpt><trkpt lat="55.8008387" lon="49.1448326"><time>2023-01-15T08:10:18.230</time></trkpt><trkpt lat="55.8007966" lon="49.1447942"><time>2023-01-15T08:10:22.230</time></trkpt><trkpt lat="55.8007559" lon="49.1447583"><time>2023-01-15T08:10:34.220</time></trkpt><trkpt lat="55.8007306" lon="49.1448273"><time>2023-01-15T08:11:11.223</time></trkpt><trkpt lat="55.8007216" lon="49.1449102"><time>2023-01-15T08:11:15.250</time></trkpt><trkpt lat="55.8007241" lon="49.1449927"><time>2023-01-15T08:11:20.230</time></trkpt><trkpt lat="55.8007108" lon="49.1450756"><time>2023-01-15T08:11:25.237</time></trkpt><trkpt lat="55.8007108" lon="49.1450756"><time>2023-01-15T08:11:25.283</time></trkpt><trkpt lat="55.8006934" lon="49.1451546"><time>2023-01-15T08:11:36.247</time></trkpt><trkpt lat="55.8006826" lon="49.1451854"><time>2023-01-15T08:11:37.230</time></trkpt><trkpt lat="55.8007065" lon="49.1451086"><time>2023-01-15T08:12:15.233</time></trkpt><trkpt lat="55.8007179" lon="49.1449989"><time>2023-01-15T08:12:20.230</time></trkpt><trkpt lat="55.8007202" lon="49.1448995"><time>2023-01-15T08:12:29.233</time></trkpt><trkpt lat="55.8007251" lon="49.1448082"><time>2023-01-15T08:12:32.223</time></trkpt><trkpt lat="55.8006869" lon="49.1447603"><time>2023-01-15T08:12:36.230</time></trkpt><trkpt lat="55.8006409" lon="49.1447325"><time>2023-01-15T08:12:41.240</time></trkpt><trkpt lat="55.8006246" lon="49.1447152"><time>2023-01-15T08:12:42.223</time></trkpt><trkpt lat="55.8006185" lon="49.1446021"><time>2023-01-15T08:12:45.227</time></trkpt><trkpt lat="55.8006284" lon="49.1445054"><time>2023-01-15T08:12:47.227</time></trkpt><trkpt lat="55.8006223" lon="49.1444244"><time>2023-01-15T08:12:49.230</time></trkpt><trkpt lat="55.8005897" lon="49.1443527"><time>2023-01-15T08:12:51.230</time></trkpt><trkpt lat="55.8005511" lon="49.1442632"><time>2023-01-15T08:12:53.227</time></trkpt><trkpt lat="55.8005177" lon="49.1441618"><time>2023-01-15T08:12:56.223</time></trkpt><trkpt lat="55.8005053" lon="49.1440818"><time>2023-01-15T08:12:59.230</time></trkpt><trkpt lat="55.8004737" lon="49.1440018"><time>2023-01-15T08:13:06.227</time></trkpt><trkpt lat="55.8004852" lon="49.1438924"><time>2023-01-15T08:13:21.227</time></trkpt><trkpt lat="55.8004654" lon="49.1437963"><time>2023-01-15T08:13:24.247</time></trkpt><trkpt lat="55.8004593" lon="49.1437702"><time>2023-01-15T08:13:25.233</time></trkpt><trkpt lat="55.8004234" lon="49.1437074"><time>2023-01-15T08:13:29.230</time></trkpt><trkpt lat="55.8003844" lon="49.1436619"><time>2023-01-15T08:13:33.230</time></trkpt><trkpt lat="55.8003663" lon="49.1435719"><time>2023-01-15T08:13:39.230</time></trkpt><trkpt lat="55.8003438" lon="49.1434985"><time>2023-01-15T08:13:46.233</time></trkpt><trkpt lat="55.8003041" lon="49.1434529"><time>2023-01-15T08:13:53.230</time></trkpt><trkpt lat="55.8002694" lon="49.1433834"><time>2023-01-15T08:13:59.233</time></trkpt><trkpt lat="55.8002370" lon="49.1432934"><time>2023-01-15T08:14:02.227</time></trkpt><trkpt lat="55.8001855" lon="49.1432153"><time>2023-01-15T08:14:05.240</time></trkpt><trkpt lat="55.8001855" lon="49.1432153"><time>2023-01-15T08:14:05.280</time></trkpt><trkpt lat="55.8001732" lon="49.1431282"><time>2023-01-15T08:14:09.240</time></trkpt><trkpt lat="55.8001776" lon="49.1431097"><time>2023-01-15T08:14:10.227</time></trkpt><trkpt lat="55.8001727" lon="49.1430209"><time>2023-01-15T08:14:13.230</time></trkpt><trkpt lat="55.8001478" lon="49.1429100"><time>2023-01-15T08:14:16.227</time></trkpt><trkpt lat="55.8001863" lon="49.1429826"><time>2023-01-15T08:14:31.227</time></trkpt><trkpt lat="55.8002237" lon="49.1430496"><time>2023-01-15T08:14:35.230</time></trkpt><trkpt lat="55.8002766" lon="49.1431099"><time>2023-01-15T08:14:39.223</time></trkpt><trkpt lat="55.8003205" lon="49.1431414"><time>2023-01-15T08:14:41.230</time></trkpt><trkpt lat="55.8003627" lon="49.1431690"><time>2023-01-15T08:14:43.227</time></trkpt><trkpt lat="55.8003992" lon="49.1432519"><time>2023-01-15T08:14:46.230</time></trkpt><trkpt lat="55.8003860" lon="49.1433447"><time>2023-01-15T08:14:49.227</time></trkpt><trkpt lat="55.8003990" lon="49.1434458"><time>2023-01-15T08:14:52.227</time></trkpt><trkpt lat="55.8004160" lon="49.1435551"><time>2023-01-15T08:14:55.230</time></trkpt><trkpt lat="55.8004314" lon="49.1436498"><time>2023-01-15T08:14:57.227</time></trkpt><trkpt lat="55.8004544" lon="49.1437519"><time>2023-01-15T08:14:59.227</time></trkpt><trkpt lat="55.8004745" lon="49.1438531"><time>2023-01-15T08:15:01.230</time></trkpt><trkpt lat="55.8004775" lon="49.1439548"><time>2023-01-15T08:15:03.227</time></trkpt><trkpt lat="55.8004824" lon="49.1440345"><time>2023-01-15T08:15:05.227</time></trkpt><trkpt lat="55.8004937" lon="49.1441180"><time>2023-01-15T08:15:07.230</time></trkpt><trkpt lat="55.8005145" lon="49.1441951"><time>2023-01-15T08:15:09.223</time></trkpt><trkpt lat="55.8005382" lon="49.1442677"><time>2023-01-15T08:15:11.233</time></trkpt><trkpt lat="55.8005644" lon="49.1443327"><time>2023-01-15T08:15:13.227</time></trkpt><trkpt lat="55.8005846" lon="49.1444098"><time>2023-01-15T08:15:15.230</time></trkpt><trkpt lat="55.8005940" lon="49.1444966"><time>2023-01-15T08:15:19.233</time></trkpt><trkpt lat="55.8005980" lon="49.1445976"><time>2023-01-15T08:15:23.230</time></trkpt><trkpt lat="55.8005728" lon="49.1446654"><time>2023-01-15T08:15:26.227</time></trkpt><trkpt lat="55.8005210" lon="49.1447075"><time>2023-01-15T08:15:30.227</time></trkpt><trkpt lat="55.8004772" lon="49.1447704"><time>2023-01-15T08:15:34.243</time></trkpt><trkpt lat="55.8004627" lon="49.1447861"><time>2023-01-15T08:15:35.230</time></trkpt><trkpt lat="55.8004212" lon="49.1448208"><time>2023-01-15T08:15:38.230</time></trkpt><trkpt lat="55.8003738" lon="49.1448371"><time>2023-01-15T08:15:42.223</time></trkpt><trkpt lat="55.8003268" lon="49.1448625"><time>2023-01-15T08:15:48.220</time></trkpt><trkpt lat="55.8002694" lon="49.1448401"><time>2023-01-15T08:15:52.230</time></trkpt><trkpt lat="55.8002231" lon="49.1448636"><time>2023-01-15T08:15:55.227</time></trkpt><trkpt lat="55.8001799" lon="49.1449151"><time>2023-01-15T08:15:59.230</time></trkpt><trkpt lat="55.8001391" lon="49.1449553"><time>2023-01-15T08:16:02.230</time></trkpt><trkpt lat="55.8000969" lon="49.1449922"><time>2023-01-15T08:16:06.227</time></trkpt><trkpt lat="55.8000476" lon="49.1450102"><time>2023-01-15T08:16:09.230</time></trkpt><trkpt lat="55.7999899" lon="49.1450243"><time>2023-01-15T08:16:13.230</time></trkpt><trkpt lat="55.7999356" lon="49.1450593"><time>2023-01-15T08:16:17.247</time></trkpt><trkpt lat="55.7999238" lon="49.1450684"><time>2023-01-15T08:16:18.233</time></trkpt><trkpt lat="55.7998718" lon="49.1450889"><time>2023-01-15T08:16:21.243</time></trkpt><trkpt lat="55.7998532" lon="49.1450972"><time>2023-01-15T08:16:22.227</time></trkpt><trkpt lat="55.7998052" lon="49.1451452"><time>2023-01-15T08:16:27.227</time></trkpt><trkpt lat="55.7997516" lon="49.1451873"><time>2023-01-15T08:16:30.227</time></trkpt><trkpt lat="55.7997032" lon="49.1452081"><time>2023-01-15T08:16:34.230</time></trkpt><trkpt lat="55.7996517" lon="49.1452417"><time>2023-01-15T08:16:38.227</time></trkpt><trkpt lat="55.7996047" lon="49.1452802"><time>2023-01-15T08:16:41.227</time></trkpt><trkpt lat="55.7995417" lon="49.1452962"><time>2023-01-15T08:16:45.230</time></trkpt><trkpt lat="55.7994934" lon="49.1453081"><time>2023-01-15T08:16:48.227</time></trkpt><trkpt lat="55.7994456" lon="49.1453137"><time>2023-01-15T08:16:52.233</time></trkpt><trkpt lat="55.7993930" lon="49.1453039"><time>2023-01-15T08:16:56.230</time></trkpt><trkpt lat="55.7993432" lon="49.1453035"><time>2023-01-15T08:17:00.227</time></trkpt><trkpt lat="55.7992964" lon="49.1453300"><time>2023-01-15T08:17:03.227</time></trkpt><trkpt lat="55.7992543" lon="49.1453586"><time>2023-01-15T08:17:06.227</time></trkpt><trkpt lat="55.7991916" lon="49.1453753"><time>2023-01-15T08:17:09.230</time></trkpt><trkpt lat="55.7991378" lon="49.1453747"><time>2023-01-15T08:17:13.230</time></trkpt><trkpt lat="55.7990848" lon="49.1453750"><time>2023-01-15T08:17:16.227</time></trkpt><trkpt lat="55.7990348" lon="49.1453837"><time>2023-01-15T08:17:19.223</time></trkpt><trkpt lat="55.7989802" lon="49.1453927"><time>2023-01-15T08:17:22.247</time></trkpt><trkpt lat="55.7989686" lon="49.1453879"><time>2023-01-15T08:17:23.233</time></trkpt><trkpt lat="55.7989216" lon="49.1453803"><time>2023-01-15T08:17:26.227</time></trkpt><trkpt lat="55.7988713" lon="49.1453755"><time>2023-01-15T08:17:32.227</time></trkpt><trkpt lat="55.7988160" lon="49.1453778"><time>2023-01-15T08:17:36.227</time></trkpt><trkpt lat="55.7987649" lon="49.1453773"><time>2023-01-15T08:17:42.230</time></trkpt><trkpt lat="55.7987125" lon="49.1453711"><time>2023-01-15T08:17:48.223</time></trkpt><trkpt lat="55.7986677" lon="49.1453679"><time>2023-01-15T08:17:53.227</time></trkpt><trkpt lat="55.7986165" lon="49.1453686"><time>2023-01-15T08:17:58.230</time></trkpt><trkpt lat="55.7985662" lon="49.1453685"><time>2023-01-15T08:18:05.227</time></trkpt><trkpt lat="55.7985252" lon="49.1453344"><time>2023-01-15T08:18:10.250</time></trkpt><trkpt lat="55.7985148" lon="49.1453333"><time>2023-01-15T08:18:11.227</time></trkpt><trkpt lat="55.7984635" lon="49.1453335"><time>2023-01-15T08:18:24.227</time></trkpt><trkpt lat="55.7984149" lon="49.1453166"><time>2023-01-15T08:18:29.227</time></trkpt><trkpt lat="55.7983687" lon="49.1453084"><time>2023-01-15T08:18:37.233</time></trkpt><trkpt lat="55.7983235" lon="49.1453146"><time>2023-01-15T08:18:45.233</time></trkpt><trkpt lat="55.7982730" lon="49.1453036"><time>2023-01-15T08:18:50.227</time></trkpt><trkpt lat="55.7982222" lon="49.1452654"><time>2023-01-15T08:18:57.240</time></trkpt><trkpt lat="55.7982222" lon="49.1452654"><time>2023-01-15T08:18:57.283</time></trkpt><trkpt lat="55.7981792" lon="49.1452349"><time>2023-01-15T08:19:02.243</time></trkpt><trkpt lat="55.7981768" lon="49.1452332"><time>2023-01-15T08:19:03.230</time></trkpt><trkpt lat="55.7981333" lon="49.1451839"><time>2023-01-15T08:19:20.230</time></trkpt><trkpt lat="55.7981748" lon="49.1452230"><time>2023-01-15T08:19:44.217</time></trkpt><trkpt lat="55.7982294" lon="49.1452644"><time>2023-01-15T08:19:49.223</time></trkpt><trkpt lat="55.7982820" lon="49.1453028"><time>2023-01-15T08:19:53.227</time></trkpt><trkpt lat="55.7983223" lon="49.1453458"><time>2023-01-15T08:20:20.230</time></trkpt><trkpt lat="55.7983739" lon="49.1453563"><time>2023-01-15T08:20:25.230</time></trkpt><trkpt lat="55.7984268" lon="49.1453617"><time>2023-01-15T08:20:30.230</time></trkpt><trkpt lat="55.7984875" lon="49.1453604"><time>2023-01-15T08:20:33.243</time></trkpt><trkpt lat="55.7985047" lon="49.1453612"><time>2023-01-15T08:20:34.230</time></trkpt><trkpt lat="55.7985664" lon="49.1453871"><time>2023-01-15T08:20:37.230</time></trkpt><trkpt lat="55.7986219" lon="49.1453941"><time>2023-01-15T08:20:40.227</time></trkpt><trkpt lat="55.7986770" lon="49.1453973"><time>2023-01-15T08:20:43.233</time></trkpt><trkpt lat="55.7987374" lon="49.1453859"><time>2023-01-15T08:20:47.230</time></trkpt><trkpt lat="55.7987842" lon="49.1453726"><time>2023-01-15T08:20:50.227</time></trkpt><trkpt lat="55.7988316" lon="49.1453654"><time>2023-01-15T08:20:53.227</time></trkpt><trkpt lat="55.7988789" lon="49.1453750"><time>2023-01-15T08:20:57.230</time></trkpt><trkpt lat="55.7989337" lon="49.1453791"><time>2023-01-15T08:21:01.233</time></trkpt><trkpt lat="55.7989840" lon="49.1453887"><time>2023-01-15T08:21:04.227</time></trkpt><trkpt lat="55.7990362" lon="49.1453876"><time>2023-01-15T08:21:07.227</time></trkpt><trkpt lat="55.7991001" lon="49.1453731"><time>2023-01-15T08:21:10.233</time></trkpt><trkpt lat="55.7991453" lon="49.1453766"><time>2023-01-15T08:21:12.227</time></trkpt><trkpt lat="55.7991942" lon="49.1453706"><time>2023-01-15T08:21:14.230</time></trkpt><trkpt lat="55.7992601" lon="49.1453498"><time>2023-01-15T08:21:17.227</time></trkpt><trkpt lat="55.7993165" lon="49.1453365"><time>2023-01-15T08:21:20.227</time></trkpt><trkpt lat="55.7993692" lon="49.1453216"><time>2023-01-15T08:21:23.227</time></trkpt><trkpt lat="55.7994268" lon="49.1453188"><time>2023-01-15T08:21:27.230</time></trkpt><trkpt lat="55.7994720" lon="49.1453006"><time>2023-01-15T08:21:31.230</time></trkpt><trkpt lat="55.7995199" lon="49.1452825"><time>2023-01-15T08:21:35.227</time></trkpt><trkpt lat="55.7995640" lon="49.1452668"><time>2023-01-15T08:21:38.223</time></trkpt><trkpt lat="55.7996126" lon="49.1452358"><time>2023-01-15T08:21:42.243</time></trkpt><trkpt lat="55.7996259" lon="49.1452269"><time>2023-01-15T08:21:43.230</time></trkpt><trkpt lat="55.7996836" lon="49.1452250"><time>2023-01-15T08:21:46.230</time></trkpt><trkpt lat="55.7997340" lon="49.1452201"><time>2023-01-15T08:21:49.230</time></trkpt><trkpt lat="55.7997883" lon="49.1452112"><time>2023-01-15T08:21:53.227</time></trkpt><trkpt lat="55.7998348" lon="49.1452019"><time>2023-01-15T08:21:56.243</time></trkpt><trkpt lat="55.7998488" lon="49.1451969"><time>2023-01-15T08:21:57.230</time></trkpt><trkpt lat="55.7998941" lon="49.1451889"><time>2023-01-15T08:22:02.230</time></trkpt><trkpt lat="55.7999363" lon="49.1451571"><time>2023-01-15T08:22:06.227</time></trkpt><trkpt lat="55.7999874" lon="49.1451225"><time>2023-01-15T08:22:10.230</time></trkpt><trkpt lat="55.8000495" lon="49.1450713"><time>2023-01-15T08:22:13.223</time></trkpt><trkpt lat="55.8000924" lon="49.1450272"><time>2023-01-15T08:22:16.230</time></trkpt><trkpt lat="55.8001403" lon="49.1449666"><time>2023-01-15T08:22:19.223</time></trkpt><trkpt lat="55.8001808" lon="49.1449305"><time>2023-01-15T08:22:21.230</time></trkpt><trkpt lat="55.8002325" lon="49.1448938"><time>2023-01-15T08:22:23.233</time></trkpt><trkpt lat="55.8002930" lon="49.1448539"><time>2023-01-15T08:22:25.230</time></trkpt><trkpt lat="55.8003414" lon="49.1448559"><time>2023-01-15T08:22:29.233</time></trkpt><trkpt lat="55.8004039" lon="49.1448400"><time>2023-01-15T08:22:35.230</time></trkpt><trkpt lat="55.8004539" lon="49.1448404"><time>2023-01-15T08:22:40.227</time></trkpt><trkpt lat="55.8005039" lon="49.1448890"><time>2023-01-15T08:22:44.233</time></trkpt><trkpt lat="55.8005585" lon="49.1449061"><time>2023-01-15T08:22:48.230</time></trkpt><trkpt lat="55.8006091" lon="49.1449027"><time>2023-01-15T08:22:53.230</time></trkpt><trkpt lat="55.8006567" lon="49.1449138"><time>2023-01-15T08:22:58.230</time></trkpt><trkpt lat="55.8007015" lon="49.1449315"><time>2023-01-15T08:23:01.233</time></trkpt><trkpt lat="55.8007504" lon="49.1449554"><time>2023-01-15T08:23:05.237</time></trkpt><trkpt lat="55.8007807" lon="49.1450334"><time>2023-01-15T08:23:09.233</time></trkpt><trkpt lat="55.8007958" lon="49.1451192"><time>2023-01-15T08:23:12.230</time></trkpt><trkpt lat="55.8008375" lon="49.1452098"><time>2023-01-15T08:23:15.227</time></trkpt><trkpt lat="55.8008627" lon="49.1452982"><time>2023-01-15T08:23:18.230</time></trkpt><trkpt lat="55.8008910" lon="49.1453727"><time>2023-01-15T08:23:22.227</time></trkpt><trkpt lat="55.8009157" lon="49.1454405"><time>2023-01-15T08:23:26.230</time></trkpt><trkpt lat="55.8009351" lon="49.1455188"><time>2023-01-15T08:23:30.230</time></trkpt><trkpt lat="55.8009848" lon="49.1455433"><time>2023-01-15T08:23:35.227</time></trkpt><trkpt lat="55.8010355" lon="49.1455535"><time>2023-01-15T08:23:38.240</time></trkpt><trkpt lat="55.8010765" lon="49.1456272"><time>2023-01-15T08:23:41.223</time></trkpt><trkpt lat="55.8010934" lon="49.1457058"><time>2023-01-15T08:23:45.223</time></trkpt><trkpt lat="55.8011162" lon="49.1457943"><time>2023-01-15T08:23:50.237</time></trkpt><trkpt lat="55.8011339" lon="49.1458736"><time>2023-01-15T08:23:53.227</time></trkpt><trkpt lat="55.8011519" lon="49.1459570"><time>2023-01-15T08:23:56.227</time></trkpt><trkpt lat="55.8011778" lon="49.1460374"><time>2023-01-15T08:23:59.223</time></trkpt><trkpt lat="55.8011964" lon="49.1461141"><time>2023-01-15T08:24:02.230</time></trkpt><trkpt lat="55.8012300" lon="49.1461844"><time>2023-01-15T08:24:05.227</time></trkpt><trkpt lat="55.8012437" lon="49.1462769"><time>2023-01-15T08:24:10.230</time></trkpt><trkpt lat="55.8012572" lon="49.1463780"><time>2023-01-15T08:24:13.240</time></trkpt><trkpt lat="55.8012793" lon="49.1464826"><time>2023-01-15T08:24:16.230</time></trkpt><trkpt lat="55.8012876" lon="49.1465685"><time>2023-01-15T08:24:18.237</time></trkpt><trkpt lat="55.8012945" lon="49.1466137"><time>2023-01-15T08:24:19.227</time></trkpt><trkpt lat="55.8013081" lon="49.1466975"><time>2023-01-15T08:24:21.230</time></trkpt><trkpt lat="55.8013356" lon="49.1467952"><time>2023-01-15T08:24:24.227</time></trkpt><trkpt lat="55.8013247" lon="49.1468876"><time>2023-01-15T08:24:28.233</time></trkpt><trkpt lat="55.8012750" lon="49.1469209"><time>2023-01-15T08:24:32.227</time></trkpt><trkpt lat="55.8012269" lon="49.1469972"><time>2023-01-15T08:24:35.230</time></trkpt><trkpt lat="55.8011828" lon="49.1470800"><time>2023-01-15T08:24:38.230</time></trkpt><trkpt lat="55.8011390" lon="49.1471095"><time>2023-01-15T08:24:41.230</time></trkpt><trkpt lat="55.8010881" lon="49.1471460"><time>2023-01-15T08:24:45.227</time></trkpt><trkpt lat="55.8010436" lon="49.1471977"><time>2023-01-15T08:24:51.240</time></trkpt><trkpt lat="55.8010364" lon="49.1472084"><time>2023-01-15T08:24:52.227</time></trkpt><trkpt lat="55.8010027" lon="49.1472678"><time>2023-01-15T08:24:58.227</time></trkpt><trkpt lat="55.8009681" lon="49.1473322"><time>2023-01-15T08:25:03.233</time></trkpt><trkpt lat="55.8009249" lon="49.1473714"><time>2023-01-15T08:25:20.230</time></trkpt><trkpt lat="55.8008869" lon="49.1474218"><time>2023-01-15T08:25:31.233</time></trkpt><trkpt lat="55.8008504" lon="49.1474768"><time>2023-01-15T08:25:38.233</time></trkpt><trkpt lat="55.8008194" lon="49.1475355"><time>2023-01-15T08:25:46.233</time></trkpt><trkpt lat="55.8007938" lon="49.1476046"><time>2023-01-15T08:26:00.237</time></trkpt><trkpt lat="55.8007938" lon="49.1476046"><time>2023-01-15T08:26:00.280</time></trkpt><trkpt lat="55.8007998" lon="49.1476889"><time>2023-01-15T08:26:16.243</time></trkpt><trkpt lat="55.8008016" lon="49.1476949"><time>2023-01-15T08:26:17.233</time></trkpt><trkpt lat="55.8008129" lon="49.1477897"><time>2023-01-15T08:26:42.230</time></trkpt><trkpt lat="55.8008031" lon="49.1478725"><time>2023-01-15T08:26:50.230</time></trkpt><trkpt lat="55.8007689" lon="49.1479301"><time>2023-01-15T08:27:15.233</time></trkpt><trkpt lat="55.8007247" lon="49.1479460"><time>2023-01-15T08:27:20.230</time></trkpt><trkpt lat="55.8006752" lon="49.1479540"><time>2023-01-15T08:27:27.233</time></trkpt><trkpt lat="55.8006344" lon="49.1480103"><time>2023-01-15T08:27:32.230</time></trkpt><trkpt lat="55.8005889" lon="49.1480357"><time>2023-01-15T08:27:36.230</time></trkpt><trkpt lat="55.8005377" lon="49.1480487"><time>2023-01-15T08:27:40.230</time></trkpt><trkpt lat="55.8004910" lon="49.1480556"><time>2023-01-15T08:27:43.233</time></trkpt><trkpt lat="55.8004443" lon="49.1480683"><time>2023-01-15T08:27:46.227</time></trkpt><trkpt lat="55.8003898" lon="49.1480609"><time>2023-01-15T08:27:50.230</time></trkpt><trkpt lat="55.8003402" lon="49.1480553"><time>2023-01-15T08:27:54.227</time></trkpt><trkpt lat="55.8002944" lon="49.1480467"><time>2023-01-15T08:27:57.233</time></trkpt><trkpt lat="55.8002463" lon="49.1480359"><time>2023-01-15T08:28:00.237</time></trkpt><trkpt lat="55.8001970" lon="49.1480189"><time>2023-01-15T08:28:03.230</time></trkpt><trkpt lat="55.8001414" lon="49.1479869"><time>2023-01-15T08:28:07.237</time></trkpt><trkpt lat="55.8000854" lon="49.1479566"><time>2023-01-15T08:28:10.247</time></trkpt><trkpt lat="55.8000705" lon="49.1479504"><time>2023-01-15T08:28:11.237</time></trkpt><trkpt lat="55.8000216" lon="49.1479432"><time>2023-01-15T08:28:14.230</time></trkpt><trkpt lat="55.7999690" lon="49.1479202"><time>2023-01-15T08:28:17.237</time></trkpt><trkpt lat="55.7999163" lon="49.1479521"><time>2023-01-15T08:28:21.233</time></trkpt><trkpt lat="55.7998679" lon="49.1479868"><time>2023-01-15T08:28:25.233</time></trkpt><trkpt lat="55.7998161" lon="49.1480053"><time>2023-01-15T08:28:28.230</time></trkpt><trkpt lat="55.7997676" lon="49.1480048"><time>2023-01-15T08:28:30.233</time></trkpt><trkpt lat="55.7997211" lon="49.1480006"><time>2023-01-15T08:28:32.233</time></trkpt><trkpt lat="55.7996633" lon="49.1480267"><time>2023-01-15T08:28:35.240</time></trkpt><trkpt lat="55.7996161" lon="49.1480362"><time>2023-01-15T08:28:38.243</time></trkpt><trkpt lat="55.7996009" lon="49.1480362"><time>2023-01-15T08:28:39.233</time></trkpt><trkpt lat="55.7995546" lon="49.1480193"><time>2023-01-15T08:28:43.233</time></trkpt><trkpt lat="55.7995068" lon="49.1479972"><time>2023-01-15T08:28:52.233</time></trkpt><trkpt lat="55.7994588" lon="49.1479953"><time>2023-01-15T08:28:57.227</time></trkpt><trkpt lat="55.7994701" lon="49.1480765"><time>2023-01-15T08:29:05.230</time></trkpt><trkpt lat="55.7995086" lon="49.1481450"><time>2023-01-15T08:29:10.233</time></trkpt><trkpt lat="55.7995494" lon="49.1481961"><time>2023-01-15T08:29:14.223</time></trkpt><trkpt lat="55.7995825" lon="49.1482546"><time>2023-01-15T08:29:19.247</time></trkpt><trkpt lat="55.7995848" lon="49.1482794"><time>2023-01-15T08:29:20.227</time></trkpt><trkpt lat="55.7996003" lon="49.1483606"><time>2023-01-15T08:29:29.233</time></trkpt><trkpt lat="55.7996346" lon="49.1484164"><time>2023-01-15T08:29:34.230</time></trkpt><trkpt lat="55.7996851" lon="49.1484623"><time>2023-01-15T08:29:38.233</time></trkpt><trkpt lat="55.7997361" lon="49.1484922"><time>2023-01-15T08:29:42.233</time></trkpt><trkpt lat="55.7997829" lon="49.1485516"><time>2023-01-15T08:29:55.237</time></trkpt><trkpt lat="55.7997829" lon="49.1485516"><time>2023-01-15T08:29:55.293</time></trkpt><trkpt lat="55.7998235" lon="49.1485948"><time>2023-01-15T08:30:00.243</time></trkpt><trkpt lat="55.7998339" lon="49.1486027"><time>2023-01-15T08:30:01.230</time></trkpt><trkpt lat="55.7998868" lon="49.1486274"><time>2023-01-15T08:30:06.233</time></trkpt><trkpt lat="55.7999411" lon="49.1486637"><time>2023-01-15T08:30:10.230</time></trkpt><trkpt lat="55.7999844" lon="49.1486855"><time>2023-01-15T08:30:13.233</time></trkpt><trkpt lat="55.8000304" lon="49.1486988"><time>2023-01-15T08:30:17.233</time></trkpt><trkpt lat="55.8000860" lon="49.1487028"><time>2023-01-15T08:30:21.230</time></trkpt><trkpt lat="55.8001399" lon="49.1487283"><time>2023-01-15T08:30:24.230</time></trkpt><trkpt lat="55.8002016" lon="49.1487379"><time>2023-01-15T08:30:27.237</time></trkpt><trkpt lat="55.8002477" lon="49.1487463"><time>2023-01-15T08:30:29.233</time></trkpt><trkpt lat="55.8003084" lon="49.1487711"><time>2023-01-15T08:30:32.243</time></trkpt><trkpt lat="55.8003286" lon="49.1487771"><time>2023-01-15T08:30:33.237</time></trkpt><trkpt lat="55.8003809" lon="49.1487850"><time>2023-01-15T08:30:35.240</time></trkpt><trkpt lat="55.8004347" lon="49.1487818"><time>2023-01-15T08:30:38.230</time></trkpt><trkpt lat="55.8004820" lon="49.1487824"><time>2023-01-15T08:30:41.240</time></trkpt><trkpt lat="55.8005424" lon="49.1487872"><time>2023-01-15T08:30:44.230</time></trkpt><trkpt lat="55.8005932" lon="49.1487865"><time>2023-01-15T08:30:47.233</time></trkpt><trkpt lat="55.8006413" lon="49.1487981"><time>2023-01-15T08:30:51.233</time></trkpt><trkpt lat="55.8006937" lon="49.1487682"><time>2023-01-15T08:30:54.233</time></trkpt><trkpt lat="55.8007288" lon="49.1488424"><time>2023-01-15T08:30:57.240</time></trkpt><trkpt lat="55.8007750" lon="49.1488672"><time>2023-01-15T08:31:02.247</time></trkpt><trkpt lat="55.8007842" lon="49.1488536"><time>2023-01-15T08:31:03.230</time></trkpt><trkpt lat="55.8007183" lon="49.1488323"><time>2023-01-15T08:31:05.237</time></trkpt><trkpt lat="55.8007228" lon="49.1488490"><time>2023-01-15T08:31:06.227</time></trkpt><trkpt lat="55.8007652" lon="49.1488069"><time>2023-01-15T08:31:17.253</time></trkpt><trkpt lat="55.8007731" lon="49.1487868"><time>2023-01-15T08:31:18.233</time></trkpt><trkpt lat="55.8008095" lon="49.1487201"><time>2023-01-15T08:31:21.230</time></trkpt><trkpt lat="55.8008538" lon="49.1486396"><time>2023-01-15T08:31:24.233</time></trkpt><trkpt lat="55.8008987" lon="49.1485898"><time>2023-01-15T08:31:27.230</time></trkpt><trkpt lat="55.8009380" lon="49.1485463"><time>2023-01-15T08:31:29.233</time></trkpt><trkpt lat="55.8009864" lon="49.1485086"><time>2023-01-15T08:31:34.233</time></trkpt><trkpt lat="55.8010394" lon="49.1485246"><time>2023-01-15T08:31:38.233</time></trkpt><trkpt lat="55.8010518" lon="49.1486022"><time>2023-01-15T08:31:44.230</time></trkpt><trkpt lat="55.8010458" lon="49.1486839"><time>2023-01-15T08:31:48.230</time></trkpt><trkpt lat="55.8010716" lon="49.1487537"><time>2023-01-15T08:31:55.237</time></trkpt><trkpt lat="55.8011180" lon="49.1486978"><time>2023-01-15T08:31:59.233</time></trkpt><trkpt lat="55.8011639" lon="49.1487289"><time>2023-01-15T08:32:05.230</time></trkpt><trkpt lat="55.8012116" lon="49.1487490"><time>2023-01-15T08:32:09.240</time></trkpt><trkpt lat="55.8012410" lon="49.1488106"><time>2023-01-15T08:32:13.237</time></trkpt><trkpt lat="55.8012463" lon="49.1489038"><time>2023-01-15T08:32:18.237</time></trkpt><trkpt lat="55.8012463" lon="49.1489038"><time>2023-01-15T08:32:18.293</time></trkpt><trkpt lat="55.8012384" lon="49.1489837"><time>2023-01-15T08:32:23.260</time></trkpt><trkpt lat="55.8012349" lon="49.1489622"><time>2023-01-15T08:32:24.227</time></trkpt><trkpt lat="55.8012092" lon="49.1490283"><time>2023-01-15T08:32:45.237</time></trkpt><trkpt lat="55.8011619" lon="49.1490768"><time>2023-01-15T08:33:00.230</time></trkpt><trkpt lat="55.8011069" lon="49.1490912"><time>2023-01-15T08:33:12.233</time></trkpt><trkpt lat="55.8010832" lon="49.1491621"><time>2023-01-15T08:33:18.233</time></trkpt><trkpt lat="55.8011161" lon="49.1492273"><time>2023-01-15T08:33:39.233</time></trkpt><trkpt lat="55.8011609" lon="49.1492160"><time>2023-01-15T08:33:46.227</time></trkpt><trkpt lat="55.8011989" lon="49.1492712"><time>2023-01-15T08:33:55.233</time></trkpt><trkpt lat="55.8011541" lon="49.1493076"><time>2023-01-15T08:34:07.230</time></trkpt><trkpt lat="55.8011130" lon="49.1493427"><time>2023-01-15T08:34:11.237</time></trkpt><trkpt lat="55.8010661" lon="49.1493654"><time>2023-01-15T08:34:17.237</time></trkpt><trkpt lat="55.8010282" lon="49.1494104"><time>2023-01-15T08:34:23.233</time></trkpt><trkpt lat="55.8009738" lon="49.1494327"><time>2023-01-15T08:34:29.230</time></trkpt><trkpt lat="55.8009255" lon="49.1494797"><time>2023-01-15T08:34:35.233</time></trkpt><trkpt lat="55.8008870" lon="49.1495272"><time>2023-01-15T08:34:38.230</time></trkpt><trkpt lat="55.8008481" lon="49.1495753"><time>2023-01-15T08:34:57.227</time></trkpt><trkpt lat="55.8008146" lon="49.1496472"><time>2023-01-15T08:35:04.237</time></trkpt><trkpt lat="55.8007836" lon="49.1497212"><time>2023-01-15T08:35:10.230</time></trkpt><trkpt lat="55.8007583" lon="49.1497933"><time>2023-01-15T08:35:15.237</time></trkpt><trkpt lat="55.8007261" lon="49.1498726"><time>2023-01-15T08:35:20.230</time></trkpt><trkpt lat="55.8007040" lon="49.1499685"><time>2023-01-15T08:35:23.247</time></trkpt><trkpt lat="55.8006963" lon="49.1500026"><time>2023-01-15T08:35:24.230</time></trkpt><trkpt lat="55.8006866" lon="49.1500895"><time>2023-01-15T08:35:27.233</time></trkpt><trkpt lat="55.8006789" lon="49.1501830"><time>2023-01-15T08:35:30.237</time></trkpt><trkpt lat="55.8006692" lon="49.1502760"><time>2023-01-15T08:35:33.230</time></trkpt><trkpt lat="55.8006596" lon="49.1503617"><time>2023-01-15T08:35:36.233</time></trkpt><trkpt lat="55.8006175" lon="49.1504277"><time>2023-01-15T08:35:40.237</time></trkpt><trkpt lat="55.8005693" lon="49.1504455"><time>2023-01-15T08:35:43.240</time></trkpt><trkpt lat="55.8005247" lon="49.1504885"><time>2023-01-15T08:35:46.237</time></trkpt><trkpt lat="55.8004829" lon="49.1505335"><time>2023-01-15T08:35:49.237</time></trkpt><trkpt lat="55.8004393" lon="49.1505828"><time>2023-01-15T08:35:52.250</time></trkpt><trkpt lat="55.8004264" lon="49.1505941"><time>2023-01-15T08:35:53.237</time></trkpt><trkpt lat="55.8003850" lon="49.1506427"><time>2023-01-15T08:35:56.237</time></trkpt><trkpt lat="55.8003406" lon="49.1506876"><time>2023-01-15T08:35:59.230</time></trkpt><trkpt lat="55.8002971" lon="49.1507220"><time>2023-01-15T08:36:02.237</time></trkpt><trkpt lat="55.8002516" lon="49.1507231"><time>2023-01-15T08:36:05.230</time></trkpt><trkpt lat="55.8002095" lon="49.1506736"><time>2023-01-15T08:36:08.233</time></trkpt><trkpt lat="55.8001723" lon="49.1506217"><time>2023-01-15T08:36:11.230</time></trkpt><trkpt lat="55.8001264" lon="49.1505815"><time>2023-01-15T08:36:14.257</time></trkpt><trkpt lat="55.8001096" lon="49.1505783"><time>2023-01-15T08:36:15.233</time></trkpt><trkpt lat="55.8000796" lon="49.1506383"><time>2023-01-15T08:36:18.227</time></trkpt><trkpt lat="55.8000890" lon="49.1507337"><time>2023-01-15T08:36:21.247</time></trkpt><trkpt lat="55.8000959" lon="49.1507613"><time>2023-01-15T08:36:22.227</time></trkpt><trkpt lat="55.8001293" lon="49.1508305"><time>2023-01-15T08:36:25.237</time></trkpt><trkpt lat="55.8001640" lon="49.1509034"><time>2023-01-15T08:36:28.233</time></trkpt><trkpt lat="55.8001914" lon="49.1509863"><time>2023-01-15T08:36:31.237</time></trkpt><trkpt lat="55.8002275" lon="49.1510404"><time>2023-01-15T08:36:43.237</time></trkpt><trkpt lat="55.8002519" lon="49.1511146"><time>2023-01-15T08:36:46.243</time></trkpt><trkpt lat="55.8002519" lon="49.1511146"><time>2023-01-15T08:36:46.293</time></trkpt><trkpt lat="55.8002541" lon="49.1511958"><time>2023-01-15T08:36:49.250</time></trkpt><trkpt lat="55.8002505" lon="49.1512124"><time>2023-01-15T08:36:50.227</time></trkpt><trkpt lat="55.8002824" lon="49.1512881"><time>2023-01-15T08:37:00.230</time></trkpt><trkpt lat="55.8003364" lon="49.1512936"><time>2023-01-15T08:37:04.243</time></trkpt><trkpt lat="55.8003650" lon="49.1513646"><time>2023-01-15T08:37:09.237</time></trkpt><trkpt lat="55.8004116" lon="49.1513712"><time>2023-01-15T08:37:13.237</time></trkpt><trkpt lat="55.8003575" lon="49.1513745"><time>2023-01-15T08:37:23.237</time></trkpt><trkpt lat="55.8003025" lon="49.1513817"><time>2023-01-15T08:37:26.237</time></trkpt><trkpt lat="55.8002761" lon="49.1512947"><time>2023-01-15T08:37:29.237</time></trkpt><trkpt lat="55.8002372" lon="49.1512369"><time>2023-01-15T08:37:32.237</time></trkpt><trkpt lat="55.8002281" lon="49.1511488"><time>2023-01-15T08:37:36.237</time></trkpt><trkpt lat="55.8002125" lon="49.1510702"><time>2023-01-15T08:37:40.230</time></trkpt><trkpt lat="55.8002067" lon="49.1509849"><time>2023-01-15T08:37:44.230</time></trkpt><trkpt lat="55.8001842" lon="49.1509082"><time>2023-01-15T08:37:48.233</time></trkpt><trkpt lat="55.8001542" lon="49.1508466"><time>2023-01-15T08:37:52.233</time></trkpt><trkpt lat="55.8001231" lon="49.1507748"><time>2023-01-15T08:37:56.233</time></trkpt><trkpt lat="55.8001079" lon="49.1506767"><time>2023-01-15T08:38:00.230</time></trkpt><trkpt lat="55.8000840" lon="49.1505970"><time>2023-01-15T08:38:04.233</time></trkpt><trkpt lat="55.8000469" lon="49.1505313"><time>2023-01-15T08:38:08.240</time></trkpt><trkpt lat="55.8000119" lon="49.1504810"><time>2023-01-15T08:38:11.243</time></trkpt><trkpt lat="55.7999772" lon="49.1504249"><time>2023-01-15T08:38:14.227</time></trkpt><trkpt lat="55.7999420" lon="49.1503482"><time>2023-01-15T08:38:18.230</time></trkpt><trkpt lat="55.7999006" lon="49.1502923"><time>2023-01-15T08:38:22.230</time></trkpt><trkpt lat="55.7998491" lon="49.1502363"><time>2023-01-15T08:38:26.233</time></trkpt><trkpt lat="55.7997883" lon="49.1502154"><time>2023-01-15T08:38:29.237</time></trkpt><trkpt lat="55.7997394" lon="49.1502044"><time>2023-01-15T08:38:32.250</time></trkpt><trkpt lat="55.7997226" lon="49.1501974"><time>2023-01-15T08:38:33.230</time></trkpt><trkpt lat="55.7996748" lon="49.1501711"><time>2023-01-15T08:38:36.233</time></trkpt><trkpt lat="55.7996097" lon="49.1501768"><time>2023-01-15T08:38:39.230</time></trkpt><trkpt lat="55.7995409" lon="49.1501672"><time>2023-01-15T08:38:42.237</time></trkpt><trkpt lat="55.7994843" lon="49.1501639"><time>2023-01-15T08:38:44.230</time></trkpt><trkpt lat="55.7994233" lon="49.1501724"><time>2023-01-15T08:38:46.237</time></trkpt><trkpt lat="55.7993600" lon="49.1501653"><time>2023-01-15T08:38:48.233</time></trkpt><trkpt lat="55.7993104" lon="49.1501491"><time>2023-01-15T08:38:50.250</time></trkpt><trkpt lat="55.7992927" lon="49.1501405"><time>2023-01-15T08:38:51.233</time></trkpt><trkpt lat="55.7992411" lon="49.1501397"><time>2023-01-15T08:38:54.237</time></trkpt><trkpt lat="55.7991859" lon="49.1501262"><time>2023-01-15T08:38:57.237</time></trkpt><trkpt lat="55.7991368" lon="49.1501305"><time>2023-01-15T08:39:00.227</time></trkpt><trkpt lat="55.7990894" lon="49.1501269"><time>2023-01-15T08:39:03.237</time></trkpt><trkpt lat="55.7990334" lon="49.1501132"><time>2023-01-15T08:39:07.230</time></trkpt><trkpt lat="55.7990079" lon="49.1500329"><time>2023-01-15T08:39:11.243</time></trkpt><trkpt lat="55.7990079" lon="49.1500329"><time>2023-01-15T08:39:11.287</time></trkpt><trkpt lat="55.7989604" lon="49.1499838"><time>2023-01-15T08:39:15.250</time></trkpt><trkpt lat="55.7989525" lon="49.1500064"><time>2023-01-15T08:39:16.237</time></trkpt><trkpt lat="55.7989382" lon="49.1500826"><time>2023-01-15T08:39:20.233</time></trkpt><trkpt lat="55.7989029" lon="49.1501672"><time>2023-01-15T08:39:24.233</time></trkpt><trkpt lat="55.7988564" lon="49.1502293"><time>2023-01-15T08:39:28.230</time></trkpt><trkpt lat="55.7988120" lon="49.1502856"><time>2023-01-15T08:39:32.233</time></trkpt><trkpt lat="55.7987718" lon="49.1503567"><time>2023-01-15T08:39:36.237</time></trkpt><trkpt lat="55.7987226" lon="49.1504138"><time>2023-01-15T08:39:40.230</time></trkpt><trkpt lat="55.7986802" lon="49.1504774"><time>2023-01-15T08:39:44.233</time></trkpt><trkpt lat="55.7986421" lon="49.1505589"><time>2023-01-15T08:39:48.237</time></trkpt><trkpt lat="55.7986166" lon="49.1506514"><time>2023-01-15T08:39:52.230</time></trkpt><trkpt lat="55.7985969" lon="49.1507420"><time>2023-01-15T08:39:56.227</time></trkpt><trkpt lat="55.7985663" lon="49.1508087"><time>2023-01-15T08:39:59.243</time></trkpt><trkpt lat="55.7985400" lon="49.1509185"><time>2023-01-15T08:40:02.233</time></trkpt><trkpt lat="55.7985010" lon="49.1509762"><time>2023-01-15T08:40:04.230</time></trkpt><trkpt lat="55.7984546" lon="49.1510073"><time>2023-01-15T08:40:06.240</time></trkpt><trkpt lat="55.7984072" lon="49.1510455"><time>2023-01-15T08:40:08.243</time></trkpt><trkpt lat="55.7983604" lon="49.1510843"><time>2023-01-15T08:40:10.237</time></trkpt><trkpt lat="55.7982988" lon="49.1511404"><time>2023-01-15T08:40:13.230</time></trkpt><trkpt lat="55.7982480" lon="49.1511817"><time>2023-01-15T08:40:16.233</time></trkpt><trkpt lat="55.7982195" lon="49.1512630"><time>2023-01-15T08:40:19.230</time></trkpt><trkpt lat="55.7982193" lon="49.1513456"><time>2023-01-15T08:40:23.237</time></trkpt><trkpt lat="55.7981512" lon="49.1514211"><time>2023-01-15T08:40:29.237</time></trkpt><trkpt lat="55.7981089" lon="49.1515175"><time>2023-01-15T08:40:31.230</time></trkpt><trkpt lat="55.7981620" lon="49.1515895"><time>2023-01-15T08:40:32.243</time></trkpt><trkpt lat="55.7982171" lon="49.1516499"><time>2023-01-15T08:40:34.237</time></trkpt><trkpt lat="55.7982491" lon="49.1517119"><time>2023-01-15T08:40:36.247</time></trkpt><trkpt lat="55.7982727" lon="49.1517957"><time>2023-01-15T08:40:39.270</time></trkpt><trkpt lat="55.7982962" lon="49.1517742"><time>2023-01-15T08:40:40.403</time></trkpt><trkpt lat="55.7983151" lon="49.1518721"><time>2023-01-15T08:40:43.227</time></trkpt><trkpt lat="55.7983251" lon="49.1519735"><time>2023-01-15T08:40:45.230</time></trkpt><trkpt lat="55.7983310" lon="49.1520574"><time>2023-01-15T08:40:47.233</time></trkpt><trkpt lat="55.7983360" lon="49.1521431"><time>2023-01-15T08:40:49.230</time></trkpt><trkpt lat="55.7983300" lon="49.1522397"><time>2023-01-15T08:40:51.233</time></trkpt><trkpt lat="55.7983057" lon="49.1523332"><time>2023-01-15T08:40:53.237</time></trkpt><trkpt lat="55.7982851" lon="49.1524129"><time>2023-01-15T08:40:55.233</time></trkpt><trkpt lat="55.7982795" lon="49.1525247"><time>2023-01-15T08:40:59.230</time></trkpt><trkpt lat="55.7982786" lon="49.1526234"><time>2023-01-15T08:41:02.230</time></trkpt><trkpt lat="55.7982762" lon="49.1527245"><time>2023-01-15T08:41:05.267</time></trkpt><trkpt lat="55.7982977" lon="49.1526892"><time>2023-01-15T08:41:06.377</time></trkpt><trkpt lat="55.7982977" lon="49.1527002"><time>2023-01-15T08:41:07.557</time></trkpt><trkpt lat="55.7982862" lon="49.1527799"><time>2023-01-15T08:41:09.280</time></trkpt><trkpt lat="55.7982845" lon="49.1527903"><time>2023-01-15T08:41:10.377</time></trkpt><trkpt lat="55.7982739" lon="49.1528822"><time>2023-01-15T08:41:13.227</time></trkpt><trkpt lat="55.7982688" lon="49.1529629"><time>2023-01-15T08:41:16.230</time></trkpt><trkpt lat="55.7982892" lon="49.1530353"><time>2023-01-15T08:41:20.227</time></trkpt><trkpt lat="55.7983090" lon="49.1531149"><time>2023-01-15T08:41:28.227</time></trkpt><trkpt lat="55.7982883" lon="49.1530433"><time>2023-01-15T08:41:33.227</time></trkpt><trkpt lat="55.7983179" lon="49.1531201"><time>2023-01-15T08:41:56.230</time></trkpt><trkpt lat="55.7982931" lon="49.1530292"><time>2023-01-15T08:42:16.253</time></trkpt><trkpt lat="55.7982522" lon="49.1529626"><time>2023-01-15T08:42:20.230</time></trkpt><trkpt lat="55.7982007" lon="49.1529836"><time>2023-01-15T08:42:24.233</time></trkpt><trkpt lat="55.7981360" lon="49.1530003"><time>2023-01-15T08:42:27.237</time></trkpt><trkpt lat="55.7980903" lon="49.1530194"><time>2023-01-15T08:42:29.243</time></trkpt><trkpt lat="55.7980903" lon="49.1530194"><time>2023-01-15T08:42:29.280</time></trkpt><trkpt lat="55.7980359" lon="49.1530452"><time>2023-01-15T08:42:31.250</time></trkpt><trkpt lat="55.7980217" lon="49.1530538"><time>2023-01-15T08:42:32.360</time></trkpt><trkpt lat="55.7979791" lon="49.1530852"><time>2023-01-15T08:42:34.230</time></trkpt><trkpt lat="55.7979314" lon="49.1531339"><time>2023-01-15T08:42:36.233</time></trkpt><trkpt lat="55.7978755" lon="49.1531415"><time>2023-01-15T08:42:39.237</time></trkpt><trkpt lat="55.7978198" lon="49.1531669"><time>2023-01-15T08:42:43.233</time></trkpt><trkpt lat="55.7977727" lon="49.1532034"><time>2023-01-15T08:42:47.227</time></trkpt><trkpt lat="55.7977299" lon="49.1532358"><time>2023-01-15T08:42:50.237</time></trkpt><trkpt lat="55.7976868" lon="49.1532738"><time>2023-01-15T08:42:53.233</time></trkpt><trkpt lat="55.7976339" lon="49.1533068"><time>2023-01-15T08:42:56.237</time></trkpt><trkpt lat="55.7975872" lon="49.1533439"><time>2023-01-15T08:42:59.227</time></trkpt><trkpt lat="55.7975445" lon="49.1533768"><time>2023-01-15T08:43:02.233</time></trkpt><trkpt lat="55.7974925" lon="49.1534050"><time>2023-01-15T08:43:05.233</time></trkpt><trkpt lat="55.7975110" lon="49.1535262"><time>2023-01-15T08:43:10.237</time></trkpt><trkpt lat="55.7974604" lon="49.1535584"><time>2023-01-15T08:43:13.227</time></trkpt><trkpt lat="55.7973818" lon="49.1534479"><time>2023-01-15T08:43:14.230</time></trkpt><trkpt lat="55.7973285" lon="49.1534838"><time>2023-01-15T08:43:18.230</time></trkpt><trkpt lat="55.7972857" lon="49.1535199"><time>2023-01-15T08:43:21.237</time></trkpt><trkpt lat="55.7972375" lon="49.1535619"><time>2023-01-15T08:43:24.233</time></trkpt><trkpt lat="55.7971992" lon="49.1536110"><time>2023-01-15T08:43:27.237</time></trkpt><trkpt lat="55.7971351" lon="49.1536021"><time>2023-01-15T08:43:31.233</time></trkpt><trkpt lat="55.7970852" lon="49.1536365"><time>2023-01-15T08:43:34.237</time></trkpt><trkpt lat="55.7971241" lon="49.1536849"><time>2023-01-15T08:43:45.227</time></trkpt><trkpt lat="55.7971737" lon="49.1536738"><time>2023-01-15T08:43:48.230</time></trkpt><trkpt lat="55.7972328" lon="49.1537056"><time>2023-01-15T08:43:52.227</time></trkpt><trkpt lat="55.7972368" lon="49.1535946"><time>2023-01-15T08:43:55.233</time></trkpt><trkpt lat="55.7971709" lon="49.1535252"><time>2023-01-15T08:44:00.233</time></trkpt><trkpt lat="55.7972132" lon="49.1535658"><time>2023-01-15T08:44:03.247</time></trkpt><trkpt lat="55.7972515" lon="49.1535127"><time>2023-01-15T08:44:08.247</time></trkpt><trkpt lat="55.7973060" lon="49.1534847"><time>2023-01-15T08:44:10.267</time></trkpt><trkpt lat="55.7973576" lon="49.1534588"><time>2023-01-15T08:44:12.243</time></trkpt><trkpt lat="55.7974101" lon="49.1534211"><time>2023-01-15T08:44:14.230</time></trkpt><trkpt lat="55.7974684" lon="49.1533823"><time>2023-01-15T08:44:16.243</time></trkpt><trkpt lat="55.7975216" lon="49.1533503"><time>2023-01-15T08:44:18.240</time></trkpt><trkpt lat="55.7975703" lon="49.1533228"><time>2023-01-15T08:44:20.227</time></trkpt><trkpt lat="55.7976240" lon="49.1532929"><time>2023-01-15T08:44:22.233</time></trkpt><trkpt lat="55.7976734" lon="49.1532610"><time>2023-01-15T08:44:24.237</time></trkpt><trkpt lat="55.7977218" lon="49.1532381"><time>2023-01-15T08:44:27.230</time></trkpt><trkpt lat="55.7977687" lon="49.1532077"><time>2023-01-15T08:44:30.230</time></trkpt><trkpt lat="55.7978180" lon="49.1532185"><time>2023-01-15T08:44:33.270</time></trkpt><trkpt lat="55.7978532" lon="49.1532693"><time>2023-01-15T08:44:36.223</time></trkpt><trkpt lat="55.7978969" lon="49.1533205"><time>2023-01-15T08:44:40.240</time></trkpt><trkpt lat="55.7978516" lon="49.1532982"><time>2023-01-15T08:44:55.233</time></trkpt><trkpt lat="55.7978600" lon="49.1532059"><time>2023-01-15T08:45:00.230</time></trkpt><trkpt lat="55.7978482" lon="49.1531237"><time>2023-01-15T08:45:05.230</time></trkpt><trkpt lat="55.7977932" lon="49.1531431"><time>2023-01-15T08:45:09.233</time></trkpt><trkpt lat="55.7977643" lon="49.1530539"><time>2023-01-15T08:45:13.233</time></trkpt><trkpt lat="55.7977296" lon="49.1529786"><time>2023-01-15T08:45:16.230</time></trkpt><trkpt lat="55.7976876" lon="49.1529255"><time>2023-01-15T08:45:19.233</time></trkpt><trkpt lat="55.7976808" lon="49.1529082"><time>2023-01-15T08:45:20.340</time></trkpt><trkpt lat="55.7976430" lon="49.1528043"><time>2023-01-15T08:45:22.227</time></trkpt><trkpt lat="55.7975982" lon="49.1527331"><time>2023-01-15T08:45:25.227</time></trkpt><trkpt lat="55.7975610" lon="49.1526577"><time>2023-01-15T08:45:29.230</time></trkpt><trkpt lat="55.7975404" lon="49.1525713"><time>2023-01-15T08:45:33.227</time></trkpt><trkpt lat="55.7975204" lon="49.1524664"><time>2023-01-15T08:45:37.230</time></trkpt><trkpt lat="55.7975014" lon="49.1523892"><time>2023-01-15T08:45:40.227</time></trkpt><trkpt lat="55.7974693" lon="49.1523253"><time>2023-01-15T08:45:42.227</time></trkpt><trkpt lat="55.7974397" lon="49.1522501"><time>2023-01-15T08:45:44.230</time></trkpt><trkpt lat="55.7974156" lon="49.1521820"><time>2023-01-15T08:45:46.230</time></trkpt><trkpt lat="55.7973900" lon="49.1521050"><time>2023-01-15T08:45:50.230</time></trkpt><trkpt lat="55.7973583" lon="49.1520193"><time>2023-01-15T08:45:54.230</time></trkpt><trkpt lat="55.7973350" lon="49.1519269"><time>2023-01-15T08:45:58.227</time></trkpt><trkpt lat="55.7973175" lon="49.1518531"><time>2023-01-15T08:46:01.227</time></trkpt><trkpt lat="55.7973232" lon="49.1517528"><time>2023-01-15T08:46:05.227</time></trkpt><trkpt lat="55.7973680" lon="49.1517079"><time>2023-01-15T08:46:08.227</time></trkpt><trkpt lat="55.7974152" lon="49.1516721"><time>2023-01-15T08:46:11.227</time></trkpt><trkpt lat="55.7974665" lon="49.1516402"><time>2023-01-15T08:46:13.237</time></trkpt><trkpt lat="55.7975221" lon="49.1515962"><time>2023-01-15T08:46:15.227</time></trkpt><trkpt lat="55.7975736" lon="49.1515613"><time>2023-01-15T08:46:17.227</time></trkpt><trkpt lat="55.7976272" lon="49.1515382"><time>2023-01-15T08:46:19.230</time></trkpt><trkpt lat="55.7976793" lon="49.1515048"><time>2023-01-15T08:46:21.260</time></trkpt><trkpt lat="55.7977226" lon="49.1514399"><time>2023-01-15T08:46:24.227</time></trkpt><trkpt lat="55.7977164" lon="49.1513487"><time>2023-01-15T08:46:26.230</time></trkpt><trkpt lat="55.7976916" lon="49.1512813"><time>2023-01-15T08:46:28.227</time></trkpt><trkpt lat="55.7976614" lon="49.1512038"><time>2023-01-15T08:46:31.230</time></trkpt><trkpt lat="55.7976461" lon="49.1511014"><time>2023-01-15T08:46:35.230</time></trkpt><trkpt lat="55.7976281" lon="49.1510082"><time>2023-01-15T08:46:38.233</time></trkpt><trkpt lat="55.7976023" lon="49.1509360"><time>2023-01-15T08:46:40.230</time></trkpt><trkpt lat="55.7975858" lon="49.1508433"><time>2023-01-15T08:46:42.227</time></trkpt><trkpt lat="55.7975714" lon="49.1507594"><time>2023-01-15T08:46:44.227</time></trkpt><trkpt lat="55.7975556" lon="49.1506737"><time>2023-01-15T08:46:46.233</time></trkpt><trkpt lat="55.7975456" lon="49.1505712"><time>2023-01-15T08:46:48.230</time></trkpt><trkpt lat="55.7975411" lon="49.1504828"><time>2023-01-15T08:46:50.227</time></trkpt><trkpt lat="55.7975400" lon="49.1504008"><time>2023-01-15T08:46:52.230</time></trkpt><trkpt lat="55.7975394" lon="49.1503086"><time>2023-01-15T08:46:55.237</time></trkpt><trkpt lat="55.7975288" lon="49.1502161"><time>2023-01-15T08:46:58.227</time></trkpt><trkpt lat="55.7975488" lon="49.1501302"><time>2023-01-15T08:47:00.230</time></trkpt><trkpt lat="55.7975939" lon="49.1501090"><time>2023-01-15T08:47:02.230</time></trkpt><trkpt lat="55.7976518" lon="49.1500993"><time>2023-01-15T08:47:05.233</time></trkpt><trkpt lat="55.7976864" lon="49.1500362"><time>2023-01-15T08:47:08.233</time></trkpt><trkpt lat="55.7976513" lon="49.1499547"><time>2023-01-15T08:47:11.227</time></trkpt><trkpt lat="55.7976053" lon="49.1498985"><time>2023-01-15T08:47:14.230</time></trkpt><trkpt lat="55.7975564" lon="49.1498561"><time>2023-01-15T08:47:17.247</time></trkpt><trkpt lat="55.7975191" lon="49.1498812"><time>2023-01-15T08:47:18.347</time></trkpt><trkpt lat="55.7974828" lon="49.1498185"><time>2023-01-15T08:47:22.223</time></trkpt><trkpt lat="55.7974464" lon="49.1497413"><time>2023-01-15T08:47:26.230</time></trkpt><trkpt lat="55.7974120" lon="49.1496813"><time>2023-01-15T08:47:29.227</time></trkpt><trkpt lat="55.7973772" lon="49.1496157"><time>2023-01-15T08:47:32.230</time></trkpt><trkpt lat="55.7973347" lon="49.1495510"><time>2023-01-15T08:47:36.227</time></trkpt><trkpt lat="55.7973450" lon="49.1494682"><time>2023-01-15T08:47:40.227</time></trkpt><trkpt lat="55.7973212" lon="49.1495458"><time>2023-01-15T08:47:50.227</time></trkpt><trkpt lat="55.7972680" lon="49.1495609"><time>2023-01-15T08:47:54.227</time></trkpt><trkpt lat="55.7972152" lon="49.1495380"><time>2023-01-15T08:47:58.227</time></trkpt><trkpt lat="55.7971625" lon="49.1495160"><time>2023-01-15T08:48:02.227</time></trkpt><trkpt lat="55.7971196" lon="49.1494913"><time>2023-01-15T08:48:05.227</time></trkpt><trkpt lat="55.7970659" lon="49.1494429"><time>2023-01-15T08:48:09.237</time></trkpt><trkpt lat="55.7969671" lon="49.1493749"><time>2023-01-15T08:48:10.350</time></trkpt><trkpt lat="55.7969313" lon="49.1493085"><time>2023-01-15T08:48:14.223</time></trkpt><trkpt lat="55.7969075" lon="49.1492340"><time>2023-01-15T08:48:18.227</time></trkpt><trkpt lat="55.7969029" lon="49.1491532"><time>2023-01-15T08:48:21.227</time></trkpt><trkpt lat="55.7968962" lon="49.1490332"><time>2023-01-15T08:48:24.227</time></trkpt><trkpt lat="55.7969053" lon="49.1489244"><time>2023-01-15T08:48:26.233</time></trkpt><trkpt lat="55.7969200" lon="49.1488243"><time>2023-01-15T08:48:28.233</time></trkpt><trkpt lat="55.7969200" lon="49.1488243"><time>2023-01-15T08:48:28.270</time></trkpt><trkpt lat="55.7969316" lon="49.1487303"><time>2023-01-15T08:48:31.240</time></trkpt><trkpt lat="55.7969351" lon="49.1486874"><time>2023-01-15T08:48:32.353</time></trkpt><trkpt lat="55.7969591" lon="49.1485867"><time>2023-01-15T08:48:36.227</time></trkpt><trkpt lat="55.7969714" lon="49.1484947"><time>2023-01-15T08:48:40.233</time></trkpt><trkpt lat="55.7969840" lon="49.1483898"><time>2023-01-15T08:48:43.230</time></trkpt><trkpt lat="55.7969859" lon="49.1482830"><time>2023-01-15T08:48:46.227</time></trkpt><trkpt lat="55.7969840" lon="49.1481994"><time>2023-01-15T08:48:48.230</time></trkpt><trkpt lat="55.7969849" lon="49.1480991"><time>2023-01-15T08:48:51.230</time></trkpt><trkpt lat="55.7969942" lon="49.1480160"><time>2023-01-15T08:48:53.227</time></trkpt><trkpt lat="55.7970093" lon="49.1479254"><time>2023-01-15T08:48:55.227</time></trkpt><trkpt lat="55.7970243" lon="49.1478333"><time>2023-01-15T08:48:57.227</time></trkpt><trkpt lat="55.7970411" lon="49.1477499"><time>2023-01-15T08:48:59.227</time></trkpt><trkpt lat="55.7970554" lon="49.1476600"><time>2023-01-15T08:49:01.240</time></trkpt><trkpt lat="55.7970554" lon="49.1476055"><time>2023-01-15T08:49:02.360</time></trkpt><trkpt lat="55.7970720" lon="49.1475005"><time>2023-01-15T08:49:04.227</time></trkpt><trkpt lat="55.7970894" lon="49.1473813"><time>2023-01-15T08:49:07.227</time></trkpt><trkpt lat="55.7971017" lon="49.1472964"><time>2023-01-15T08:49:09.227</time></trkpt><trkpt lat="55.7971165" lon="49.1472102"><time>2023-01-15T08:49:11.230</time></trkpt><trkpt lat="55.7971344" lon="49.1471197"><time>2023-01-15T08:49:13.230</time></trkpt><trkpt lat="55.7971510" lon="49.1470366"><time>2023-01-15T08:49:15.230</time></trkpt><trkpt lat="55.7971681" lon="49.1469588"><time>2023-01-15T08:49:17.230</time></trkpt><trkpt lat="55.7971860" lon="49.1468447"><time>2023-01-15T08:49:20.240</time></trkpt><trkpt lat="55.7972031" lon="49.1467919"><time>2023-01-15T08:49:21.337</time></trkpt><trkpt lat="55.7972266" lon="49.1466676"><time>2023-01-15T08:49:24.227</time></trkpt><trkpt lat="55.7972416" lon="49.1465739"><time>2023-01-15T08:49:27.227</time></trkpt><trkpt lat="55.7972616" lon="49.1464888"><time>2023-01-15T08:49:30.227</time></trkpt><trkpt lat="55.7972750" lon="49.1464030"><time>2023-01-15T08:49:33.233</time></trkpt><trkpt lat="55.7972546" lon="49.1463276"><time>2023-01-15T08:49:36.237</time></trkpt><trkpt lat="55.7972546" lon="49.1463276"><time>2023-01-15T08:49:36.273</time></trkpt><trkpt lat="55.7972277" lon="49.1462377"><time>2023-01-15T08:49:40.243</time></trkpt><trkpt lat="55.7972280" lon="49.1462371"><time>2023-01-15T08:49:41.347</time></trkpt><trkpt lat="55.7972005" lon="49.1461638"><time>2023-01-15T08:49:46.227</time></trkpt><trkpt lat="55.7972304" lon="49.1462403"><time>2023-01-15T08:49:56.233</time></trkpt><trkpt lat="55.7972399" lon="49.1463287"><time>2023-01-15T08:50:00.230</time></trkpt><trkpt lat="55.7972394" lon="49.1464101"><time>2023-01-15T08:50:03.233</time></trkpt><trkpt lat="55.7972880" lon="49.1464495"><time>2023-01-15T08:50:07.237</time></trkpt><trkpt lat="55.7973488" lon="49.1464341"><time>2023-01-15T08:50:11.233</time></trkpt><trkpt lat="55.7973967" lon="49.1464283"><time>2023-01-15T08:50:14.237</time></trkpt><trkpt lat="55.7974567" lon="49.1464363"><time>2023-01-15T08:50:18.243</time></trkpt><trkpt lat="55.7975160" lon="49.1464488"><time>2023-01-15T08:50:22.230</time></trkpt><trkpt lat="55.7975708" lon="49.1464440"><time>2023-01-15T08:50:25.240</time></trkpt><trkpt lat="55.7976290" lon="49.1464197"><time>2023-01-15T08:50:28.243</time></trkpt><trkpt lat="55.7976715" lon="49.1464151"><time>2023-01-15T08:50:29.353</time></trkpt><trkpt lat="55.7977350" lon="49.1464164"><time>2023-01-15T08:50:33.230</time></trkpt><trkpt lat="55.7977827" lon="49.1464050"><time>2023-01-15T08:50:36.233</time></trkpt><trkpt lat="55.7978439" lon="49.1463747"><time>2023-01-15T08:50:39.240</time></trkpt><trkpt lat="55.7979087" lon="49.1463671"><time>2023-01-15T08:50:42.237</time></trkpt><trkpt lat="55.7979555" lon="49.1463739"><time>2023-01-15T08:50:44.257</time></trkpt><trkpt lat="55.7979890" lon="49.1464757"><time>2023-01-15T08:50:47.247</time></trkpt><trkpt lat="55.7979890" lon="49.1464757"><time>2023-01-15T08:50:47.283</time></trkpt><trkpt lat="55.7979968" lon="49.1465749"><time>2023-01-15T08:50:50.253</time></trkpt><trkpt lat="55.7979747" lon="49.1464710"><time>2023-01-15T08:50:51.350</time></trkpt><trkpt lat="55.7979819" lon="49.1465512"><time>2023-01-15T08:50:57.230</time></trkpt><trkpt lat="55.7979607" lon="49.1466264"><time>2023-01-15T08:51:02.233</time></trkpt><trkpt lat="55.7979107" lon="49.1466872"><time>2023-01-15T08:51:06.237</time></trkpt><trkpt lat="55.7978754" lon="49.1467624"><time>2023-01-15T08:51:11.237</time></trkpt><trkpt lat="55.7978254" lon="49.1468004"><time>2023-01-15T08:51:15.233</time></trkpt><trkpt lat="55.7977773" lon="49.1467937"><time>2023-01-15T08:51:22.237</time></trkpt><trkpt lat="55.7977223" lon="49.1468083"><time>2023-01-15T08:51:28.233</time></trkpt><trkpt lat="55.7976722" lon="49.1467831"><time>2023-01-15T08:51:32.233</time></trkpt><trkpt lat="55.7976260" lon="49.1467457"><time>2023-01-15T08:51:37.237</time></trkpt><trkpt lat="55.7975695" lon="49.1467304"><time>2023-01-15T08:51:41.233</time></trkpt><trkpt lat="55.7975296" lon="49.1467689"><time>2023-01-15T08:51:44.250</time></trkpt><trkpt lat="55.7974865" lon="49.1468306"><time>2023-01-15T08:51:48.230</time></trkpt><trkpt lat="55.7974469" lon="49.1469009"><time>2023-01-15T08:51:52.237</time></trkpt><trkpt lat="55.7974317" lon="49.1469957"><time>2023-01-15T08:51:58.237</time></trkpt><trkpt lat="55.7974330" lon="49.1470880"><time>2023-01-15T08:52:02.233</time></trkpt><trkpt lat="55.7974233" lon="49.1471755"><time>2023-01-15T08:52:06.233</time></trkpt><trkpt lat="55.7974055" lon="49.1472677"><time>2023-01-15T08:52:10.237</time></trkpt><trkpt lat="55.7973956" lon="49.1473683"><time>2023-01-15T08:52:14.233</time></trkpt><trkpt lat="55.7973771" lon="49.1474638"><time>2023-01-15T08:52:18.233</time></trkpt><trkpt lat="55.7973634" lon="49.1475596"><time>2023-01-15T08:52:22.230</time></trkpt><trkpt lat="55.7973681" lon="49.1476393"><time>2023-01-15T08:52:25.237</time></trkpt><trkpt lat="55.7974036" lon="49.1476901"><time>2023-01-15T08:52:28.237</time></trkpt><trkpt lat="55.7974446" lon="49.1477306"><time>2023-01-15T08:52:31.253</time></trkpt><trkpt lat="55.7974533" lon="49.1477913"><time>2023-01-15T08:52:32.363</time></trkpt><trkpt lat="55.7974965" lon="49.1478147"><time>2023-01-15T08:52:36.237</time></trkpt><trkpt lat="55.7975389" lon="49.1478431"><time>2023-01-15T08:52:45.253</time></trkpt><trkpt lat="55.7975958" lon="49.1478192"><time>2023-01-15T08:52:49.247</time></trkpt><trkpt lat="55.7976480" lon="49.1478165"><time>2023-01-15T08:52:51.237</time></trkpt><trkpt lat="55.7976996" lon="49.1478236"><time>2023-01-15T08:52:53.257</time></trkpt><trkpt lat="55.7977670" lon="49.1478300"><time>2023-01-15T08:52:56.237</time></trkpt><trkpt lat="55.7978140" lon="49.1478249"><time>2023-01-15T08:52:58.253</time></trkpt><trkpt lat="55.7978622" lon="49.1478249"><time>2023-01-15T08:53:00.233</time></trkpt><trkpt lat="55.7979137" lon="49.1478370"><time>2023-01-15T08:53:02.237</time></trkpt><trkpt lat="55.7979700" lon="49.1478543"><time>2023-01-15T08:53:04.267</time></trkpt><trkpt lat="55.7979835" lon="49.1478916"><time>2023-01-15T08:53:05.383</time></trkpt><trkpt lat="55.7980382" lon="49.1479384"><time>2023-01-15T08:53:08.230</time></trkpt><trkpt lat="55.7980771" lon="49.1479903"><time>2023-01-15T08:53:13.263</time></trkpt><trkpt lat="55.7981167" lon="49.1480559"><time>2023-01-15T08:53:19.263</time></trkpt><trkpt lat="55.7981641" lon="49.1481029"><time>2023-01-15T08:53:23.230</time></trkpt><trkpt lat="55.7982073" lon="49.1481530"><time>2023-01-15T08:53:30.273</time></trkpt><trkpt lat="55.7982533" lon="49.1481843"><time>2023-01-15T08:53:32.227</time></trkpt><trkpt lat="55.7983018" lon="49.1482129"><time>2023-01-15T08:53:35.233</time></trkpt><trkpt lat="55.7982505" lon="49.1483116"><time>2023-01-15T08:53:38.260</time></trkpt><trkpt lat="55.7982505" lon="49.1483116"><time>2023-01-15T08:53:38.297</time></trkpt><trkpt lat="55.7981920" lon="49.1483566"><time>2023-01-15T08:53:40.243</time></trkpt><trkpt lat="55.7982334" lon="49.1482294"><time>2023-01-15T08:53:41.363</time></trkpt><trkpt lat="55.7981620" lon="49.1482162"><time>2023-01-15T08:53:48.243</time></trkpt><trkpt lat="55.7981003" lon="49.1482099"><time>2023-01-15T08:53:56.230</time></trkpt><trkpt lat="55.7980465" lon="49.1482025"><time>2023-01-15T08:54:00.230</time></trkpt><trkpt lat="55.7979934" lon="49.1482182"><time>2023-01-15T08:54:03.230</time></trkpt><trkpt lat="55.7979362" lon="49.1482270"><time>2023-01-15T08:54:07.250</time></trkpt><trkpt lat="55.7979200" lon="49.1482306"><time>2023-01-15T08:54:08.230</time></trkpt><trkpt lat="55.7978718" lon="49.1482355"><time>2023-01-15T08:54:11.240</time></trkpt><trkpt lat="55.7978231" lon="49.1482497"><time>2023-01-15T08:54:14.237</time></trkpt><trkpt lat="55.7977656" lon="49.1482653"><time>2023-01-15T08:54:18.227</time></trkpt><trkpt lat="55.7977067" lon="49.1482872"><time>2023-01-15T08:54:22.233</time></trkpt><trkpt lat="55.7976496" lon="49.1482845"><time>2023-01-15T08:54:26.237</time></trkpt><trkpt lat="55.7976032" lon="49.1483206"><time>2023-01-15T08:54:29.237</time></trkpt><trkpt lat="55.7975581" lon="49.1483447"><time>2023-01-15T08:54:32.237</time></trkpt><trkpt lat="55.7975018" lon="49.1483592"><time>2023-01-15T08:54:36.237</time></trkpt><trkpt lat="55.7974510" lon="49.1484030"><time>2023-01-15T08:54:40.237</time></trkpt><trkpt lat="55.7974182" lon="49.1484728"><time>2023-01-15T08:54:43.237</time></trkpt><trkpt lat="55.7973833" lon="49.1485266"><time>2023-01-15T08:54:46.230</time></trkpt><trkpt lat="55.7973565" lon="49.1486144"><time>2023-01-15T08:54:50.233</time></trkpt><trkpt lat="55.7973226" lon="49.1486699"><time>2023-01-15T08:54:53.257</time></trkpt><trkpt lat="55.7972878" lon="49.1487538"><time>2023-01-15T08:54:57.263</time></trkpt><trkpt lat="55.7972630" lon="49.1488260"><time>2023-01-15T08:55:00.237</time></trkpt><trkpt lat="55.7972382" lon="49.1489230"><time>2023-01-15T08:55:04.240</time></trkpt><trkpt lat="55.7972117" lon="49.1490020"><time>2023-01-15T08:55:07.240</time></trkpt><trkpt lat="55.7971870" lon="49.1490760"><time>2023-01-15T08:55:10.260</time></trkpt><trkpt lat="55.7971691" lon="49.1491560"><time>2023-01-15T08:55:13.257</time></trkpt><trkpt lat="55.7971674" lon="49.1491716"><time>2023-01-15T08:55:14.237</time></trkpt><trkpt lat="55.7971449" lon="49.1492429"><time>2023-01-15T08:55:17.240</time></trkpt><trkpt lat="55.7971317" lon="49.1493330"><time>2023-01-15T08:55:20.247</time></trkpt><trkpt lat="55.7971164" lon="49.1494197"><time>2023-01-15T08:55:23.260</time></trkpt><trkpt lat="55.7970841" lon="49.1495039"><time>2023-01-15T08:55:25.250</time></trkpt><trkpt lat="55.7970630" lon="49.1495913"><time>2023-01-15T08:55:27.247</time></trkpt><trkpt lat="55.7970503" lon="49.1496891"><time>2023-01-15T08:55:29.250</time></trkpt><trkpt lat="55.7970530" lon="49.1497703"><time>2023-01-15T08:55:31.250</time></trkpt><trkpt lat="55.7970517" lon="49.1498681"><time>2023-01-15T08:55:33.243</time></trkpt><trkpt lat="55.7970375" lon="49.1499448"><time>2023-01-15T08:55:35.247</time></trkpt><trkpt lat="55.7970130" lon="49.1500350"><time>2023-01-15T08:55:38.270</time></trkpt><trkpt lat="55.7970017" lon="49.1500647"><time>2023-01-15T08:55:39.250</time></trkpt><trkpt lat="55.7969853" lon="49.1501458"><time>2023-01-15T08:55:42.237</time></trkpt><trkpt lat="55.7969624" lon="49.1502261"><time>2023-01-15T08:55:45.247</time></trkpt><trkpt lat="55.7969436" lon="49.1503075"><time>2023-01-15T08:55:48.250</time></trkpt><trkpt lat="55.7969301" lon="49.1503907"><time>2023-01-15T08:55:51.243</time></trkpt><trkpt lat="55.7969185" lon="49.1504779"><time>2023-01-15T08:55:55.253</time></trkpt><trkpt lat="55.7969026" lon="49.1505550"><time>2023-01-15T08:55:59.247</time></trkpt><trkpt lat="55.7968831" lon="49.1506461"><time>2023-01-15T08:56:02.230</time></trkpt><trkpt lat="55.7968778" lon="49.1507298"><time>2023-01-15T08:56:05.247</time></trkpt><trkpt lat="55.7968621" lon="49.1508197"><time>2023-01-15T08:56:09.240</time></trkpt><trkpt lat="55.7968427" lon="49.1509193"><time>2023-01-15T08:56:13.237</time></trkpt><trkpt lat="55.7968276" lon="49.1510009"><time>2023-01-15T08:56:16.257</time></trkpt><trkpt lat="55.7968099" lon="49.1510919"><time>2023-01-15T08:56:20.243</time></trkpt><trkpt lat="55.7967922" lon="49.1511656"><time>2023-01-15T08:56:23.257</time></trkpt><trkpt lat="55.7967856" lon="49.1511904"><time>2023-01-15T08:56:24.233</time></trkpt><trkpt lat="55.7967617" lon="49.1512662"><time>2023-01-15T08:56:27.280</time></trkpt><trkpt lat="55.7967453" lon="49.1513592"><time>2023-01-15T08:56:31.247</time></trkpt><trkpt lat="55.7966977" lon="49.1513456"><time>2023-01-15T08:56:36.233</time></trkpt><trkpt lat="55.7966759" lon="49.1512734"><time>2023-01-15T08:56:40.260</time></trkpt><trkpt lat="55.7966864" lon="49.1511918"><time>2023-01-15T08:56:44.237</time></trkpt><trkpt lat="55.7966998" lon="49.1510978"><time>2023-01-15T08:56:49.257</time></trkpt><trkpt lat="55.7966997" lon="49.1510801"><time>2023-01-15T08:56:50.247</time></trkpt><trkpt lat="55.7967240" lon="49.1509966"><time>2023-01-15T08:56:55.250</time></trkpt><trkpt lat="55.7967401" lon="49.1509190"><time>2023-01-15T08:56:59.247</time></trkpt><trkpt lat="55.7967464" lon="49.1508342"><time>2023-01-15T08:57:03.247</time></trkpt><trkpt lat="55.7967402" lon="49.1507517"><time>2023-01-15T08:57:07.250</time></trkpt><trkpt lat="55.7966961" lon="49.1507824"><time>2023-01-15T08:57:11.243</time></trkpt><trkpt lat="55.7966542" lon="49.1508184"><time>2023-01-15T08:57:15.290</time></trkpt><trkpt lat="55.7966093" lon="49.1508577"><time>2023-01-15T08:57:20.237</time></trkpt><trkpt lat="55.7965605" lon="49.1508869"><time>2023-01-15T08:57:25.240</time></trkpt><trkpt lat="55.7965310" lon="49.1509511"><time>2023-01-15T08:57:29.260</time></trkpt><trkpt lat="55.7964856" lon="49.1509745"><time>2023-01-15T08:57:33.250</time></trkpt><trkpt lat="55.7964445" lon="49.1509109"><time>2023-01-15T08:57:38.230</time></trkpt><trkpt lat="55.7964788" lon="49.1508486"><time>2023-01-15T08:57:41.250</time></trkpt><trkpt lat="55.7964767" lon="49.1507517"><time>2023-01-15T08:57:45.240</time></trkpt><trkpt lat="55.7964797" lon="49.1506598"><time>2023-01-15T08:57:49.243</time></trkpt><trkpt lat="55.7964877" lon="49.1505605"><time>2023-01-15T08:57:53.260</time></trkpt><trkpt lat="55.7964877" lon="49.1505605"><time>2023-01-15T08:57:53.307</time></trkpt><trkpt lat="55.7965235" lon="49.1504960"><time>2023-01-15T08:57:57.253</time></trkpt><trkpt lat="55.7965312" lon="49.1504659"><time>2023-01-15T08:57:58.230</time></trkpt><trkpt lat="55.7965378" lon="49.1503630"><time>2023-01-15T08:58:05.247</time></trkpt><trkpt lat="55.7965721" lon="49.1503071"><time>2023-01-15T08:58:09.247</time></trkpt><trkpt lat="55.7966069" lon="49.1503699"><time>2023-01-15T08:58:15.247</time></trkpt><trkpt lat="55.7965746" lon="49.1504430"><time>2023-01-15T08:58:19.237</time></trkpt><trkpt lat="55.7965499" lon="49.1505238"><time>2023-01-15T08:58:23.253</time></trkpt><trkpt lat="55.7965372" lon="49.1506102"><time>2023-01-15T08:58:26.237</time></trkpt><trkpt lat="55.7965285" lon="49.1506908"><time>2023-01-15T08:58:29.230</time></trkpt><trkpt lat="55.7965215" lon="49.1507703"><time>2023-01-15T08:58:32.227</time></trkpt><trkpt lat="55.7965164" lon="49.1508497"><time>2023-01-15T08:58:35.237</time></trkpt><trkpt lat="55.7964860" lon="49.1509147"><time>2023-01-15T08:58:39.237</time></trkpt><trkpt lat="55.7964834" lon="49.1509947"><time>2023-01-15T08:58:42.233</time></trkpt><trkpt lat="55.7964788" lon="49.1510881"><time>2023-01-15T08:58:45.233</time></trkpt><trkpt lat="55.7964638" lon="49.1511890"><time>2023-01-15T08:58:49.237</time></trkpt><trkpt lat="55.7964494" lon="49.1512711"><time>2023-01-15T08:58:52.243</time></trkpt><trkpt lat="55.7964270" lon="49.1513449"><time>2023-01-15T08:58:55.233</time></trkpt><trkpt lat="55.7964087" lon="49.1514280"><time>2023-01-15T08:58:58.243</time></trkpt><trkpt lat="55.7963741" lon="49.1515085"><time>2023-01-15T08:59:02.243</time></trkpt><trkpt lat="55.7963513" lon="49.1516098"><time>2023-01-15T08:59:05.233</time></trkpt><trkpt lat="55.7963380" lon="49.1517019"><time>2023-01-15T08:59:08.243</time></trkpt><trkpt lat="55.7963316" lon="49.1517994"><time>2023-01-15T08:59:12.247</time></trkpt><trkpt lat="55.7963204" lon="49.1518808"><time>2023-01-15T08:59:16.237</time></trkpt><trkpt lat="55.7962898" lon="49.1519432"><time>2023-01-15T08:59:20.243</time></trkpt><trkpt lat="55.7962431" lon="49.1520022"><time>2023-01-15T08:59:23.260</time></trkpt><trkpt lat="55.7961951" lon="49.1520577"><time>2023-01-15T08:59:25.263</time></trkpt><trkpt lat="55.7961431" lon="49.1521156"><time>2023-01-15T08:59:27.257</time></trkpt><trkpt lat="55.7960960" lon="49.1521834"><time>2023-01-15T08:59:29.257</time></trkpt><trkpt lat="55.7960506" lon="49.1522425"><time>2023-01-15T08:59:31.257</time></trkpt><trkpt lat="55.7960028" lon="49.1522934"><time>2023-01-15T08:59:33.247</time></trkpt><trkpt lat="55.7959478" lon="49.1523254"><time>2023-01-15T08:59:36.253</time></trkpt><trkpt lat="55.7959013" lon="49.1523461"><time>2023-01-15T08:59:38.243</time></trkpt><trkpt lat="55.7958489" lon="49.1523688"><time>2023-01-15T08:59:41.237</time></trkpt><trkpt lat="55.7957867" lon="49.1523888"><time>2023-01-15T08:59:45.237</time></trkpt><trkpt lat="55.7957344" lon="49.1523918"><time>2023-01-15T08:59:48.237</time></trkpt><trkpt lat="55.7956899" lon="49.1524234"><time>2023-01-15T08:59:51.237</time></trkpt><trkpt lat="55.7956273" lon="49.1524255"><time>2023-01-15T08:59:54.233</time></trkpt><trkpt lat="55.7955746" lon="49.1524148"><time>2023-01-15T08:59:56.237</time></trkpt><trkpt lat="55.7955241" lon="49.1524133"><time>2023-01-15T08:59:58.237</time></trkpt><trkpt lat="55.7954591" lon="49.1524055"><time>2023-01-15T09:00:00.253</time></trkpt><trkpt lat="55.7954094" lon="49.1523905"><time>2023-01-15T09:00:02.240</time></trkpt><trkpt lat="55.7953494" lon="49.1523601"><time>2023-01-15T09:00:04.240</time></trkpt><trkpt lat="55.7953004" lon="49.1523321"><time>2023-01-15T09:00:06.257</time></trkpt><trkpt lat="55.7952500" lon="49.1523075"><time>2023-01-15T09:00:08.247</time></trkpt><trkpt lat="55.7952043" lon="49.1522928"><time>2023-01-15T09:00:10.240</time></trkpt><trkpt lat="55.7951482" lon="49.1523189"><time>2023-01-15T09:00:14.247</time></trkpt><trkpt lat="55.7950950" lon="49.1523120"><time>2023-01-15T09:00:18.247</time></trkpt><trkpt lat="55.7950481" lon="49.1523136"><time>2023-01-15T09:00:21.250</time></trkpt><trkpt lat="55.7949902" lon="49.1523252"><time>2023-01-15T09:00:25.267</time></trkpt><trkpt lat="55.7949428" lon="49.1523068"><time>2023-01-15T09:00:28.263</time></trkpt><trkpt lat="55.7949250" lon="49.1523028"><time>2023-01-15T09:00:29.260</time></trkpt><trkpt lat="55.7948798" lon="49.1523003"><time>2023-01-15T09:00:32.250</time></trkpt><trkpt lat="55.7948204" lon="49.1523016"><time>2023-01-15T09:00:36.247</time></trkpt><trkpt lat="55.7947691" lon="49.1522910"><time>2023-01-15T09:00:39.247</time></trkpt><trkpt lat="55.7946959" lon="49.1522819"><time>2023-01-15T09:00:42.243</time></trkpt><trkpt lat="55.7946423" lon="49.1522844"><time>2023-01-15T09:00:44.250</time></trkpt><trkpt lat="55.7945848" lon="49.1522565"><time>2023-01-15T09:00:47.257</time></trkpt><trkpt lat="55.7945193" lon="49.1522402"><time>2023-01-15T09:00:50.250</time></trkpt><trkpt lat="55.7944654" lon="49.1522210"><time>2023-01-15T09:00:52.243</time></trkpt><trkpt lat="55.7944184" lon="49.1522117"><time>2023-01-15T09:00:54.237</time></trkpt><trkpt lat="55.7943511" lon="49.1522147"><time>2023-01-15T09:00:57.240</time></trkpt><trkpt lat="55.7943016" lon="49.1521895"><time>2023-01-15T09:01:00.247</time></trkpt><trkpt lat="55.7942583" lon="49.1521657"><time>2023-01-15T09:01:02.240</time></trkpt><trkpt lat="55.7942071" lon="49.1521386"><time>2023-01-15T09:01:05.237</time></trkpt><trkpt lat="55.7941504" lon="49.1521251"><time>2023-01-15T09:01:09.237</time></trkpt><trkpt lat="55.7941042" lon="49.1521001"><time>2023-01-15T09:01:12.243</time></trkpt><trkpt lat="55.7940500" lon="49.1520978"><time>2023-01-15T09:01:16.240</time></trkpt><trkpt lat="55.7940022" lon="49.1521011"><time>2023-01-15T09:01:19.250</time></trkpt><trkpt lat="55.7939502" lon="49.1520930"><time>2023-01-15T09:01:22.293</time></trkpt><trkpt lat="55.7939326" lon="49.1520905"><time>2023-01-15T09:01:23.257</time></trkpt><trkpt lat="55.7938801" lon="49.1520823"><time>2023-01-15T09:01:26.253</time></trkpt><trkpt lat="55.7938320" lon="49.1520999"><time>2023-01-15T09:01:29.237</time></trkpt><trkpt lat="55.7937925" lon="49.1520603"><time>2023-01-15T09:01:32.260</time></trkpt><trkpt lat="55.7937693" lon="49.1519910"><time>2023-01-15T09:01:35.250</time></trkpt><trkpt lat="55.7937468" lon="49.1519153"><time>2023-01-15T09:01:38.247</time></trkpt><trkpt lat="55.7937349" lon="49.1518374"><time>2023-01-15T09:01:41.233</time></trkpt><trkpt lat="55.7937332" lon="49.1517425"><time>2023-01-15T09:01:45.230</time></trkpt><trkpt lat="55.7937267" lon="49.1516544"><time>2023-01-15T09:01:49.233</time></trkpt><trkpt lat="55.7936753" lon="49.1516122"><time>2023-01-15T09:01:54.237</time></trkpt><trkpt lat="55.7936291" lon="49.1515917"><time>2023-01-15T09:01:58.233</time></trkpt><trkpt lat="55.7935758" lon="49.1515476"><time>2023-01-15T09:02:02.250</time></trkpt><trkpt lat="55.7935659" lon="49.1515370"><time>2023-01-15T09:02:03.237</time></trkpt><trkpt lat="55.7935216" lon="49.1515217"><time>2023-01-15T09:02:06.227</time></trkpt><trkpt lat="55.7934726" lon="49.1514958"><time>2023-01-15T09:02:10.227</time></trkpt><trkpt lat="55.7934212" lon="49.1514833"><time>2023-01-15T09:02:14.230</time></trkpt><trkpt lat="55.7933782" lon="49.1514578"><time>2023-01-15T09:02:17.237</time></trkpt><trkpt lat="55.7933325" lon="49.1514403"><time>2023-01-15T09:02:20.230</time></trkpt><trkpt lat="55.7932833" lon="49.1514313"><time>2023-01-15T09:02:24.230</time></trkpt><trkpt lat="55.7932398" lon="49.1514732"><time>2023-01-15T09:02:29.230</time></trkpt><trkpt lat="55.7931963" lon="49.1515029"><time>2023-01-15T09:02:33.237</time></trkpt><trkpt lat="55.7931515" lon="49.1515374"><time>2023-01-15T09:02:38.230</time></trkpt><trkpt lat="55.7931061" lon="49.1515549"><time>2023-01-15T09:02:42.230</time></trkpt><trkpt lat="55.7931563" lon="49.1515867"><time>2023-01-15T09:02:56.227</time></trkpt></trkseg></trk></gpx>